<?xml version="1.0" encoding="UTF-8"?>
<gpx version="1.1" creator="https://www.youtrack.es" xsi:schemaLocation="http://www.topografix.com/GPX/1/1 http://www.topografix.com/GPX/1/1/gpx.xsd http://www.garmin.com/xmlschemas/GpxExtensions/v3 http://www.garmin.com/xmlschemas/GpxExtensionsv3.xsd http://www.garmin.com/xmlschemas/TrackPointExtension/v1 http://www.garmin.com/xmlschemas/TrackPointExtensionv1.xsd" xmlns:gpxtpx="http://www.garmin.com/xmlschemas/TrackPointExtension/v1" xmlns:gpxx="http://www.garmin.com/xmlschemas/GpxExtensions/v3" xmlns:xsi="http://www.w3.org/2001/XMLSchema-instance">
  <metadata>
    <link href="https://www.youtrack.es">
      <text>YouTrack.es</text>
    </link>
    <time>2026-05-07T18:24:12Z</time>
  </metadata>
  <trk>
    <src>https://www.youtrack.es</src>
    <link href="https://www.youtrack.es/ruta/12902-orzola-ye">
      <text>YouTrack.es</text>
    </link>
    <trkseg>
      <trkpt lat="29.222069" lon="-13.453903">
        <ele>18.084</ele>
        <time>2020-05-02T08:58:08Z</time>
      </trkpt>
      <trkpt lat="29.222055" lon="-13.453899">
        <ele>17.607</ele>
        <time>2020-05-02T08:58:09Z</time>
      </trkpt>
      <trkpt lat="29.222023" lon="-13.453882">
        <ele>17.817</ele>
        <time>2020-05-02T08:58:11Z</time>
      </trkpt>
      <trkpt lat="29.221997" lon="-13.453866">
        <ele>17.608</ele>
        <time>2020-05-02T08:58:13Z</time>
      </trkpt>
      <trkpt lat="29.221995" lon="-13.453820">
        <ele>17.672</ele>
        <time>2020-05-02T08:58:16Z</time>
      </trkpt>
      <trkpt lat="29.221992" lon="-13.453768">
        <ele>17.826</ele>
        <time>2020-05-02T08:58:19Z</time>
      </trkpt>
      <trkpt lat="29.221993" lon="-13.453652">
        <ele>18.225</ele>
        <time>2020-05-02T08:58:26Z</time>
      </trkpt>
      <trkpt lat="29.222005" lon="-13.453580">
        <ele>18.216</ele>
        <time>2020-05-02T08:58:30Z</time>
      </trkpt>
      <trkpt lat="29.222000" lon="-13.453529">
        <ele>18.461</ele>
        <time>2020-05-02T08:58:33Z</time>
      </trkpt>
      <trkpt lat="29.222000" lon="-13.453499">
        <ele>18.619</ele>
        <time>2020-05-02T08:58:35Z</time>
      </trkpt>
      <trkpt lat="29.222006" lon="-13.453409">
        <ele>18.453</ele>
        <time>2020-05-02T08:58:40Z</time>
      </trkpt>
      <trkpt lat="29.222018" lon="-13.453308">
        <ele>18.239</ele>
        <time>2020-05-02T08:58:46Z</time>
      </trkpt>
      <trkpt lat="29.222015" lon="-13.453291">
        <ele>18.211</ele>
        <time>2020-05-02T08:58:47Z</time>
      </trkpt>
      <trkpt lat="29.222025" lon="-13.453161">
        <ele>18.221</ele>
        <time>2020-05-02T08:58:54Z</time>
      </trkpt>
      <trkpt lat="29.222012" lon="-13.453024">
        <ele>18.403</ele>
        <time>2020-05-02T08:59:02Z</time>
      </trkpt>
      <trkpt lat="29.221986" lon="-13.452913">
        <ele>18.608</ele>
        <time>2020-05-02T08:59:10Z</time>
      </trkpt>
      <trkpt lat="29.222001" lon="-13.452876">
        <ele>18.635</ele>
        <time>2020-05-02T08:59:12Z</time>
      </trkpt>
      <trkpt lat="29.221998" lon="-13.452862">
        <ele>18.449</ele>
        <time>2020-05-02T08:59:13Z</time>
      </trkpt>
      <trkpt lat="29.221970" lon="-13.452827">
        <ele>18.438</ele>
        <time>2020-05-02T08:59:16Z</time>
      </trkpt>
      <trkpt lat="29.221918" lon="-13.452786">
        <ele>18.639</ele>
        <time>2020-05-02T08:59:20Z</time>
      </trkpt>
      <trkpt lat="29.221881" lon="-13.452774">
        <ele>18.864</ele>
        <time>2020-05-02T08:59:23Z</time>
      </trkpt>
      <trkpt lat="29.221854" lon="-13.452761">
        <ele>18.892</ele>
        <time>2020-05-02T08:59:25Z</time>
      </trkpt>
      <trkpt lat="29.221786" lon="-13.452758">
        <ele>19.066</ele>
        <time>2020-05-02T08:59:30Z</time>
      </trkpt>
      <trkpt lat="29.221698" lon="-13.452761">
        <ele>19.062</ele>
        <time>2020-05-02T08:59:37Z</time>
      </trkpt>
      <trkpt lat="29.221612" lon="-13.452763">
        <ele>19.484</ele>
        <time>2020-05-02T08:59:43Z</time>
      </trkpt>
      <trkpt lat="29.221589" lon="-13.452763">
        <ele>19.607</ele>
        <time>2020-05-02T08:59:45Z</time>
      </trkpt>
      <trkpt lat="29.221500" lon="-13.452754">
        <ele>19.417</ele>
        <time>2020-05-02T08:59:50Z</time>
      </trkpt>
      <trkpt lat="29.221353" lon="-13.452765">
        <ele>19.208</ele>
        <time>2020-05-02T08:59:58Z</time>
      </trkpt>
      <trkpt lat="29.221237" lon="-13.452787">
        <ele>19.482</ele>
        <time>2020-05-02T09:00:05Z</time>
      </trkpt>
      <trkpt lat="29.221094" lon="-13.452796">
        <ele>19.686</ele>
        <time>2020-05-02T09:00:13Z</time>
      </trkpt>
      <trkpt lat="29.220977" lon="-13.452790">
        <ele>19.885</ele>
        <time>2020-05-02T09:00:21Z</time>
      </trkpt>
      <trkpt lat="29.220947" lon="-13.452788">
        <ele>19.836</ele>
        <time>2020-05-02T09:00:23Z</time>
      </trkpt>
      <trkpt lat="29.220867" lon="-13.452804">
        <ele>20.071</ele>
        <time>2020-05-02T09:00:29Z</time>
      </trkpt>
      <trkpt lat="29.220752" lon="-13.452823">
        <ele>20.629</ele>
        <time>2020-05-02T09:00:37Z</time>
      </trkpt>
      <trkpt lat="29.220738" lon="-13.452824">
        <ele>20.613</ele>
        <time>2020-05-02T09:00:38Z</time>
      </trkpt>
      <trkpt lat="29.220616" lon="-13.452841">
        <ele>20.649</ele>
        <time>2020-05-02T09:00:46Z</time>
      </trkpt>
      <trkpt lat="29.220515" lon="-13.452900">
        <ele>20.634</ele>
        <time>2020-05-02T09:00:53Z</time>
      </trkpt>
      <trkpt lat="29.220498" lon="-13.452980">
        <ele>20.455</ele>
        <time>2020-05-02T09:00:57Z</time>
      </trkpt>
      <trkpt lat="29.220488" lon="-13.453027">
        <ele>20.610</ele>
        <time>2020-05-02T09:00:59Z</time>
      </trkpt>
      <trkpt lat="29.220474" lon="-13.453099">
        <ele>20.608</ele>
        <time>2020-05-02T09:01:03Z</time>
      </trkpt>
      <trkpt lat="29.220465" lon="-13.453190">
        <ele>20.687</ele>
        <time>2020-05-02T09:01:08Z</time>
      </trkpt>
      <trkpt lat="29.220461" lon="-13.453240">
        <ele>20.851</ele>
        <time>2020-05-02T09:01:11Z</time>
      </trkpt>
      <trkpt lat="29.220461" lon="-13.453322">
        <ele>20.890</ele>
        <time>2020-05-02T09:01:15Z</time>
      </trkpt>
      <trkpt lat="29.220459" lon="-13.453447">
        <ele>21.041</ele>
        <time>2020-05-02T09:01:22Z</time>
      </trkpt>
      <trkpt lat="29.220452" lon="-13.453523">
        <ele>21.236</ele>
        <time>2020-05-02T09:01:26Z</time>
      </trkpt>
      <trkpt lat="29.220445" lon="-13.453599">
        <ele>21.414</ele>
        <time>2020-05-02T09:01:30Z</time>
      </trkpt>
      <trkpt lat="29.220439" lon="-13.453738">
        <ele>21.038</ele>
        <time>2020-05-02T09:01:38Z</time>
      </trkpt>
      <trkpt lat="29.220435" lon="-13.453912">
        <ele>21.244</ele>
        <time>2020-05-02T09:01:46Z</time>
      </trkpt>
      <trkpt lat="29.220425" lon="-13.454032">
        <ele>21.245</ele>
        <time>2020-05-02T09:01:52Z</time>
      </trkpt>
      <trkpt lat="29.220420" lon="-13.454092">
        <ele>21.247</ele>
        <time>2020-05-02T09:01:55Z</time>
      </trkpt>
      <trkpt lat="29.220431" lon="-13.454216">
        <ele>21.411</ele>
        <time>2020-05-02T09:02:02Z</time>
      </trkpt>
      <trkpt lat="29.220425" lon="-13.454273">
        <ele>21.408</ele>
        <time>2020-05-02T09:02:05Z</time>
      </trkpt>
      <trkpt lat="29.220401" lon="-13.454473">
        <ele>21.458</ele>
        <time>2020-05-02T09:02:15Z</time>
      </trkpt>
      <trkpt lat="29.220397" lon="-13.454533">
        <ele>21.482</ele>
        <time>2020-05-02T09:02:18Z</time>
      </trkpt>
      <trkpt lat="29.220392" lon="-13.454636">
        <ele>21.461</ele>
        <time>2020-05-02T09:02:24Z</time>
      </trkpt>
      <trkpt lat="29.220391" lon="-13.454694">
        <ele>21.652</ele>
        <time>2020-05-02T09:02:27Z</time>
      </trkpt>
      <trkpt lat="29.220381" lon="-13.454804">
        <ele>21.817</ele>
        <time>2020-05-02T09:02:33Z</time>
      </trkpt>
      <trkpt lat="29.220361" lon="-13.455005">
        <ele>21.665</ele>
        <time>2020-05-02T09:02:44Z</time>
      </trkpt>
      <trkpt lat="29.220354" lon="-13.455122">
        <ele>21.649</ele>
        <time>2020-05-02T09:02:50Z</time>
      </trkpt>
      <trkpt lat="29.220353" lon="-13.455277">
        <ele>21.485</ele>
        <time>2020-05-02T09:02:58Z</time>
      </trkpt>
      <trkpt lat="29.220352" lon="-13.455437">
        <ele>21.676</ele>
        <time>2020-05-02T09:03:06Z</time>
      </trkpt>
      <trkpt lat="29.220348" lon="-13.455578">
        <ele>21.690</ele>
        <time>2020-05-02T09:03:14Z</time>
      </trkpt>
      <trkpt lat="29.220355" lon="-13.455719">
        <ele>21.419</ele>
        <time>2020-05-02T09:03:22Z</time>
      </trkpt>
      <trkpt lat="29.220351" lon="-13.455887">
        <ele>21.208</ele>
        <time>2020-05-02T09:03:31Z</time>
      </trkpt>
      <trkpt lat="29.220349" lon="-13.456008">
        <ele>21.081</ele>
        <time>2020-05-02T09:03:38Z</time>
      </trkpt>
      <trkpt lat="29.220350" lon="-13.456040">
        <ele>21.065</ele>
        <time>2020-05-02T09:03:40Z</time>
      </trkpt>
      <trkpt lat="29.220352" lon="-13.456180">
        <ele>21.044</ele>
        <time>2020-05-02T09:03:49Z</time>
      </trkpt>
      <trkpt lat="29.220332" lon="-13.456211">
        <ele>20.865</ele>
        <time>2020-05-02T09:03:52Z</time>
      </trkpt>
      <trkpt lat="29.220301" lon="-13.456217">
        <ele>20.870</ele>
        <time>2020-05-02T09:03:54Z</time>
      </trkpt>
      <trkpt lat="29.220194" lon="-13.456212">
        <ele>21.258</ele>
        <time>2020-05-02T09:04:00Z</time>
      </trkpt>
      <trkpt lat="29.220164" lon="-13.456209">
        <ele>21.492</ele>
        <time>2020-05-02T09:04:02Z</time>
      </trkpt>
      <trkpt lat="29.220063" lon="-13.456201">
        <ele>21.888</ele>
        <time>2020-05-02T09:04:08Z</time>
      </trkpt>
      <trkpt lat="29.220035" lon="-13.456201">
        <ele>21.885</ele>
        <time>2020-05-02T09:04:10Z</time>
      </trkpt>
      <trkpt lat="29.219935" lon="-13.456204">
        <ele>22.089</ele>
        <time>2020-05-02T09:04:16Z</time>
      </trkpt>
      <trkpt lat="29.219885" lon="-13.456205">
        <ele>22.017</ele>
        <time>2020-05-02T09:04:19Z</time>
      </trkpt>
      <trkpt lat="29.219800" lon="-13.456207">
        <ele>21.808</ele>
        <time>2020-05-02T09:04:25Z</time>
      </trkpt>
      <trkpt lat="29.219676" lon="-13.456205">
        <ele>22.082</ele>
        <time>2020-05-02T09:04:34Z</time>
      </trkpt>
      <trkpt lat="29.219556" lon="-13.456216">
        <ele>22.216</ele>
        <time>2020-05-02T09:04:43Z</time>
      </trkpt>
      <trkpt lat="29.219518" lon="-13.456222">
        <ele>22.475</ele>
        <time>2020-05-02T09:04:46Z</time>
      </trkpt>
      <trkpt lat="29.219450" lon="-13.456227">
        <ele>22.816</ele>
        <time>2020-05-02T09:04:50Z</time>
      </trkpt>
      <trkpt lat="29.219346" lon="-13.456218">
        <ele>23.071</ele>
        <time>2020-05-02T09:04:56Z</time>
      </trkpt>
      <trkpt lat="29.219312" lon="-13.456219">
        <ele>23.099</ele>
        <time>2020-05-02T09:04:58Z</time>
      </trkpt>
      <trkpt lat="29.219174" lon="-13.456209">
        <ele>23.253</ele>
        <time>2020-05-02T09:05:05Z</time>
      </trkpt>
      <trkpt lat="29.219129" lon="-13.456201">
        <ele>23.419</ele>
        <time>2020-05-02T09:05:07Z</time>
      </trkpt>
      <trkpt lat="29.218942" lon="-13.456159">
        <ele>23.656</ele>
        <time>2020-05-02T09:05:16Z</time>
      </trkpt>
      <trkpt lat="29.218863" lon="-13.456149">
        <ele>23.859</ele>
        <time>2020-05-02T09:05:20Z</time>
      </trkpt>
      <trkpt lat="29.218786" lon="-13.456152">
        <ele>24.014</ele>
        <time>2020-05-02T09:05:24Z</time>
      </trkpt>
      <trkpt lat="29.218684" lon="-13.456142">
        <ele>24.408</ele>
        <time>2020-05-02T09:05:30Z</time>
      </trkpt>
      <trkpt lat="29.218571" lon="-13.456148">
        <ele>24.819</ele>
        <time>2020-05-02T09:05:37Z</time>
      </trkpt>
      <trkpt lat="29.218467" lon="-13.456152">
        <ele>25.693</ele>
        <time>2020-05-02T09:05:44Z</time>
      </trkpt>
      <trkpt lat="29.218394" lon="-13.456149">
        <ele>25.812</ele>
        <time>2020-05-02T09:05:49Z</time>
      </trkpt>
      <trkpt lat="29.218365" lon="-13.456145">
        <ele>26.063</ele>
        <time>2020-05-02T09:05:51Z</time>
      </trkpt>
      <trkpt lat="29.218297" lon="-13.456117">
        <ele>26.498</ele>
        <time>2020-05-02T09:05:56Z</time>
      </trkpt>
      <trkpt lat="29.218274" lon="-13.456097">
        <ele>26.696</ele>
        <time>2020-05-02T09:05:58Z</time>
      </trkpt>
      <trkpt lat="29.218192" lon="-13.456037">
        <ele>26.840</ele>
        <time>2020-05-02T09:06:04Z</time>
      </trkpt>
      <trkpt lat="29.218122" lon="-13.455996">
        <ele>26.626</ele>
        <time>2020-05-02T09:06:09Z</time>
      </trkpt>
      <trkpt lat="29.218014" lon="-13.455912">
        <ele>27.052</ele>
        <time>2020-05-02T09:06:17Z</time>
      </trkpt>
      <trkpt lat="29.218002" lon="-13.455903">
        <ele>27.253</ele>
        <time>2020-05-02T09:06:18Z</time>
      </trkpt>
      <trkpt lat="29.217874" lon="-13.455831">
        <ele>27.408</ele>
        <time>2020-05-02T09:06:27Z</time>
      </trkpt>
      <trkpt lat="29.217746" lon="-13.455785">
        <ele>27.408</ele>
        <time>2020-05-02T09:06:34Z</time>
      </trkpt>
      <trkpt lat="29.217623" lon="-13.455744">
        <ele>27.859</ele>
        <time>2020-05-02T09:06:41Z</time>
      </trkpt>
      <trkpt lat="29.217539" lon="-13.455721">
        <ele>28.033</ele>
        <time>2020-05-02T09:06:46Z</time>
      </trkpt>
      <trkpt lat="29.217475" lon="-13.455698">
        <ele>28.492</ele>
        <time>2020-05-02T09:06:50Z</time>
      </trkpt>
      <trkpt lat="29.217425" lon="-13.455686">
        <ele>28.433</ele>
        <time>2020-05-02T09:06:53Z</time>
      </trkpt>
      <trkpt lat="29.217350" lon="-13.455663">
        <ele>28.638</ele>
        <time>2020-05-02T09:06:58Z</time>
      </trkpt>
      <trkpt lat="29.217318" lon="-13.455652">
        <ele>28.616</ele>
        <time>2020-05-02T09:07:00Z</time>
      </trkpt>
      <trkpt lat="29.217184" lon="-13.455598">
        <ele>28.610</ele>
        <time>2020-05-02T09:07:08Z</time>
      </trkpt>
      <trkpt lat="29.217070" lon="-13.455568">
        <ele>28.656</ele>
        <time>2020-05-02T09:07:15Z</time>
      </trkpt>
      <trkpt lat="29.216924" lon="-13.455553">
        <ele>28.831</ele>
        <time>2020-05-02T09:07:23Z</time>
      </trkpt>
      <trkpt lat="29.216819" lon="-13.455543">
        <ele>28.661</ele>
        <time>2020-05-02T09:07:30Z</time>
      </trkpt>
      <trkpt lat="29.216747" lon="-13.455462">
        <ele>28.807</ele>
        <time>2020-05-02T09:07:37Z</time>
      </trkpt>
      <trkpt lat="29.216730" lon="-13.455460">
        <ele>28.808</ele>
        <time>2020-05-02T09:07:38Z</time>
      </trkpt>
      <trkpt lat="29.216662" lon="-13.455491">
        <ele>29.287</ele>
        <time>2020-05-02T09:07:42Z</time>
      </trkpt>
      <trkpt lat="29.216612" lon="-13.455524">
        <ele>29.271</ele>
        <time>2020-05-02T09:07:46Z</time>
      </trkpt>
      <trkpt lat="29.216541" lon="-13.455557">
        <ele>29.830</ele>
        <time>2020-05-02T09:07:51Z</time>
      </trkpt>
      <trkpt lat="29.216407" lon="-13.455563">
        <ele>30.271</ele>
        <time>2020-05-02T09:07:59Z</time>
      </trkpt>
      <trkpt lat="29.216388" lon="-13.455561">
        <ele>30.266</ele>
        <time>2020-05-02T09:08:00Z</time>
      </trkpt>
      <trkpt lat="29.216278" lon="-13.455560">
        <ele>30.284</ele>
        <time>2020-05-02T09:08:07Z</time>
      </trkpt>
      <trkpt lat="29.216180" lon="-13.455553">
        <ele>30.458</ele>
        <time>2020-05-02T09:08:14Z</time>
      </trkpt>
      <trkpt lat="29.216132" lon="-13.455554">
        <ele>30.474</ele>
        <time>2020-05-02T09:08:17Z</time>
      </trkpt>
      <trkpt lat="29.216065" lon="-13.455558">
        <ele>30.625</ele>
        <time>2020-05-02T09:08:22Z</time>
      </trkpt>
      <trkpt lat="29.215916" lon="-13.455582">
        <ele>31.226</ele>
        <time>2020-05-02T09:08:31Z</time>
      </trkpt>
      <trkpt lat="29.215821" lon="-13.455670">
        <ele>31.808</ele>
        <time>2020-05-02T09:08:38Z</time>
      </trkpt>
      <trkpt lat="29.215753" lon="-13.455791">
        <ele>32.008</ele>
        <time>2020-05-02T09:08:45Z</time>
      </trkpt>
      <trkpt lat="29.215726" lon="-13.455838">
        <ele>32.416</ele>
        <time>2020-05-02T09:08:48Z</time>
      </trkpt>
      <trkpt lat="29.215682" lon="-13.455900">
        <ele>33.060</ele>
        <time>2020-05-02T09:08:53Z</time>
      </trkpt>
      <trkpt lat="29.215613" lon="-13.455950">
        <ele>33.439</ele>
        <time>2020-05-02T09:08:58Z</time>
      </trkpt>
      <trkpt lat="29.215583" lon="-13.455959">
        <ele>33.640</ele>
        <time>2020-05-02T09:09:00Z</time>
      </trkpt>
      <trkpt lat="29.215511" lon="-13.455941">
        <ele>33.865</ele>
        <time>2020-05-02T09:09:06Z</time>
      </trkpt>
      <trkpt lat="29.215429" lon="-13.455870">
        <ele>34.033</ele>
        <time>2020-05-02T09:09:12Z</time>
      </trkpt>
      <trkpt lat="29.215324" lon="-13.455830">
        <ele>33.867</ele>
        <time>2020-05-02T09:09:19Z</time>
      </trkpt>
      <trkpt lat="29.215213" lon="-13.455806">
        <ele>33.413</ele>
        <time>2020-05-02T09:09:26Z</time>
      </trkpt>
      <trkpt lat="29.215049" lon="-13.455791">
        <ele>33.625</ele>
        <time>2020-05-02T09:09:36Z</time>
      </trkpt>
      <trkpt lat="29.214913" lon="-13.455775">
        <ele>33.226</ele>
        <time>2020-05-02T09:09:44Z</time>
      </trkpt>
      <trkpt lat="29.214787" lon="-13.455740">
        <ele>33.208</ele>
        <time>2020-05-02T09:09:52Z</time>
      </trkpt>
      <trkpt lat="29.214723" lon="-13.455668">
        <ele>33.408</ele>
        <time>2020-05-02T09:09:59Z</time>
      </trkpt>
      <trkpt lat="29.214642" lon="-13.455556">
        <ele>33.236</ele>
        <time>2020-05-02T09:10:08Z</time>
      </trkpt>
      <trkpt lat="29.214589" lon="-13.455487">
        <ele>33.220</ele>
        <time>2020-05-02T09:10:14Z</time>
      </trkpt>
      <trkpt lat="29.214553" lon="-13.455447">
        <ele>33.259</ele>
        <time>2020-05-02T09:10:17Z</time>
      </trkpt>
      <trkpt lat="29.214507" lon="-13.455402">
        <ele>33.480</ele>
        <time>2020-05-02T09:10:21Z</time>
      </trkpt>
      <trkpt lat="29.214481" lon="-13.455361">
        <ele>33.475</ele>
        <time>2020-05-02T09:10:24Z</time>
      </trkpt>
      <trkpt lat="29.214450" lon="-13.455249">
        <ele>33.433</ele>
        <time>2020-05-02T09:10:31Z</time>
      </trkpt>
      <trkpt lat="29.214466" lon="-13.455130">
        <ele>33.237</ele>
        <time>2020-05-02T09:10:38Z</time>
      </trkpt>
      <trkpt lat="29.214471" lon="-13.455080">
        <ele>33.273</ele>
        <time>2020-05-02T09:10:41Z</time>
      </trkpt>
      <trkpt lat="29.214471" lon="-13.455034">
        <ele>33.267</ele>
        <time>2020-05-02T09:10:44Z</time>
      </trkpt>
      <trkpt lat="29.214485" lon="-13.454892">
        <ele>33.281</ele>
        <time>2020-05-02T09:10:52Z</time>
      </trkpt>
      <trkpt lat="29.214491" lon="-13.454764">
        <ele>33.019</ele>
        <time>2020-05-02T09:10:59Z</time>
      </trkpt>
      <trkpt lat="29.214481" lon="-13.454728">
        <ele>33.008</ele>
        <time>2020-05-02T09:11:01Z</time>
      </trkpt>
      <trkpt lat="29.214486" lon="-13.454596">
        <ele>33.410</ele>
        <time>2020-05-02T09:11:08Z</time>
      </trkpt>
      <trkpt lat="29.214495" lon="-13.454447">
        <ele>33.234</ele>
        <time>2020-05-02T09:11:17Z</time>
      </trkpt>
      <trkpt lat="29.214466" lon="-13.454330">
        <ele>33.613</ele>
        <time>2020-05-02T09:11:24Z</time>
      </trkpt>
      <trkpt lat="29.214401" lon="-13.454288">
        <ele>33.294</ele>
        <time>2020-05-02T09:11:29Z</time>
      </trkpt>
      <trkpt lat="29.214325" lon="-13.454260">
        <ele>33.469</ele>
        <time>2020-05-02T09:11:36Z</time>
      </trkpt>
      <trkpt lat="29.214289" lon="-13.454252">
        <ele>33.457</ele>
        <time>2020-05-02T09:11:38Z</time>
      </trkpt>
      <trkpt lat="29.214247" lon="-13.454237">
        <ele>33.671</ele>
        <time>2020-05-02T09:11:41Z</time>
      </trkpt>
      <trkpt lat="29.214194" lon="-13.454207">
        <ele>33.627</ele>
        <time>2020-05-02T09:11:45Z</time>
      </trkpt>
      <trkpt lat="29.214108" lon="-13.454169">
        <ele>34.047</ele>
        <time>2020-05-02T09:11:52Z</time>
      </trkpt>
      <trkpt lat="29.214055" lon="-13.454153">
        <ele>34.229</ele>
        <time>2020-05-02T09:11:56Z</time>
      </trkpt>
      <trkpt lat="29.213995" lon="-13.454155">
        <ele>34.421</ele>
        <time>2020-05-02T09:12:03Z</time>
      </trkpt>
      <trkpt lat="29.213982" lon="-13.454150">
        <ele>34.408</ele>
        <time>2020-05-02T09:12:04Z</time>
      </trkpt>
      <trkpt lat="29.213967" lon="-13.454148">
        <ele>34.288</ele>
        <time>2020-05-02T09:12:05Z</time>
      </trkpt>
      <trkpt lat="29.213936" lon="-13.454144">
        <ele>34.252</ele>
        <time>2020-05-02T09:12:07Z</time>
      </trkpt>
      <trkpt lat="29.213897" lon="-13.454129">
        <ele>34.291</ele>
        <time>2020-05-02T09:12:10Z</time>
      </trkpt>
      <trkpt lat="29.213884" lon="-13.454124">
        <ele>34.462</ele>
        <time>2020-05-02T09:12:11Z</time>
      </trkpt>
      <trkpt lat="29.213859" lon="-13.454110">
        <ele>34.687</ele>
        <time>2020-05-02T09:12:13Z</time>
      </trkpt>
      <trkpt lat="29.213755" lon="-13.454062">
        <ele>34.295</ele>
        <time>2020-05-02T09:12:20Z</time>
      </trkpt>
      <trkpt lat="29.213655" lon="-13.454043">
        <ele>34.839</ele>
        <time>2020-05-02T09:12:26Z</time>
      </trkpt>
      <trkpt lat="29.213637" lon="-13.454044">
        <ele>34.885</ele>
        <time>2020-05-02T09:12:27Z</time>
      </trkpt>
      <trkpt lat="29.213540" lon="-13.454030">
        <ele>35.212</ele>
        <time>2020-05-02T09:12:33Z</time>
      </trkpt>
      <trkpt lat="29.213418" lon="-13.453994">
        <ele>35.432</ele>
        <time>2020-05-02T09:12:40Z</time>
      </trkpt>
      <trkpt lat="29.213385" lon="-13.453986">
        <ele>35.405</ele>
        <time>2020-05-02T09:12:42Z</time>
      </trkpt>
      <trkpt lat="29.213303" lon="-13.453959">
        <ele>35.808</ele>
        <time>2020-05-02T09:12:47Z</time>
      </trkpt>
      <trkpt lat="29.213243" lon="-13.453953">
        <ele>35.895</ele>
        <time>2020-05-02T09:12:50Z</time>
      </trkpt>
      <trkpt lat="29.213184" lon="-13.453951">
        <ele>36.289</ele>
        <time>2020-05-02T09:12:54Z</time>
      </trkpt>
      <trkpt lat="29.213146" lon="-13.453950">
        <ele>36.658</ele>
        <time>2020-05-02T09:12:57Z</time>
      </trkpt>
      <trkpt lat="29.213078" lon="-13.453953">
        <ele>36.859</ele>
        <time>2020-05-02T09:13:02Z</time>
      </trkpt>
      <trkpt lat="29.212977" lon="-13.453940">
        <ele>37.034</ele>
        <time>2020-05-02T09:13:09Z</time>
      </trkpt>
      <trkpt lat="29.212861" lon="-13.453949">
        <ele>37.092</ele>
        <time>2020-05-02T09:13:16Z</time>
      </trkpt>
      <trkpt lat="29.212800" lon="-13.453947">
        <ele>37.626</ele>
        <time>2020-05-02T09:13:20Z</time>
      </trkpt>
      <trkpt lat="29.212749" lon="-13.453953">
        <ele>37.682</ele>
        <time>2020-05-02T09:13:23Z</time>
      </trkpt>
      <trkpt lat="29.212612" lon="-13.453955">
        <ele>37.851</ele>
        <time>2020-05-02T09:13:31Z</time>
      </trkpt>
      <trkpt lat="29.212546" lon="-13.453943">
        <ele>38.201</ele>
        <time>2020-05-02T09:13:35Z</time>
      </trkpt>
      <trkpt lat="29.212515" lon="-13.453940">
        <ele>38.411</ele>
        <time>2020-05-02T09:13:37Z</time>
      </trkpt>
      <trkpt lat="29.212402" lon="-13.453949">
        <ele>38.408</ele>
        <time>2020-05-02T09:13:44Z</time>
      </trkpt>
      <trkpt lat="29.212385" lon="-13.453951">
        <ele>38.649</ele>
        <time>2020-05-02T09:13:45Z</time>
      </trkpt>
      <trkpt lat="29.212286" lon="-13.453958">
        <ele>38.893</ele>
        <time>2020-05-02T09:13:52Z</time>
      </trkpt>
      <trkpt lat="29.212170" lon="-13.453958">
        <ele>39.072</ele>
        <time>2020-05-02T09:14:00Z</time>
      </trkpt>
      <trkpt lat="29.212144" lon="-13.453954">
        <ele>39.053</ele>
        <time>2020-05-02T09:14:02Z</time>
      </trkpt>
      <trkpt lat="29.212061" lon="-13.453948">
        <ele>39.088</ele>
        <time>2020-05-02T09:14:08Z</time>
      </trkpt>
      <trkpt lat="29.211974" lon="-13.453963">
        <ele>39.646</ele>
        <time>2020-05-02T09:14:14Z</time>
      </trkpt>
      <trkpt lat="29.211944" lon="-13.453967">
        <ele>40.020</ele>
        <time>2020-05-02T09:14:16Z</time>
      </trkpt>
      <trkpt lat="29.211833" lon="-13.453965">
        <ele>39.816</ele>
        <time>2020-05-02T09:14:23Z</time>
      </trkpt>
      <trkpt lat="29.211743" lon="-13.453983">
        <ele>40.079</ele>
        <time>2020-05-02T09:14:29Z</time>
      </trkpt>
      <trkpt lat="29.211653" lon="-13.453990">
        <ele>40.205</ele>
        <time>2020-05-02T09:14:35Z</time>
      </trkpt>
      <trkpt lat="29.211537" lon="-13.454002">
        <ele>40.225</ele>
        <time>2020-05-02T09:14:43Z</time>
      </trkpt>
      <trkpt lat="29.211521" lon="-13.454002">
        <ele>40.408</ele>
        <time>2020-05-02T09:14:44Z</time>
      </trkpt>
      <trkpt lat="29.211476" lon="-13.454009">
        <ele>40.811</ele>
        <time>2020-05-02T09:14:47Z</time>
      </trkpt>
      <trkpt lat="29.211448" lon="-13.454012">
        <ele>40.835</ele>
        <time>2020-05-02T09:14:49Z</time>
      </trkpt>
      <trkpt lat="29.211328" lon="-13.454046">
        <ele>40.674</ele>
        <time>2020-05-02T09:14:58Z</time>
      </trkpt>
      <trkpt lat="29.211226" lon="-13.454050">
        <ele>41.025</ele>
        <time>2020-05-02T09:15:05Z</time>
      </trkpt>
      <trkpt lat="29.211122" lon="-13.454060">
        <ele>41.640</ele>
        <time>2020-05-02T09:15:13Z</time>
      </trkpt>
      <trkpt lat="29.211091" lon="-13.454071">
        <ele>42.088</ele>
        <time>2020-05-02T09:15:15Z</time>
      </trkpt>
      <trkpt lat="29.211020" lon="-13.454088">
        <ele>43.282</ele>
        <time>2020-05-02T09:15:20Z</time>
      </trkpt>
      <trkpt lat="29.210911" lon="-13.454137">
        <ele>44.078</ele>
        <time>2020-05-02T09:15:28Z</time>
      </trkpt>
      <trkpt lat="29.210786" lon="-13.454220">
        <ele>43.878</ele>
        <time>2020-05-02T09:15:38Z</time>
      </trkpt>
      <trkpt lat="29.210689" lon="-13.454313">
        <ele>43.833</ele>
        <time>2020-05-02T09:15:47Z</time>
      </trkpt>
      <trkpt lat="29.210613" lon="-13.454344">
        <ele>44.226</ele>
        <time>2020-05-02T09:15:53Z</time>
      </trkpt>
      <trkpt lat="29.210581" lon="-13.454352">
        <ele>44.408</ele>
        <time>2020-05-02T09:15:55Z</time>
      </trkpt>
      <trkpt lat="29.210493" lon="-13.454380">
        <ele>44.821</ele>
        <time>2020-05-02T09:16:01Z</time>
      </trkpt>
      <trkpt lat="29.210406" lon="-13.454411">
        <ele>44.645</ele>
        <time>2020-05-02T09:16:07Z</time>
      </trkpt>
      <trkpt lat="29.210331" lon="-13.454443">
        <ele>45.284</ele>
        <time>2020-05-02T09:16:13Z</time>
      </trkpt>
      <trkpt lat="29.210277" lon="-13.454455">
        <ele>45.495</ele>
        <time>2020-05-02T09:16:17Z</time>
      </trkpt>
      <trkpt lat="29.210159" lon="-13.454495">
        <ele>46.040</ele>
        <time>2020-05-02T09:16:25Z</time>
      </trkpt>
      <trkpt lat="29.210032" lon="-13.454520">
        <ele>46.088</ele>
        <time>2020-05-02T09:16:33Z</time>
      </trkpt>
      <trkpt lat="29.209979" lon="-13.454526">
        <ele>46.232</ele>
        <time>2020-05-02T09:16:36Z</time>
      </trkpt>
      <trkpt lat="29.209933" lon="-13.454525">
        <ele>46.698</ele>
        <time>2020-05-02T09:16:39Z</time>
      </trkpt>
      <trkpt lat="29.209869" lon="-13.454543">
        <ele>47.054</ele>
        <time>2020-05-02T09:16:44Z</time>
      </trkpt>
      <trkpt lat="29.209837" lon="-13.454539">
        <ele>47.256</ele>
        <time>2020-05-02T09:16:46Z</time>
      </trkpt>
      <trkpt lat="29.209802" lon="-13.454538">
        <ele>47.411</ele>
        <time>2020-05-02T09:16:48Z</time>
      </trkpt>
      <trkpt lat="29.209746" lon="-13.454541">
        <ele>47.208</ele>
        <time>2020-05-02T09:16:52Z</time>
      </trkpt>
      <trkpt lat="29.209600" lon="-13.454567">
        <ele>47.419</ele>
        <time>2020-05-02T09:17:01Z</time>
      </trkpt>
      <trkpt lat="29.209487" lon="-13.454561">
        <ele>48.053</ele>
        <time>2020-05-02T09:17:09Z</time>
      </trkpt>
      <trkpt lat="29.209435" lon="-13.454551">
        <ele>48.452</ele>
        <time>2020-05-02T09:17:13Z</time>
      </trkpt>
      <trkpt lat="29.209371" lon="-13.454547">
        <ele>48.223</ele>
        <time>2020-05-02T09:17:17Z</time>
      </trkpt>
      <trkpt lat="29.209267" lon="-13.454545">
        <ele>48.428</ele>
        <time>2020-05-02T09:17:25Z</time>
      </trkpt>
      <trkpt lat="29.209170" lon="-13.454557">
        <ele>48.686</ele>
        <time>2020-05-02T09:17:32Z</time>
      </trkpt>
      <trkpt lat="29.209097" lon="-13.454553">
        <ele>48.880</ele>
        <time>2020-05-02T09:17:37Z</time>
      </trkpt>
      <trkpt lat="29.209028" lon="-13.454552">
        <ele>48.836</ele>
        <time>2020-05-02T09:17:41Z</time>
      </trkpt>
      <trkpt lat="29.208913" lon="-13.454544">
        <ele>49.041</ele>
        <time>2020-05-02T09:17:48Z</time>
      </trkpt>
      <trkpt lat="29.208837" lon="-13.454551">
        <ele>49.081</ele>
        <time>2020-05-02T09:17:53Z</time>
      </trkpt>
      <trkpt lat="29.208823" lon="-13.454551">
        <ele>49.009</ele>
        <time>2020-05-02T09:17:54Z</time>
      </trkpt>
      <trkpt lat="29.208809" lon="-13.454551">
        <ele>49.008</ele>
        <time>2020-05-02T09:17:55Z</time>
      </trkpt>
      <trkpt lat="29.208687" lon="-13.454555">
        <ele>49.048</ele>
        <time>2020-05-02T09:18:03Z</time>
      </trkpt>
      <trkpt lat="29.208572" lon="-13.454566">
        <ele>49.262</ele>
        <time>2020-05-02T09:18:10Z</time>
      </trkpt>
      <trkpt lat="29.208558" lon="-13.454572">
        <ele>49.411</ele>
        <time>2020-05-02T09:18:11Z</time>
      </trkpt>
      <trkpt lat="29.208478" lon="-13.454593">
        <ele>49.852</ele>
        <time>2020-05-02T09:18:16Z</time>
      </trkpt>
      <trkpt lat="29.208399" lon="-13.454604">
        <ele>50.477</ele>
        <time>2020-05-02T09:18:21Z</time>
      </trkpt>
      <trkpt lat="29.208364" lon="-13.454618">
        <ele>50.665</ele>
        <time>2020-05-02T09:18:23Z</time>
      </trkpt>
      <trkpt lat="29.208225" lon="-13.454612">
        <ele>51.099</ele>
        <time>2020-05-02T09:18:30Z</time>
      </trkpt>
      <trkpt lat="29.208140" lon="-13.454592">
        <ele>51.655</ele>
        <time>2020-05-02T09:18:36Z</time>
      </trkpt>
      <trkpt lat="29.208125" lon="-13.454588">
        <ele>51.636</ele>
        <time>2020-05-02T09:18:37Z</time>
      </trkpt>
      <trkpt lat="29.208008" lon="-13.454552">
        <ele>52.017</ele>
        <time>2020-05-02T09:18:46Z</time>
      </trkpt>
      <trkpt lat="29.207865" lon="-13.454513">
        <ele>52.418</ele>
        <time>2020-05-02T09:18:55Z</time>
      </trkpt>
      <trkpt lat="29.207836" lon="-13.454509">
        <ele>52.608</ele>
        <time>2020-05-02T09:18:57Z</time>
      </trkpt>
      <trkpt lat="29.207750" lon="-13.454489">
        <ele>52.827</ele>
        <time>2020-05-02T09:19:03Z</time>
      </trkpt>
      <trkpt lat="29.207630" lon="-13.454462">
        <ele>53.411</ele>
        <time>2020-05-02T09:19:11Z</time>
      </trkpt>
      <trkpt lat="29.207473" lon="-13.454412">
        <ele>53.280</ele>
        <time>2020-05-02T09:19:20Z</time>
      </trkpt>
      <trkpt lat="29.207439" lon="-13.454406">
        <ele>53.641</ele>
        <time>2020-05-02T09:19:22Z</time>
      </trkpt>
      <trkpt lat="29.207339" lon="-13.454403">
        <ele>54.036</ele>
        <time>2020-05-02T09:19:28Z</time>
      </trkpt>
      <trkpt lat="29.207207" lon="-13.454400">
        <ele>54.264</ele>
        <time>2020-05-02T09:19:36Z</time>
      </trkpt>
      <trkpt lat="29.207066" lon="-13.454389">
        <ele>54.238</ele>
        <time>2020-05-02T09:19:44Z</time>
      </trkpt>
      <trkpt lat="29.207018" lon="-13.454384">
        <ele>54.644</ele>
        <time>2020-05-02T09:19:47Z</time>
      </trkpt>
      <trkpt lat="29.206926" lon="-13.454383">
        <ele>55.078</ele>
        <time>2020-05-02T09:19:53Z</time>
      </trkpt>
      <trkpt lat="29.206798" lon="-13.454377">
        <ele>55.033</ele>
        <time>2020-05-02T09:20:01Z</time>
      </trkpt>
      <trkpt lat="29.206692" lon="-13.454364">
        <ele>55.026</ele>
        <time>2020-05-02T09:20:08Z</time>
      </trkpt>
      <trkpt lat="29.206570" lon="-13.454357">
        <ele>55.208</ele>
        <time>2020-05-02T09:20:17Z</time>
      </trkpt>
      <trkpt lat="29.206523" lon="-13.454350">
        <ele>55.491</ele>
        <time>2020-05-02T09:20:20Z</time>
      </trkpt>
      <trkpt lat="29.206444" lon="-13.454334">
        <ele>55.475</ele>
        <time>2020-05-02T09:20:25Z</time>
      </trkpt>
      <trkpt lat="29.206344" lon="-13.454311">
        <ele>55.674</ele>
        <time>2020-05-02T09:20:31Z</time>
      </trkpt>
      <trkpt lat="29.206327" lon="-13.454308">
        <ele>55.655</ele>
        <time>2020-05-02T09:20:32Z</time>
      </trkpt>
      <trkpt lat="29.206262" lon="-13.454299">
        <ele>55.880</ele>
        <time>2020-05-02T09:20:36Z</time>
      </trkpt>
      <trkpt lat="29.206214" lon="-13.454293">
        <ele>55.898</ele>
        <time>2020-05-02T09:20:39Z</time>
      </trkpt>
      <trkpt lat="29.206091" lon="-13.454290">
        <ele>56.092</ele>
        <time>2020-05-02T09:20:47Z</time>
      </trkpt>
      <trkpt lat="29.206005" lon="-13.454294">
        <ele>56.078</ele>
        <time>2020-05-02T09:20:52Z</time>
      </trkpt>
      <trkpt lat="29.205948" lon="-13.454284">
        <ele>56.244</ele>
        <time>2020-05-02T09:20:55Z</time>
      </trkpt>
      <trkpt lat="29.205817" lon="-13.454276">
        <ele>56.605</ele>
        <time>2020-05-02T09:21:02Z</time>
      </trkpt>
      <trkpt lat="29.205714" lon="-13.454273">
        <ele>56.615</ele>
        <time>2020-05-02T09:21:08Z</time>
      </trkpt>
      <trkpt lat="29.205685" lon="-13.454264">
        <ele>56.808</ele>
        <time>2020-05-02T09:21:10Z</time>
      </trkpt>
      <trkpt lat="29.205576" lon="-13.454208">
        <ele>57.028</ele>
        <time>2020-05-02T09:21:17Z</time>
      </trkpt>
      <trkpt lat="29.205442" lon="-13.454149">
        <ele>57.022</ele>
        <time>2020-05-02T09:21:26Z</time>
      </trkpt>
      <trkpt lat="29.205341" lon="-13.454103">
        <ele>57.651</ele>
        <time>2020-05-02T09:21:33Z</time>
      </trkpt>
      <trkpt lat="29.205198" lon="-13.454032">
        <ele>57.832</ele>
        <time>2020-05-02T09:21:42Z</time>
      </trkpt>
      <trkpt lat="29.205065" lon="-13.453959">
        <ele>58.437</ele>
        <time>2020-05-02T09:21:51Z</time>
      </trkpt>
      <trkpt lat="29.204957" lon="-13.453908">
        <ele>58.485</ele>
        <time>2020-05-02T09:21:59Z</time>
      </trkpt>
      <trkpt lat="29.204919" lon="-13.453882">
        <ele>59.059</ele>
        <time>2020-05-02T09:22:02Z</time>
      </trkpt>
      <trkpt lat="29.204892" lon="-13.453869">
        <ele>59.415</ele>
        <time>2020-05-02T09:22:04Z</time>
      </trkpt>
      <trkpt lat="29.204782" lon="-13.453809">
        <ele>59.463</ele>
        <time>2020-05-02T09:22:11Z</time>
      </trkpt>
      <trkpt lat="29.204669" lon="-13.453757">
        <ele>59.844</ele>
        <time>2020-05-02T09:22:18Z</time>
      </trkpt>
      <trkpt lat="29.204652" lon="-13.453752">
        <ele>59.818</ele>
        <time>2020-05-02T09:22:19Z</time>
      </trkpt>
      <trkpt lat="29.204600" lon="-13.453729">
        <ele>60.008</ele>
        <time>2020-05-02T09:22:22Z</time>
      </trkpt>
      <trkpt lat="29.204567" lon="-13.453708">
        <ele>60.020</ele>
        <time>2020-05-02T09:22:24Z</time>
      </trkpt>
      <trkpt lat="29.204514" lon="-13.453671">
        <ele>60.044</ele>
        <time>2020-05-02T09:22:27Z</time>
      </trkpt>
      <trkpt lat="29.204418" lon="-13.453608">
        <ele>60.663</ele>
        <time>2020-05-02T09:22:31Z</time>
      </trkpt>
      <trkpt lat="29.204372" lon="-13.453576">
        <ele>61.074</ele>
        <time>2020-05-02T09:22:33Z</time>
      </trkpt>
      <trkpt lat="29.204350" lon="-13.453565">
        <ele>61.219</ele>
        <time>2020-05-02T09:22:34Z</time>
      </trkpt>
      <trkpt lat="29.204293" lon="-13.453535">
        <ele>61.667</ele>
        <time>2020-05-02T09:22:37Z</time>
      </trkpt>
      <trkpt lat="29.204277" lon="-13.453525">
        <ele>61.821</ele>
        <time>2020-05-02T09:22:38Z</time>
      </trkpt>
      <trkpt lat="29.204176" lon="-13.453474">
        <ele>62.047</ele>
        <time>2020-05-02T09:22:45Z</time>
      </trkpt>
      <trkpt lat="29.204069" lon="-13.453430">
        <ele>62.279</ele>
        <time>2020-05-02T09:22:52Z</time>
      </trkpt>
      <trkpt lat="29.204052" lon="-13.453425">
        <ele>62.205</ele>
        <time>2020-05-02T09:22:53Z</time>
      </trkpt>
      <trkpt lat="29.203947" lon="-13.453379">
        <ele>62.625</ele>
        <time>2020-05-02T09:23:00Z</time>
      </trkpt>
      <trkpt lat="29.203834" lon="-13.453342">
        <ele>63.208</ele>
        <time>2020-05-02T09:23:08Z</time>
      </trkpt>
      <trkpt lat="29.203744" lon="-13.453347">
        <ele>63.241</ele>
        <time>2020-05-02T09:23:14Z</time>
      </trkpt>
      <trkpt lat="29.203729" lon="-13.453340">
        <ele>63.485</ele>
        <time>2020-05-02T09:23:15Z</time>
      </trkpt>
      <trkpt lat="29.203712" lon="-13.453329">
        <ele>63.694</ele>
        <time>2020-05-02T09:23:16Z</time>
      </trkpt>
      <trkpt lat="29.203695" lon="-13.453325">
        <ele>63.675</ele>
        <time>2020-05-02T09:23:17Z</time>
      </trkpt>
      <trkpt lat="29.203652" lon="-13.453334">
        <ele>64.010</ele>
        <time>2020-05-02T09:23:20Z</time>
      </trkpt>
      <trkpt lat="29.203589" lon="-13.453343">
        <ele>64.258</ele>
        <time>2020-05-02T09:23:24Z</time>
      </trkpt>
      <trkpt lat="29.203524" lon="-13.453348">
        <ele>64.862</ele>
        <time>2020-05-02T09:23:28Z</time>
      </trkpt>
      <trkpt lat="29.203447" lon="-13.453362">
        <ele>65.078</ele>
        <time>2020-05-02T09:23:32Z</time>
      </trkpt>
      <trkpt lat="29.203397" lon="-13.453366">
        <ele>65.059</ele>
        <time>2020-05-02T09:23:35Z</time>
      </trkpt>
      <trkpt lat="29.203294" lon="-13.453380">
        <ele>64.803</ele>
        <time>2020-05-02T09:23:41Z</time>
      </trkpt>
      <trkpt lat="29.203248" lon="-13.453393">
        <ele>64.823</ele>
        <time>2020-05-02T09:23:44Z</time>
      </trkpt>
      <trkpt lat="29.203233" lon="-13.453395">
        <ele>65.008</ele>
        <time>2020-05-02T09:23:45Z</time>
      </trkpt>
      <trkpt lat="29.203128" lon="-13.453402">
        <ele>65.029</ele>
        <time>2020-05-02T09:23:52Z</time>
      </trkpt>
      <trkpt lat="29.203018" lon="-13.453439">
        <ele>65.263</ele>
        <time>2020-05-02T09:23:59Z</time>
      </trkpt>
      <trkpt lat="29.202921" lon="-13.453494">
        <ele>65.462</ele>
        <time>2020-05-02T09:24:06Z</time>
      </trkpt>
      <trkpt lat="29.202815" lon="-13.453539">
        <ele>65.433</ele>
        <time>2020-05-02T09:24:13Z</time>
      </trkpt>
      <trkpt lat="29.202705" lon="-13.453561">
        <ele>66.058</ele>
        <time>2020-05-02T09:24:20Z</time>
      </trkpt>
      <trkpt lat="29.202585" lon="-13.453589">
        <ele>66.246</ele>
        <time>2020-05-02T09:24:28Z</time>
      </trkpt>
      <trkpt lat="29.202555" lon="-13.453588">
        <ele>66.490</ele>
        <time>2020-05-02T09:24:30Z</time>
      </trkpt>
      <trkpt lat="29.202461" lon="-13.453607">
        <ele>66.846</ele>
        <time>2020-05-02T09:24:36Z</time>
      </trkpt>
      <trkpt lat="29.202351" lon="-13.453620">
        <ele>67.428</ele>
        <time>2020-05-02T09:24:43Z</time>
      </trkpt>
      <trkpt lat="29.202319" lon="-13.453626">
        <ele>67.689</ele>
        <time>2020-05-02T09:24:45Z</time>
      </trkpt>
      <trkpt lat="29.202217" lon="-13.453668">
        <ele>68.217</ele>
        <time>2020-05-02T09:24:52Z</time>
      </trkpt>
      <trkpt lat="29.202175" lon="-13.453680">
        <ele>68.608</ele>
        <time>2020-05-02T09:24:55Z</time>
      </trkpt>
      <trkpt lat="29.202136" lon="-13.453693">
        <ele>69.066</ele>
        <time>2020-05-02T09:24:58Z</time>
      </trkpt>
      <trkpt lat="29.202053" lon="-13.453714">
        <ele>69.620</ele>
        <time>2020-05-02T09:25:04Z</time>
      </trkpt>
      <trkpt lat="29.202040" lon="-13.453716">
        <ele>69.629</ele>
        <time>2020-05-02T09:25:05Z</time>
      </trkpt>
      <trkpt lat="29.201891" lon="-13.453744">
        <ele>70.030</ele>
        <time>2020-05-02T09:25:15Z</time>
      </trkpt>
      <trkpt lat="29.201752" lon="-13.453748">
        <ele>70.255</ele>
        <time>2020-05-02T09:25:23Z</time>
      </trkpt>
      <trkpt lat="29.201619" lon="-13.453731">
        <ele>69.863</ele>
        <time>2020-05-02T09:25:29Z</time>
      </trkpt>
      <trkpt lat="29.201521" lon="-13.453742">
        <ele>69.887</ele>
        <time>2020-05-02T09:25:35Z</time>
      </trkpt>
      <trkpt lat="29.201428" lon="-13.453778">
        <ele>70.683</ele>
        <time>2020-05-02T09:25:41Z</time>
      </trkpt>
      <trkpt lat="29.201322" lon="-13.453782">
        <ele>71.633</ele>
        <time>2020-05-02T09:25:48Z</time>
      </trkpt>
      <trkpt lat="29.201308" lon="-13.453774">
        <ele>71.623</ele>
        <time>2020-05-02T09:25:49Z</time>
      </trkpt>
      <trkpt lat="29.201204" lon="-13.453762">
        <ele>72.015</ele>
        <time>2020-05-02T09:25:56Z</time>
      </trkpt>
      <trkpt lat="29.201112" lon="-13.453764">
        <ele>72.808</ele>
        <time>2020-05-02T09:26:02Z</time>
      </trkpt>
      <trkpt lat="29.201049" lon="-13.453760">
        <ele>73.277</ele>
        <time>2020-05-02T09:26:06Z</time>
      </trkpt>
      <trkpt lat="29.201018" lon="-13.453787">
        <ele>73.461</ele>
        <time>2020-05-02T09:26:08Z</time>
      </trkpt>
      <trkpt lat="29.201003" lon="-13.453797">
        <ele>73.830</ele>
        <time>2020-05-02T09:26:09Z</time>
      </trkpt>
      <trkpt lat="29.200990" lon="-13.453799">
        <ele>74.281</ele>
        <time>2020-05-02T09:26:10Z</time>
      </trkpt>
      <trkpt lat="29.200945" lon="-13.453780">
        <ele>74.626</ele>
        <time>2020-05-02T09:26:13Z</time>
      </trkpt>
      <trkpt lat="29.200845" lon="-13.453728">
        <ele>74.624</ele>
        <time>2020-05-02T09:26:20Z</time>
      </trkpt>
      <trkpt lat="29.200805" lon="-13.453723">
        <ele>74.878</ele>
        <time>2020-05-02T09:26:23Z</time>
      </trkpt>
      <trkpt lat="29.200729" lon="-13.453713">
        <ele>75.284</ele>
        <time>2020-05-02T09:26:28Z</time>
      </trkpt>
      <trkpt lat="29.200688" lon="-13.453693">
        <ele>76.065</ele>
        <time>2020-05-02T09:26:31Z</time>
      </trkpt>
      <trkpt lat="29.200620" lon="-13.453669">
        <ele>77.068</ele>
        <time>2020-05-02T09:26:36Z</time>
      </trkpt>
      <trkpt lat="29.200477" lon="-13.453642">
        <ele>78.014</ele>
        <time>2020-05-02T09:26:46Z</time>
      </trkpt>
      <trkpt lat="29.200444" lon="-13.453641">
        <ele>78.208</ele>
        <time>2020-05-02T09:26:48Z</time>
      </trkpt>
      <trkpt lat="29.200333" lon="-13.453642">
        <ele>79.010</ele>
        <time>2020-05-02T09:26:55Z</time>
      </trkpt>
      <trkpt lat="29.200316" lon="-13.453640">
        <ele>79.014</ele>
        <time>2020-05-02T09:26:56Z</time>
      </trkpt>
      <trkpt lat="29.200204" lon="-13.453633">
        <ele>79.863</ele>
        <time>2020-05-02T09:27:03Z</time>
      </trkpt>
      <trkpt lat="29.200169" lon="-13.453630">
        <ele>80.244</ele>
        <time>2020-05-02T09:27:05Z</time>
      </trkpt>
      <trkpt lat="29.200074" lon="-13.453610">
        <ele>81.259</ele>
        <time>2020-05-02T09:27:11Z</time>
      </trkpt>
      <trkpt lat="29.200056" lon="-13.453608">
        <ele>81.437</ele>
        <time>2020-05-02T09:27:12Z</time>
      </trkpt>
      <trkpt lat="29.199983" lon="-13.453597">
        <ele>82.431</ele>
        <time>2020-05-02T09:27:17Z</time>
      </trkpt>
      <trkpt lat="29.199952" lon="-13.453593">
        <ele>82.627</ele>
        <time>2020-05-02T09:27:19Z</time>
      </trkpt>
      <trkpt lat="29.199861" lon="-13.453571">
        <ele>83.647</ele>
        <time>2020-05-02T09:27:25Z</time>
      </trkpt>
      <trkpt lat="29.199828" lon="-13.453566">
        <ele>84.029</ele>
        <time>2020-05-02T09:27:27Z</time>
      </trkpt>
      <trkpt lat="29.199747" lon="-13.453571">
        <ele>84.821</ele>
        <time>2020-05-02T09:27:32Z</time>
      </trkpt>
      <trkpt lat="29.199715" lon="-13.453576">
        <ele>85.208</ele>
        <time>2020-05-02T09:27:34Z</time>
      </trkpt>
      <trkpt lat="29.199655" lon="-13.453579">
        <ele>85.828</ele>
        <time>2020-05-02T09:27:38Z</time>
      </trkpt>
      <trkpt lat="29.199566" lon="-13.453589">
        <ele>87.062</ele>
        <time>2020-05-02T09:27:44Z</time>
      </trkpt>
      <trkpt lat="29.199502" lon="-13.453625">
        <ele>88.241</ele>
        <time>2020-05-02T09:27:49Z</time>
      </trkpt>
      <trkpt lat="29.199497" lon="-13.453639">
        <ele>88.432</ele>
        <time>2020-05-02T09:27:50Z</time>
      </trkpt>
      <trkpt lat="29.199488" lon="-13.453706">
        <ele>89.237</ele>
        <time>2020-05-02T09:27:54Z</time>
      </trkpt>
      <trkpt lat="29.199488" lon="-13.453753">
        <ele>89.855</ele>
        <time>2020-05-02T09:27:57Z</time>
      </trkpt>
      <trkpt lat="29.199492" lon="-13.453806">
        <ele>90.499</ele>
        <time>2020-05-02T09:28:00Z</time>
      </trkpt>
      <trkpt lat="29.199490" lon="-13.453878">
        <ele>91.665</ele>
        <time>2020-05-02T09:28:04Z</time>
      </trkpt>
      <trkpt lat="29.199492" lon="-13.453896">
        <ele>91.872</ele>
        <time>2020-05-02T09:28:05Z</time>
      </trkpt>
      <trkpt lat="29.199490" lon="-13.453975">
        <ele>92.613</ele>
        <time>2020-05-02T09:28:10Z</time>
      </trkpt>
      <trkpt lat="29.199491" lon="-13.454026">
        <ele>93.414</ele>
        <time>2020-05-02T09:28:13Z</time>
      </trkpt>
      <trkpt lat="29.199491" lon="-13.454041">
        <ele>93.808</ele>
        <time>2020-05-02T09:28:14Z</time>
      </trkpt>
      <trkpt lat="29.199497" lon="-13.454103">
        <ele>94.841</ele>
        <time>2020-05-02T09:28:18Z</time>
      </trkpt>
      <trkpt lat="29.199506" lon="-13.454134">
        <ele>95.225</ele>
        <time>2020-05-02T09:28:20Z</time>
      </trkpt>
      <trkpt lat="29.199516" lon="-13.454208">
        <ele>96.024</ele>
        <time>2020-05-02T09:28:24Z</time>
      </trkpt>
      <trkpt lat="29.199523" lon="-13.454282">
        <ele>96.845</ele>
        <time>2020-05-02T09:28:28Z</time>
      </trkpt>
      <trkpt lat="29.199528" lon="-13.454301">
        <ele>97.050</ele>
        <time>2020-05-02T09:28:29Z</time>
      </trkpt>
      <trkpt lat="29.199541" lon="-13.454389">
        <ele>98.278</ele>
        <time>2020-05-02T09:28:34Z</time>
      </trkpt>
      <trkpt lat="29.199548" lon="-13.454426">
        <ele>98.482</ele>
        <time>2020-05-02T09:28:36Z</time>
      </trkpt>
      <trkpt lat="29.199571" lon="-13.454499">
        <ele>99.258</ele>
        <time>2020-05-02T09:28:40Z</time>
      </trkpt>
      <trkpt lat="29.199585" lon="-13.454548">
        <ele>100.267</ele>
        <time>2020-05-02T09:28:43Z</time>
      </trkpt>
      <trkpt lat="29.199587" lon="-13.454579">
        <ele>100.881</ele>
        <time>2020-05-02T09:28:45Z</time>
      </trkpt>
      <trkpt lat="29.199602" lon="-13.454636">
        <ele>101.419</ele>
        <time>2020-05-02T09:28:49Z</time>
      </trkpt>
      <trkpt lat="29.199618" lon="-13.454702">
        <ele>102.608</ele>
        <time>2020-05-02T09:28:53Z</time>
      </trkpt>
      <trkpt lat="29.199637" lon="-13.454793">
        <ele>103.640</ele>
        <time>2020-05-02T09:28:59Z</time>
      </trkpt>
      <trkpt lat="29.199628" lon="-13.454801">
        <ele>103.854</ele>
        <time>2020-05-02T09:29:00Z</time>
      </trkpt>
      <trkpt lat="29.199586" lon="-13.454769">
        <ele>105.043</ele>
        <time>2020-05-02T09:29:04Z</time>
      </trkpt>
      <trkpt lat="29.199550" lon="-13.454699">
        <ele>106.054</ele>
        <time>2020-05-02T09:29:09Z</time>
      </trkpt>
      <trkpt lat="29.199524" lon="-13.454653">
        <ele>106.469</ele>
        <time>2020-05-02T09:29:12Z</time>
      </trkpt>
      <trkpt lat="29.199488" lon="-13.454603">
        <ele>107.267</ele>
        <time>2020-05-02T09:29:16Z</time>
      </trkpt>
      <trkpt lat="29.199452" lon="-13.454531">
        <ele>108.041</ele>
        <time>2020-05-02T09:29:21Z</time>
      </trkpt>
      <trkpt lat="29.199438" lon="-13.454502">
        <ele>108.297</ele>
        <time>2020-05-02T09:29:23Z</time>
      </trkpt>
      <trkpt lat="29.199393" lon="-13.454430">
        <ele>108.612</ele>
        <time>2020-05-02T09:29:28Z</time>
      </trkpt>
      <trkpt lat="29.199347" lon="-13.454369">
        <ele>109.232</ele>
        <time>2020-05-02T09:29:33Z</time>
      </trkpt>
      <trkpt lat="29.199298" lon="-13.454291">
        <ele>110.005</ele>
        <time>2020-05-02T09:29:39Z</time>
      </trkpt>
      <trkpt lat="29.199279" lon="-13.454265">
        <ele>110.408</ele>
        <time>2020-05-02T09:29:41Z</time>
      </trkpt>
      <trkpt lat="29.199222" lon="-13.454209">
        <ele>110.865</ele>
        <time>2020-05-02T09:29:46Z</time>
      </trkpt>
      <trkpt lat="29.199137" lon="-13.454128">
        <ele>111.419</ele>
        <time>2020-05-02T09:29:53Z</time>
      </trkpt>
      <trkpt lat="29.199011" lon="-13.454053">
        <ele>112.668</ele>
        <time>2020-05-02T09:30:02Z</time>
      </trkpt>
      <trkpt lat="29.198920" lon="-13.453994">
        <ele>113.699</ele>
        <time>2020-05-02T09:30:09Z</time>
      </trkpt>
      <trkpt lat="29.198906" lon="-13.453983">
        <ele>114.014</ele>
        <time>2020-05-02T09:30:10Z</time>
      </trkpt>
      <trkpt lat="29.198864" lon="-13.453961">
        <ele>114.892</ele>
        <time>2020-05-02T09:30:13Z</time>
      </trkpt>
      <trkpt lat="29.198810" lon="-13.453950">
        <ele>115.876</ele>
        <time>2020-05-02T09:30:17Z</time>
      </trkpt>
      <trkpt lat="29.198723" lon="-13.453922">
        <ele>117.092</ele>
        <time>2020-05-02T09:30:23Z</time>
      </trkpt>
      <trkpt lat="29.198693" lon="-13.453922">
        <ele>117.694</ele>
        <time>2020-05-02T09:30:25Z</time>
      </trkpt>
      <trkpt lat="29.198638" lon="-13.453919">
        <ele>118.457</ele>
        <time>2020-05-02T09:30:29Z</time>
      </trkpt>
      <trkpt lat="29.198588" lon="-13.453918">
        <ele>119.422</ele>
        <time>2020-05-02T09:30:32Z</time>
      </trkpt>
      <trkpt lat="29.198509" lon="-13.453928">
        <ele>120.208</ele>
        <time>2020-05-02T09:30:37Z</time>
      </trkpt>
      <trkpt lat="29.198491" lon="-13.453929">
        <ele>120.653</ele>
        <time>2020-05-02T09:30:38Z</time>
      </trkpt>
      <trkpt lat="29.198435" lon="-13.453943">
        <ele>121.677</ele>
        <time>2020-05-02T09:30:42Z</time>
      </trkpt>
      <trkpt lat="29.198420" lon="-13.453950">
        <ele>121.846</ele>
        <time>2020-05-02T09:30:43Z</time>
      </trkpt>
      <trkpt lat="29.198362" lon="-13.453977">
        <ele>122.897</ele>
        <time>2020-05-02T09:30:47Z</time>
      </trkpt>
      <trkpt lat="29.198312" lon="-13.454003">
        <ele>124.012</ele>
        <time>2020-05-02T09:30:51Z</time>
      </trkpt>
      <trkpt lat="29.198286" lon="-13.454017">
        <ele>124.630</ele>
        <time>2020-05-02T09:30:53Z</time>
      </trkpt>
      <trkpt lat="29.198267" lon="-13.454023">
        <ele>125.034</ele>
        <time>2020-05-02T09:30:55Z</time>
      </trkpt>
      <trkpt lat="29.198245" lon="-13.454034">
        <ele>125.420</ele>
        <time>2020-05-02T09:30:57Z</time>
      </trkpt>
      <trkpt lat="29.198218" lon="-13.454046">
        <ele>125.698</ele>
        <time>2020-05-02T09:30:59Z</time>
      </trkpt>
      <trkpt lat="29.198184" lon="-13.454061">
        <ele>126.015</ele>
        <time>2020-05-02T09:31:02Z</time>
      </trkpt>
      <trkpt lat="29.198112" lon="-13.454064">
        <ele>127.226</ele>
        <time>2020-05-02T09:31:07Z</time>
      </trkpt>
      <trkpt lat="29.198100" lon="-13.454057">
        <ele>127.408</ele>
        <time>2020-05-02T09:31:08Z</time>
      </trkpt>
      <trkpt lat="29.198075" lon="-13.454050">
        <ele>127.873</ele>
        <time>2020-05-02T09:31:10Z</time>
      </trkpt>
      <trkpt lat="29.198048" lon="-13.454065">
        <ele>128.287</ele>
        <time>2020-05-02T09:31:12Z</time>
      </trkpt>
      <trkpt lat="29.198033" lon="-13.454072">
        <ele>128.226</ele>
        <time>2020-05-02T09:31:13Z</time>
      </trkpt>
      <trkpt lat="29.197904" lon="-13.454093">
        <ele>128.087</ele>
        <time>2020-05-02T09:31:21Z</time>
      </trkpt>
      <trkpt lat="29.197842" lon="-13.454102">
        <ele>127.642</ele>
        <time>2020-05-02T09:31:26Z</time>
      </trkpt>
      <trkpt lat="29.197830" lon="-13.454109">
        <ele>127.850</ele>
        <time>2020-05-02T09:31:27Z</time>
      </trkpt>
      <trkpt lat="29.197736" lon="-13.454121">
        <ele>129.284</ele>
        <time>2020-05-02T09:31:34Z</time>
      </trkpt>
      <trkpt lat="29.197703" lon="-13.454095">
        <ele>130.430</ele>
        <time>2020-05-02T09:31:37Z</time>
      </trkpt>
      <trkpt lat="29.197656" lon="-13.454074">
        <ele>130.444</ele>
        <time>2020-05-02T09:31:40Z</time>
      </trkpt>
      <trkpt lat="29.197623" lon="-13.454081">
        <ele>130.205</ele>
        <time>2020-05-02T09:31:42Z</time>
      </trkpt>
      <trkpt lat="29.197607" lon="-13.454108">
        <ele>130.415</ele>
        <time>2020-05-02T09:31:44Z</time>
      </trkpt>
      <trkpt lat="29.197540" lon="-13.454183">
        <ele>131.408</ele>
        <time>2020-05-02T09:31:50Z</time>
      </trkpt>
      <trkpt lat="29.197527" lon="-13.454219">
        <ele>131.488</ele>
        <time>2020-05-02T09:31:52Z</time>
      </trkpt>
      <trkpt lat="29.197497" lon="-13.454298">
        <ele>131.832</ele>
        <time>2020-05-02T09:31:57Z</time>
      </trkpt>
      <trkpt lat="29.197460" lon="-13.454389">
        <ele>132.411</ele>
        <time>2020-05-02T09:32:03Z</time>
      </trkpt>
      <trkpt lat="29.197461" lon="-13.454421">
        <ele>133.032</ele>
        <time>2020-05-02T09:32:05Z</time>
      </trkpt>
      <trkpt lat="29.197440" lon="-13.454494">
        <ele>133.697</ele>
        <time>2020-05-02T09:32:10Z</time>
      </trkpt>
      <trkpt lat="29.197430" lon="-13.454542">
        <ele>133.825</ele>
        <time>2020-05-02T09:32:13Z</time>
      </trkpt>
      <trkpt lat="29.197443" lon="-13.454604">
        <ele>134.479</ele>
        <time>2020-05-02T09:32:17Z</time>
      </trkpt>
      <trkpt lat="29.197443" lon="-13.454617">
        <ele>134.635</ele>
        <time>2020-05-02T09:32:18Z</time>
      </trkpt>
      <trkpt lat="29.197445" lon="-13.454632">
        <ele>135.019</ele>
        <time>2020-05-02T09:32:19Z</time>
      </trkpt>
      <trkpt lat="29.197453" lon="-13.454648">
        <ele>135.209</ele>
        <time>2020-05-02T09:32:20Z</time>
      </trkpt>
      <trkpt lat="29.197504" lon="-13.454733">
        <ele>135.619</ele>
        <time>2020-05-02T09:32:25Z</time>
      </trkpt>
      <trkpt lat="29.197535" lon="-13.454782">
        <ele>135.808</ele>
        <time>2020-05-02T09:32:28Z</time>
      </trkpt>
      <trkpt lat="29.197586" lon="-13.454883">
        <ele>136.285</ele>
        <time>2020-05-02T09:32:34Z</time>
      </trkpt>
      <trkpt lat="29.197629" lon="-13.454980">
        <ele>136.669</ele>
        <time>2020-05-02T09:32:40Z</time>
      </trkpt>
      <trkpt lat="29.197642" lon="-13.455012">
        <ele>136.868</ele>
        <time>2020-05-02T09:32:42Z</time>
      </trkpt>
      <trkpt lat="29.197655" lon="-13.455075">
        <ele>138.099</ele>
        <time>2020-05-02T09:32:46Z</time>
      </trkpt>
      <trkpt lat="29.197683" lon="-13.455154">
        <ele>138.244</ele>
        <time>2020-05-02T09:32:51Z</time>
      </trkpt>
      <trkpt lat="29.197694" lon="-13.455184">
        <ele>138.412</ele>
        <time>2020-05-02T09:32:53Z</time>
      </trkpt>
      <trkpt lat="29.197710" lon="-13.455287">
        <ele>138.616</ele>
        <time>2020-05-02T09:33:00Z</time>
      </trkpt>
      <trkpt lat="29.197721" lon="-13.455364">
        <ele>139.022</ele>
        <time>2020-05-02T09:33:05Z</time>
      </trkpt>
      <trkpt lat="29.197717" lon="-13.455424">
        <ele>139.659</ele>
        <time>2020-05-02T09:33:09Z</time>
      </trkpt>
      <trkpt lat="29.197707" lon="-13.455470">
        <ele>140.003</ele>
        <time>2020-05-02T09:33:12Z</time>
      </trkpt>
      <trkpt lat="29.197710" lon="-13.455521">
        <ele>140.223</ele>
        <time>2020-05-02T09:33:15Z</time>
      </trkpt>
      <trkpt lat="29.197713" lon="-13.455608">
        <ele>141.008</ele>
        <time>2020-05-02T09:33:20Z</time>
      </trkpt>
      <trkpt lat="29.197712" lon="-13.455661">
        <ele>141.439</ele>
        <time>2020-05-02T09:33:23Z</time>
      </trkpt>
      <trkpt lat="29.197701" lon="-13.455775">
        <ele>142.053</ele>
        <time>2020-05-02T09:33:29Z</time>
      </trkpt>
      <trkpt lat="29.197700" lon="-13.455810">
        <ele>142.232</ele>
        <time>2020-05-02T09:33:31Z</time>
      </trkpt>
      <trkpt lat="29.197705" lon="-13.455956">
        <ele>143.053</ele>
        <time>2020-05-02T09:33:40Z</time>
      </trkpt>
      <trkpt lat="29.197705" lon="-13.455974">
        <ele>143.078</ele>
        <time>2020-05-02T09:33:41Z</time>
      </trkpt>
      <trkpt lat="29.197704" lon="-13.456123">
        <ele>143.856</ele>
        <time>2020-05-02T09:33:49Z</time>
      </trkpt>
      <trkpt lat="29.197698" lon="-13.456173">
        <ele>144.210</ele>
        <time>2020-05-02T09:33:52Z</time>
      </trkpt>
      <trkpt lat="29.197696" lon="-13.456261">
        <ele>145.096</ele>
        <time>2020-05-02T09:33:57Z</time>
      </trkpt>
      <trkpt lat="29.197694" lon="-13.456277">
        <ele>145.251</ele>
        <time>2020-05-02T09:33:58Z</time>
      </trkpt>
      <trkpt lat="29.197688" lon="-13.456389">
        <ele>145.801</ele>
        <time>2020-05-02T09:34:04Z</time>
      </trkpt>
      <trkpt lat="29.197679" lon="-13.456446">
        <ele>146.211</ele>
        <time>2020-05-02T09:34:07Z</time>
      </trkpt>
      <trkpt lat="29.197676" lon="-13.456516">
        <ele>146.408</ele>
        <time>2020-05-02T09:34:11Z</time>
      </trkpt>
      <trkpt lat="29.197665" lon="-13.456648">
        <ele>147.279</ele>
        <time>2020-05-02T09:34:19Z</time>
      </trkpt>
      <trkpt lat="29.197640" lon="-13.456763">
        <ele>148.033</ele>
        <time>2020-05-02T09:34:26Z</time>
      </trkpt>
      <trkpt lat="29.197624" lon="-13.456849">
        <ele>148.492</ele>
        <time>2020-05-02T09:34:31Z</time>
      </trkpt>
      <trkpt lat="29.197614" lon="-13.456887">
        <ele>148.673</ele>
        <time>2020-05-02T09:34:33Z</time>
      </trkpt>
      <trkpt lat="29.197552" lon="-13.457052">
        <ele>149.488</ele>
        <time>2020-05-02T09:34:42Z</time>
      </trkpt>
      <trkpt lat="29.197544" lon="-13.457066">
        <ele>149.416</ele>
        <time>2020-05-02T09:34:43Z</time>
      </trkpt>
      <trkpt lat="29.197500" lon="-13.457152">
        <ele>150.090</ele>
        <time>2020-05-02T09:34:49Z</time>
      </trkpt>
      <trkpt lat="29.197483" lon="-13.457212">
        <ele>150.626</ele>
        <time>2020-05-02T09:34:53Z</time>
      </trkpt>
      <trkpt lat="29.197450" lon="-13.457269">
        <ele>151.452</ele>
        <time>2020-05-02T09:34:57Z</time>
      </trkpt>
      <trkpt lat="29.197442" lon="-13.457285">
        <ele>151.653</ele>
        <time>2020-05-02T09:34:58Z</time>
      </trkpt>
      <trkpt lat="29.197402" lon="-13.457364">
        <ele>152.408</ele>
        <time>2020-05-02T09:35:04Z</time>
      </trkpt>
      <trkpt lat="29.197393" lon="-13.457375">
        <ele>152.808</ele>
        <time>2020-05-02T09:35:05Z</time>
      </trkpt>
      <trkpt lat="29.197334" lon="-13.457494">
        <ele>153.859</ele>
        <time>2020-05-02T09:35:13Z</time>
      </trkpt>
      <trkpt lat="29.197326" lon="-13.457507">
        <ele>154.063</ele>
        <time>2020-05-02T09:35:14Z</time>
      </trkpt>
      <trkpt lat="29.197288" lon="-13.457620">
        <ele>154.612</ele>
        <time>2020-05-02T09:35:20Z</time>
      </trkpt>
      <trkpt lat="29.197277" lon="-13.457659">
        <ele>155.013</ele>
        <time>2020-05-02T09:35:22Z</time>
      </trkpt>
      <trkpt lat="29.197240" lon="-13.457778">
        <ele>156.238</ele>
        <time>2020-05-02T09:35:29Z</time>
      </trkpt>
      <trkpt lat="29.197227" lon="-13.457814">
        <ele>156.466</ele>
        <time>2020-05-02T09:35:31Z</time>
      </trkpt>
      <trkpt lat="29.197202" lon="-13.457922">
        <ele>157.240</ele>
        <time>2020-05-02T09:35:37Z</time>
      </trkpt>
      <trkpt lat="29.197197" lon="-13.457960">
        <ele>157.836</ele>
        <time>2020-05-02T09:35:39Z</time>
      </trkpt>
      <trkpt lat="29.197191" lon="-13.457995">
        <ele>158.441</ele>
        <time>2020-05-02T09:35:42Z</time>
      </trkpt>
      <trkpt lat="29.197175" lon="-13.458043">
        <ele>158.681</ele>
        <time>2020-05-02T09:35:45Z</time>
      </trkpt>
      <trkpt lat="29.197160" lon="-13.458106">
        <ele>158.609</ele>
        <time>2020-05-02T09:35:49Z</time>
      </trkpt>
      <trkpt lat="29.197142" lon="-13.458171">
        <ele>159.408</ele>
        <time>2020-05-02T09:35:53Z</time>
      </trkpt>
      <trkpt lat="29.197114" lon="-13.458298">
        <ele>160.448</ele>
        <time>2020-05-02T09:36:01Z</time>
      </trkpt>
      <trkpt lat="29.197078" lon="-13.458408">
        <ele>161.492</ele>
        <time>2020-05-02T09:36:08Z</time>
      </trkpt>
      <trkpt lat="29.197071" lon="-13.458443">
        <ele>161.631</ele>
        <time>2020-05-02T09:36:10Z</time>
      </trkpt>
      <trkpt lat="29.197034" lon="-13.458544">
        <ele>162.882</ele>
        <time>2020-05-02T09:36:16Z</time>
      </trkpt>
      <trkpt lat="29.197027" lon="-13.458561">
        <ele>163.097</ele>
        <time>2020-05-02T09:36:17Z</time>
      </trkpt>
      <trkpt lat="29.197018" lon="-13.458594">
        <ele>163.265</ele>
        <time>2020-05-02T09:36:19Z</time>
      </trkpt>
      <trkpt lat="29.197044" lon="-13.458622">
        <ele>163.699</ele>
        <time>2020-05-02T09:36:21Z</time>
      </trkpt>
      <trkpt lat="29.197077" lon="-13.458633">
        <ele>163.815</ele>
        <time>2020-05-02T09:36:23Z</time>
      </trkpt>
      <trkpt lat="29.197140" lon="-13.458637">
        <ele>164.455</ele>
        <time>2020-05-02T09:36:27Z</time>
      </trkpt>
      <trkpt lat="29.197236" lon="-13.458626">
        <ele>165.007</ele>
        <time>2020-05-02T09:36:33Z</time>
      </trkpt>
      <trkpt lat="29.197287" lon="-13.458613">
        <ele>165.617</ele>
        <time>2020-05-02T09:36:36Z</time>
      </trkpt>
      <trkpt lat="29.197305" lon="-13.458611">
        <ele>166.008</ele>
        <time>2020-05-02T09:36:37Z</time>
      </trkpt>
      <trkpt lat="29.197357" lon="-13.458620">
        <ele>166.639</ele>
        <time>2020-05-02T09:36:41Z</time>
      </trkpt>
      <trkpt lat="29.197396" lon="-13.458620">
        <ele>167.073</ele>
        <time>2020-05-02T09:36:44Z</time>
      </trkpt>
      <trkpt lat="29.197418" lon="-13.458602">
        <ele>169.292</ele>
        <time>2020-05-02T09:36:56Z</time>
      </trkpt>
      <trkpt lat="29.197423" lon="-13.458608">
        <ele>169.213</ele>
        <time>2020-05-02T09:36:57Z</time>
      </trkpt>
      <trkpt lat="29.197492" lon="-13.458688">
        <ele>169.298</ele>
        <time>2020-05-02T09:37:04Z</time>
      </trkpt>
      <trkpt lat="29.197511" lon="-13.458776">
        <ele>170.496</ele>
        <time>2020-05-02T09:37:08Z</time>
      </trkpt>
      <trkpt lat="29.197511" lon="-13.458822">
        <ele>171.450</ele>
        <time>2020-05-02T09:37:10Z</time>
      </trkpt>
      <trkpt lat="29.197510" lon="-13.458844">
        <ele>171.896</ele>
        <time>2020-05-02T09:37:11Z</time>
      </trkpt>
      <trkpt lat="29.197505" lon="-13.458883">
        <ele>172.849</ele>
        <time>2020-05-02T09:37:13Z</time>
      </trkpt>
      <trkpt lat="29.197492" lon="-13.458944">
        <ele>173.802</ele>
        <time>2020-05-02T09:37:16Z</time>
      </trkpt>
      <trkpt lat="29.197484" lon="-13.458985">
        <ele>174.622</ele>
        <time>2020-05-02T09:37:18Z</time>
      </trkpt>
      <trkpt lat="29.197482" lon="-13.459006">
        <ele>175.208</ele>
        <time>2020-05-02T09:37:19Z</time>
      </trkpt>
      <trkpt lat="29.197478" lon="-13.459075">
        <ele>176.478</ele>
        <time>2020-05-02T09:37:22Z</time>
      </trkpt>
      <trkpt lat="29.197478" lon="-13.459160">
        <ele>177.682</ele>
        <time>2020-05-02T09:37:26Z</time>
      </trkpt>
      <trkpt lat="29.197480" lon="-13.459224">
        <ele>178.671</ele>
        <time>2020-05-02T09:37:29Z</time>
      </trkpt>
      <trkpt lat="29.197481" lon="-13.459290">
        <ele>179.842</ele>
        <time>2020-05-02T09:37:32Z</time>
      </trkpt>
      <trkpt lat="29.197492" lon="-13.459378">
        <ele>181.057</ele>
        <time>2020-05-02T09:37:36Z</time>
      </trkpt>
      <trkpt lat="29.197512" lon="-13.459443">
        <ele>182.035</ele>
        <time>2020-05-02T09:37:39Z</time>
      </trkpt>
      <trkpt lat="29.197533" lon="-13.459533">
        <ele>183.299</ele>
        <time>2020-05-02T09:37:43Z</time>
      </trkpt>
      <trkpt lat="29.197552" lon="-13.459586">
        <ele>184.235</ele>
        <time>2020-05-02T09:37:46Z</time>
      </trkpt>
      <trkpt lat="29.197574" lon="-13.459697">
        <ele>185.419</ele>
        <time>2020-05-02T09:37:53Z</time>
      </trkpt>
      <trkpt lat="29.197578" lon="-13.459712">
        <ele>185.609</ele>
        <time>2020-05-02T09:37:54Z</time>
      </trkpt>
      <trkpt lat="29.197597" lon="-13.459771">
        <ele>186.419</ele>
        <time>2020-05-02T09:37:58Z</time>
      </trkpt>
      <trkpt lat="29.197615" lon="-13.459843">
        <ele>187.608</ele>
        <time>2020-05-02T09:38:03Z</time>
      </trkpt>
      <trkpt lat="29.197618" lon="-13.459855">
        <ele>187.825</ele>
        <time>2020-05-02T09:38:04Z</time>
      </trkpt>
      <trkpt lat="29.197630" lon="-13.459896">
        <ele>188.649</ele>
        <time>2020-05-02T09:38:07Z</time>
      </trkpt>
      <trkpt lat="29.197636" lon="-13.459952">
        <ele>189.228</ele>
        <time>2020-05-02T09:38:11Z</time>
      </trkpt>
      <trkpt lat="29.197633" lon="-13.460015">
        <ele>189.889</ele>
        <time>2020-05-02T09:38:15Z</time>
      </trkpt>
      <trkpt lat="29.197619" lon="-13.460074">
        <ele>190.894</ele>
        <time>2020-05-02T09:38:19Z</time>
      </trkpt>
      <trkpt lat="29.197589" lon="-13.460188">
        <ele>192.092</ele>
        <time>2020-05-02T09:38:26Z</time>
      </trkpt>
      <trkpt lat="29.197574" lon="-13.460237">
        <ele>192.636</ele>
        <time>2020-05-02T09:38:29Z</time>
      </trkpt>
      <trkpt lat="29.197569" lon="-13.460268">
        <ele>193.092</ele>
        <time>2020-05-02T09:38:31Z</time>
      </trkpt>
      <trkpt lat="29.197544" lon="-13.460360">
        <ele>194.216</ele>
        <time>2020-05-02T09:38:37Z</time>
      </trkpt>
      <trkpt lat="29.197544" lon="-13.460373">
        <ele>194.476</ele>
        <time>2020-05-02T09:38:38Z</time>
      </trkpt>
      <trkpt lat="29.197538" lon="-13.460435">
        <ele>195.213</ele>
        <time>2020-05-02T09:38:42Z</time>
      </trkpt>
      <trkpt lat="29.197537" lon="-13.460452">
        <ele>195.408</ele>
        <time>2020-05-02T09:38:43Z</time>
      </trkpt>
      <trkpt lat="29.197546" lon="-13.460556">
        <ele>196.265</ele>
        <time>2020-05-02T09:38:49Z</time>
      </trkpt>
      <trkpt lat="29.197552" lon="-13.460605">
        <ele>196.659</ele>
        <time>2020-05-02T09:38:52Z</time>
      </trkpt>
      <trkpt lat="29.197558" lon="-13.460665">
        <ele>197.298</ele>
        <time>2020-05-02T09:38:56Z</time>
      </trkpt>
      <trkpt lat="29.197572" lon="-13.460741">
        <ele>197.679</ele>
        <time>2020-05-02T09:39:01Z</time>
      </trkpt>
      <trkpt lat="29.197586" lon="-13.460809">
        <ele>198.424</ele>
        <time>2020-05-02T09:39:06Z</time>
      </trkpt>
      <trkpt lat="29.197591" lon="-13.460858">
        <ele>198.812</ele>
        <time>2020-05-02T09:39:09Z</time>
      </trkpt>
      <trkpt lat="29.197630" lon="-13.460986">
        <ele>199.496</ele>
        <time>2020-05-02T09:39:17Z</time>
      </trkpt>
      <trkpt lat="29.197658" lon="-13.461129">
        <ele>200.432</ele>
        <time>2020-05-02T09:39:26Z</time>
      </trkpt>
      <trkpt lat="29.197706" lon="-13.461276">
        <ele>201.425</ele>
        <time>2020-05-02T09:39:35Z</time>
      </trkpt>
      <trkpt lat="29.197713" lon="-13.461291">
        <ele>201.426</ele>
        <time>2020-05-02T09:39:36Z</time>
      </trkpt>
      <trkpt lat="29.197746" lon="-13.461376">
        <ele>202.408</ele>
        <time>2020-05-02T09:39:42Z</time>
      </trkpt>
      <trkpt lat="29.197751" lon="-13.461393">
        <ele>202.608</ele>
        <time>2020-05-02T09:39:43Z</time>
      </trkpt>
      <trkpt lat="29.197793" lon="-13.461481">
        <ele>203.426</ele>
        <time>2020-05-02T09:39:49Z</time>
      </trkpt>
      <trkpt lat="29.197799" lon="-13.461497">
        <ele>203.610</ele>
        <time>2020-05-02T09:39:50Z</time>
      </trkpt>
      <trkpt lat="29.197845" lon="-13.461614">
        <ele>204.629</ele>
        <time>2020-05-02T09:39:57Z</time>
      </trkpt>
      <trkpt lat="29.197854" lon="-13.461628">
        <ele>204.850</ele>
        <time>2020-05-02T09:39:58Z</time>
      </trkpt>
      <trkpt lat="29.197892" lon="-13.461725">
        <ele>205.895</ele>
        <time>2020-05-02T09:40:04Z</time>
      </trkpt>
      <trkpt lat="29.197907" lon="-13.461765">
        <ele>205.863</ele>
        <time>2020-05-02T09:40:07Z</time>
      </trkpt>
      <trkpt lat="29.197935" lon="-13.461824">
        <ele>206.827</ele>
        <time>2020-05-02T09:40:11Z</time>
      </trkpt>
      <trkpt lat="29.197942" lon="-13.461841">
        <ele>207.073</ele>
        <time>2020-05-02T09:40:12Z</time>
      </trkpt>
      <trkpt lat="29.197984" lon="-13.461930">
        <ele>208.231</ele>
        <time>2020-05-02T09:40:18Z</time>
      </trkpt>
      <trkpt lat="29.197996" lon="-13.461958">
        <ele>208.461</ele>
        <time>2020-05-02T09:40:20Z</time>
      </trkpt>
      <trkpt lat="29.198019" lon="-13.462013">
        <ele>209.207</ele>
        <time>2020-05-02T09:40:24Z</time>
      </trkpt>
      <trkpt lat="29.198047" lon="-13.462069">
        <ele>210.408</ele>
        <time>2020-05-02T09:40:28Z</time>
      </trkpt>
      <trkpt lat="29.198072" lon="-13.462123">
        <ele>211.457</ele>
        <time>2020-05-02T09:40:32Z</time>
      </trkpt>
      <trkpt lat="29.198117" lon="-13.462203">
        <ele>212.491</ele>
        <time>2020-05-02T09:40:38Z</time>
      </trkpt>
      <trkpt lat="29.198124" lon="-13.462215">
        <ele>212.660</ele>
        <time>2020-05-02T09:40:39Z</time>
      </trkpt>
      <trkpt lat="29.198158" lon="-13.462286">
        <ele>213.671</ele>
        <time>2020-05-02T09:40:44Z</time>
      </trkpt>
      <trkpt lat="29.198197" lon="-13.462343">
        <ele>214.616</ele>
        <time>2020-05-02T09:40:48Z</time>
      </trkpt>
      <trkpt lat="29.198261" lon="-13.462446">
        <ele>215.634</ele>
        <time>2020-05-02T09:40:56Z</time>
      </trkpt>
      <trkpt lat="29.198270" lon="-13.462457">
        <ele>215.848</ele>
        <time>2020-05-02T09:40:57Z</time>
      </trkpt>
      <trkpt lat="29.198321" lon="-13.462523">
        <ele>216.424</ele>
        <time>2020-05-02T09:41:03Z</time>
      </trkpt>
      <trkpt lat="29.198348" lon="-13.462555">
        <ele>216.845</ele>
        <time>2020-05-02T09:41:06Z</time>
      </trkpt>
      <trkpt lat="29.198382" lon="-13.462601">
        <ele>217.847</ele>
        <time>2020-05-02T09:41:10Z</time>
      </trkpt>
      <trkpt lat="29.198432" lon="-13.462655">
        <ele>218.411</ele>
        <time>2020-05-02T09:41:15Z</time>
      </trkpt>
      <trkpt lat="29.198457" lon="-13.462675">
        <ele>218.608</ele>
        <time>2020-05-02T09:41:17Z</time>
      </trkpt>
      <trkpt lat="29.198479" lon="-13.462697">
        <ele>218.828</ele>
        <time>2020-05-02T09:41:19Z</time>
      </trkpt>
      <trkpt lat="29.198519" lon="-13.462742">
        <ele>220.292</ele>
        <time>2020-05-02T09:41:23Z</time>
      </trkpt>
      <trkpt lat="29.198529" lon="-13.462755">
        <ele>220.471</ele>
        <time>2020-05-02T09:41:24Z</time>
      </trkpt>
      <trkpt lat="29.198578" lon="-13.462821">
        <ele>221.232</ele>
        <time>2020-05-02T09:41:29Z</time>
      </trkpt>
      <trkpt lat="29.198589" lon="-13.462833">
        <ele>221.437</ele>
        <time>2020-05-02T09:41:30Z</time>
      </trkpt>
      <trkpt lat="29.198621" lon="-13.462868">
        <ele>222.435</ele>
        <time>2020-05-02T09:41:33Z</time>
      </trkpt>
      <trkpt lat="29.198630" lon="-13.462881">
        <ele>222.619</ele>
        <time>2020-05-02T09:41:34Z</time>
      </trkpt>
      <trkpt lat="29.198685" lon="-13.462969">
        <ele>223.635</ele>
        <time>2020-05-02T09:41:40Z</time>
      </trkpt>
      <trkpt lat="29.198727" lon="-13.463054">
        <ele>224.846</ele>
        <time>2020-05-02T09:41:46Z</time>
      </trkpt>
      <trkpt lat="29.198733" lon="-13.463067">
        <ele>225.288</ele>
        <time>2020-05-02T09:41:47Z</time>
      </trkpt>
      <trkpt lat="29.198753" lon="-13.463107">
        <ele>226.016</ele>
        <time>2020-05-02T09:41:50Z</time>
      </trkpt>
      <trkpt lat="29.198802" lon="-13.463177">
        <ele>226.408</ele>
        <time>2020-05-02T09:41:56Z</time>
      </trkpt>
      <trkpt lat="29.198826" lon="-13.463213">
        <ele>227.258</ele>
        <time>2020-05-02T09:41:59Z</time>
      </trkpt>
      <trkpt lat="29.198858" lon="-13.463258">
        <ele>228.452</ele>
        <time>2020-05-02T09:42:03Z</time>
      </trkpt>
      <trkpt lat="29.198942" lon="-13.463351">
        <ele>229.231</ele>
        <time>2020-05-02T09:42:11Z</time>
      </trkpt>
      <trkpt lat="29.198955" lon="-13.463360">
        <ele>229.432</ele>
        <time>2020-05-02T09:42:12Z</time>
      </trkpt>
      <trkpt lat="29.199000" lon="-13.463399">
        <ele>230.617</ele>
        <time>2020-05-02T09:42:16Z</time>
      </trkpt>
      <trkpt lat="29.199024" lon="-13.463415">
        <ele>231.435</ele>
        <time>2020-05-02T09:42:18Z</time>
      </trkpt>
      <trkpt lat="29.199048" lon="-13.463430">
        <ele>231.619</ele>
        <time>2020-05-02T09:42:20Z</time>
      </trkpt>
      <trkpt lat="29.199141" lon="-13.463498">
        <ele>232.625</ele>
        <time>2020-05-02T09:42:28Z</time>
      </trkpt>
      <trkpt lat="29.199154" lon="-13.463503">
        <ele>232.867</ele>
        <time>2020-05-02T09:42:29Z</time>
      </trkpt>
      <trkpt lat="29.199218" lon="-13.463524">
        <ele>234.081</ele>
        <time>2020-05-02T09:42:34Z</time>
      </trkpt>
      <trkpt lat="29.199244" lon="-13.463529">
        <ele>234.219</ele>
        <time>2020-05-02T09:42:36Z</time>
      </trkpt>
      <trkpt lat="29.199291" lon="-13.463539">
        <ele>235.008</ele>
        <time>2020-05-02T09:42:39Z</time>
      </trkpt>
      <trkpt lat="29.199338" lon="-13.463535">
        <ele>236.020</ele>
        <time>2020-05-02T09:42:43Z</time>
      </trkpt>
      <trkpt lat="29.199353" lon="-13.463533">
        <ele>236.454</ele>
        <time>2020-05-02T09:42:44Z</time>
      </trkpt>
      <trkpt lat="29.199398" lon="-13.463522">
        <ele>237.293</ele>
        <time>2020-05-02T09:42:47Z</time>
      </trkpt>
      <trkpt lat="29.199474" lon="-13.463500">
        <ele>238.274</ele>
        <time>2020-05-02T09:42:52Z</time>
      </trkpt>
      <trkpt lat="29.199500" lon="-13.463493">
        <ele>238.659</ele>
        <time>2020-05-02T09:42:54Z</time>
      </trkpt>
      <trkpt lat="29.199541" lon="-13.463486">
        <ele>239.457</ele>
        <time>2020-05-02T09:42:57Z</time>
      </trkpt>
      <trkpt lat="29.199577" lon="-13.463493">
        <ele>240.421</ele>
        <time>2020-05-02T09:43:00Z</time>
      </trkpt>
      <trkpt lat="29.199669" lon="-13.463544">
        <ele>241.657</ele>
        <time>2020-05-02T09:43:07Z</time>
      </trkpt>
      <trkpt lat="29.199747" lon="-13.463619">
        <ele>242.672</ele>
        <time>2020-05-02T09:43:14Z</time>
      </trkpt>
      <trkpt lat="29.199780" lon="-13.463652">
        <ele>243.013</ele>
        <time>2020-05-02T09:43:17Z</time>
      </trkpt>
      <trkpt lat="29.199868" lon="-13.463716">
        <ele>243.814</ele>
        <time>2020-05-02T09:43:24Z</time>
      </trkpt>
      <trkpt lat="29.199880" lon="-13.463725">
        <ele>243.808</ele>
        <time>2020-05-02T09:43:25Z</time>
      </trkpt>
      <trkpt lat="29.199958" lon="-13.463774">
        <ele>244.261</ele>
        <time>2020-05-02T09:43:32Z</time>
      </trkpt>
      <trkpt lat="29.200031" lon="-13.463845">
        <ele>245.275</ele>
        <time>2020-05-02T09:43:57Z</time>
      </trkpt>
      <trkpt lat="29.200039" lon="-13.463854">
        <ele>244.854</ele>
        <time>2020-05-02T09:43:58Z</time>
      </trkpt>
      <trkpt lat="29.200088" lon="-13.463920">
        <ele>244.685</ele>
        <time>2020-05-02T09:44:03Z</time>
      </trkpt>
      <trkpt lat="29.200122" lon="-13.463965">
        <ele>244.850</ele>
        <time>2020-05-02T09:44:07Z</time>
      </trkpt>
      <trkpt lat="29.200141" lon="-13.463998">
        <ele>245.288</ele>
        <time>2020-05-02T09:44:10Z</time>
      </trkpt>
      <trkpt lat="29.200184" lon="-13.464090">
        <ele>246.212</ele>
        <time>2020-05-02T09:44:17Z</time>
      </trkpt>
      <trkpt lat="29.200200" lon="-13.464120">
        <ele>246.418</ele>
        <time>2020-05-02T09:44:19Z</time>
      </trkpt>
      <trkpt lat="29.200227" lon="-13.464180">
        <ele>247.432</ele>
        <time>2020-05-02T09:44:23Z</time>
      </trkpt>
      <trkpt lat="29.200256" lon="-13.464243">
        <ele>248.492</ele>
        <time>2020-05-02T09:44:27Z</time>
      </trkpt>
      <trkpt lat="29.200264" lon="-13.464260">
        <ele>248.611</ele>
        <time>2020-05-02T09:44:28Z</time>
      </trkpt>
      <trkpt lat="29.200284" lon="-13.464306">
        <ele>249.608</ele>
        <time>2020-05-02T09:44:31Z</time>
      </trkpt>
      <trkpt lat="29.200312" lon="-13.464379">
        <ele>250.857</ele>
        <time>2020-05-02T09:44:36Z</time>
      </trkpt>
      <trkpt lat="29.200322" lon="-13.464408">
        <ele>251.621</ele>
        <time>2020-05-02T09:44:38Z</time>
      </trkpt>
      <trkpt lat="29.200326" lon="-13.464420">
        <ele>251.840</ele>
        <time>2020-05-02T09:44:39Z</time>
      </trkpt>
      <trkpt lat="29.200348" lon="-13.464470">
        <ele>253.261</ele>
        <time>2020-05-02T09:44:43Z</time>
      </trkpt>
      <trkpt lat="29.200356" lon="-13.464501">
        <ele>254.026</ele>
        <time>2020-05-02T09:44:45Z</time>
      </trkpt>
      <trkpt lat="29.200359" lon="-13.464517">
        <ele>254.234</ele>
        <time>2020-05-02T09:44:46Z</time>
      </trkpt>
      <trkpt lat="29.200384" lon="-13.464582">
        <ele>255.438</ele>
        <time>2020-05-02T09:44:50Z</time>
      </trkpt>
      <trkpt lat="29.200406" lon="-13.464628">
        <ele>256.684</ele>
        <time>2020-05-02T09:44:53Z</time>
      </trkpt>
      <trkpt lat="29.200430" lon="-13.464671">
        <ele>257.847</ele>
        <time>2020-05-02T09:44:56Z</time>
      </trkpt>
      <trkpt lat="29.200454" lon="-13.464722">
        <ele>258.829</ele>
        <time>2020-05-02T09:45:00Z</time>
      </trkpt>
      <trkpt lat="29.200457" lon="-13.464733">
        <ele>259.021</ele>
        <time>2020-05-02T09:45:01Z</time>
      </trkpt>
      <trkpt lat="29.200474" lon="-13.464777">
        <ele>260.008</ele>
        <time>2020-05-02T09:45:04Z</time>
      </trkpt>
      <trkpt lat="29.200479" lon="-13.464791">
        <ele>260.258</ele>
        <time>2020-05-02T09:45:05Z</time>
      </trkpt>
      <trkpt lat="29.200500" lon="-13.464837">
        <ele>260.882</ele>
        <time>2020-05-02T09:45:08Z</time>
      </trkpt>
      <trkpt lat="29.200517" lon="-13.464863">
        <ele>261.451</ele>
        <time>2020-05-02T09:45:10Z</time>
      </trkpt>
      <trkpt lat="29.200535" lon="-13.464900">
        <ele>262.642</ele>
        <time>2020-05-02T09:45:13Z</time>
      </trkpt>
      <trkpt lat="29.200545" lon="-13.464937">
        <ele>263.447</ele>
        <time>2020-05-02T09:45:16Z</time>
      </trkpt>
      <trkpt lat="29.200551" lon="-13.464949">
        <ele>263.845</ele>
        <time>2020-05-02T09:45:17Z</time>
      </trkpt>
      <trkpt lat="29.200571" lon="-13.464994">
        <ele>264.819</ele>
        <time>2020-05-02T09:45:21Z</time>
      </trkpt>
      <trkpt lat="29.200588" lon="-13.465021">
        <ele>265.665</ele>
        <time>2020-05-02T09:45:24Z</time>
      </trkpt>
      <trkpt lat="29.200610" lon="-13.465051">
        <ele>266.074</ele>
        <time>2020-05-02T09:45:27Z</time>
      </trkpt>
      <trkpt lat="29.200649" lon="-13.465125">
        <ele>267.256</ele>
        <time>2020-05-02T09:45:33Z</time>
      </trkpt>
      <trkpt lat="29.200660" lon="-13.465152">
        <ele>267.621</ele>
        <time>2020-05-02T09:45:35Z</time>
      </trkpt>
      <trkpt lat="29.200678" lon="-13.465198">
        <ele>268.408</ele>
        <time>2020-05-02T09:45:38Z</time>
      </trkpt>
      <trkpt lat="29.200696" lon="-13.465247">
        <ele>269.611</ele>
        <time>2020-05-02T09:45:42Z</time>
      </trkpt>
      <trkpt lat="29.200711" lon="-13.465281">
        <ele>270.045</ele>
        <time>2020-05-02T09:45:45Z</time>
      </trkpt>
      <trkpt lat="29.200727" lon="-13.465312">
        <ele>270.814</ele>
        <time>2020-05-02T09:45:48Z</time>
      </trkpt>
      <trkpt lat="29.200747" lon="-13.465361">
        <ele>271.625</ele>
        <time>2020-05-02T09:45:52Z</time>
      </trkpt>
      <trkpt lat="29.200757" lon="-13.465384">
        <ele>272.060</ele>
        <time>2020-05-02T09:45:54Z</time>
      </trkpt>
      <trkpt lat="29.200792" lon="-13.465461">
        <ele>273.088</ele>
        <time>2020-05-02T09:46:00Z</time>
      </trkpt>
      <trkpt lat="29.200812" lon="-13.465509">
        <ele>274.072</ele>
        <time>2020-05-02T09:46:04Z</time>
      </trkpt>
      <trkpt lat="29.200830" lon="-13.465552">
        <ele>274.688</ele>
        <time>2020-05-02T09:46:07Z</time>
      </trkpt>
      <trkpt lat="29.200849" lon="-13.465591">
        <ele>275.221</ele>
        <time>2020-05-02T09:46:10Z</time>
      </trkpt>
      <trkpt lat="29.200854" lon="-13.465643">
        <ele>276.241</ele>
        <time>2020-05-02T09:46:14Z</time>
      </trkpt>
      <trkpt lat="29.200862" lon="-13.465665">
        <ele>276.605</ele>
        <time>2020-05-02T09:46:16Z</time>
      </trkpt>
      <trkpt lat="29.200869" lon="-13.465668">
        <ele>276.808</ele>
        <time>2020-05-02T09:46:17Z</time>
      </trkpt>
      <trkpt lat="29.200880" lon="-13.465692">
        <ele>277.256</ele>
        <time>2020-05-02T09:46:20Z</time>
      </trkpt>
      <trkpt lat="29.200885" lon="-13.465703">
        <ele>277.440</ele>
        <time>2020-05-02T09:46:21Z</time>
      </trkpt>
      <trkpt lat="29.200896" lon="-13.465719">
        <ele>277.819</ele>
        <time>2020-05-02T09:46:24Z</time>
      </trkpt>
      <trkpt lat="29.200901" lon="-13.465757">
        <ele>278.410</ele>
        <time>2020-05-02T09:46:34Z</time>
      </trkpt>
      <trkpt lat="29.200914" lon="-13.465796">
        <ele>278.665</ele>
        <time>2020-05-02T09:46:37Z</time>
      </trkpt>
      <trkpt lat="29.200940" lon="-13.465849">
        <ele>279.463</ele>
        <time>2020-05-02T09:46:41Z</time>
      </trkpt>
      <trkpt lat="29.200945" lon="-13.465862">
        <ele>279.447</ele>
        <time>2020-05-02T09:46:42Z</time>
      </trkpt>
      <trkpt lat="29.200986" lon="-13.465961">
        <ele>280.843</ele>
        <time>2020-05-02T09:46:49Z</time>
      </trkpt>
      <trkpt lat="29.201002" lon="-13.466040">
        <ele>281.841</ele>
        <time>2020-05-02T09:46:54Z</time>
      </trkpt>
      <trkpt lat="29.201018" lon="-13.466096">
        <ele>282.681</ele>
        <time>2020-05-02T09:46:58Z</time>
      </trkpt>
      <trkpt lat="29.201028" lon="-13.466130">
        <ele>283.009</ele>
        <time>2020-05-02T09:47:00Z</time>
      </trkpt>
      <trkpt lat="29.201080" lon="-13.466267">
        <ele>283.808</ele>
        <time>2020-05-02T09:47:09Z</time>
      </trkpt>
      <trkpt lat="29.201103" lon="-13.466315">
        <ele>284.068</ele>
        <time>2020-05-02T09:47:12Z</time>
      </trkpt>
      <trkpt lat="29.201125" lon="-13.466370">
        <ele>285.062</ele>
        <time>2020-05-02T09:47:16Z</time>
      </trkpt>
      <trkpt lat="29.201128" lon="-13.466386">
        <ele>285.281</ele>
        <time>2020-05-02T09:47:17Z</time>
      </trkpt>
      <trkpt lat="29.201178" lon="-13.466490">
        <ele>286.242</ele>
        <time>2020-05-02T09:47:24Z</time>
      </trkpt>
      <trkpt lat="29.201244" lon="-13.466610">
        <ele>286.627</ele>
        <time>2020-05-02T09:47:32Z</time>
      </trkpt>
      <trkpt lat="29.201276" lon="-13.466691">
        <ele>287.275</ele>
        <time>2020-05-02T09:47:37Z</time>
      </trkpt>
      <trkpt lat="29.201279" lon="-13.466704">
        <ele>287.449</ele>
        <time>2020-05-02T09:47:38Z</time>
      </trkpt>
      <trkpt lat="29.201286" lon="-13.466735">
        <ele>287.645</ele>
        <time>2020-05-02T09:47:40Z</time>
      </trkpt>
      <trkpt lat="29.201323" lon="-13.466834">
        <ele>288.456</ele>
        <time>2020-05-02T09:47:46Z</time>
      </trkpt>
      <trkpt lat="29.201355" lon="-13.466877">
        <ele>288.859</ele>
        <time>2020-05-02T09:47:49Z</time>
      </trkpt>
      <trkpt lat="29.201431" lon="-13.466995">
        <ele>289.214</ele>
        <time>2020-05-02T09:47:57Z</time>
      </trkpt>
      <trkpt lat="29.201451" lon="-13.467030">
        <ele>289.408</ele>
        <time>2020-05-02T09:47:59Z</time>
      </trkpt>
      <trkpt lat="29.201498" lon="-13.467095">
        <ele>290.239</ele>
        <time>2020-05-02T09:48:04Z</time>
      </trkpt>
      <trkpt lat="29.201506" lon="-13.467109">
        <ele>290.413</ele>
        <time>2020-05-02T09:48:05Z</time>
      </trkpt>
      <trkpt lat="29.201569" lon="-13.467184">
        <ele>291.082</ele>
        <time>2020-05-02T09:48:11Z</time>
      </trkpt>
      <trkpt lat="29.201627" lon="-13.467255">
        <ele>291.683</ele>
        <time>2020-05-02T09:48:16Z</time>
      </trkpt>
      <trkpt lat="29.201673" lon="-13.467315">
        <ele>291.628</ele>
        <time>2020-05-02T09:48:20Z</time>
      </trkpt>
      <trkpt lat="29.201697" lon="-13.467345">
        <ele>291.846</ele>
        <time>2020-05-02T09:48:22Z</time>
      </trkpt>
      <trkpt lat="29.201750" lon="-13.467427">
        <ele>292.290</ele>
        <time>2020-05-02T09:48:28Z</time>
      </trkpt>
      <trkpt lat="29.201777" lon="-13.467487">
        <ele>292.616</ele>
        <time>2020-05-02T09:48:32Z</time>
      </trkpt>
      <trkpt lat="29.201806" lon="-13.467544">
        <ele>292.872</ele>
        <time>2020-05-02T09:48:36Z</time>
      </trkpt>
      <trkpt lat="29.201841" lon="-13.467672">
        <ele>292.613</ele>
        <time>2020-05-02T09:48:44Z</time>
      </trkpt>
      <trkpt lat="29.201856" lon="-13.467758">
        <ele>292.614</ele>
        <time>2020-05-02T09:48:49Z</time>
      </trkpt>
      <trkpt lat="29.201870" lon="-13.467816">
        <ele>292.808</ele>
        <time>2020-05-02T09:48:52Z</time>
      </trkpt>
      <trkpt lat="29.201886" lon="-13.467927">
        <ele>292.221</ele>
        <time>2020-05-02T09:48:58Z</time>
      </trkpt>
      <trkpt lat="29.201892" lon="-13.467957">
        <ele>292.095</ele>
        <time>2020-05-02T09:49:00Z</time>
      </trkpt>
      <trkpt lat="29.201898" lon="-13.468037">
        <ele>292.044</ele>
        <time>2020-05-02T09:49:05Z</time>
      </trkpt>
      <trkpt lat="29.201897" lon="-13.468053">
        <ele>292.045</ele>
        <time>2020-05-02T09:49:06Z</time>
      </trkpt>
      <trkpt lat="29.201916" lon="-13.468186">
        <ele>292.290</ele>
        <time>2020-05-02T09:49:14Z</time>
      </trkpt>
      <trkpt lat="29.201939" lon="-13.468312">
        <ele>292.098</ele>
        <time>2020-05-02T09:49:21Z</time>
      </trkpt>
      <trkpt lat="29.201956" lon="-13.468409">
        <ele>291.872</ele>
        <time>2020-05-02T09:49:26Z</time>
      </trkpt>
      <trkpt lat="29.201967" lon="-13.468462">
        <ele>291.858</ele>
        <time>2020-05-02T09:49:29Z</time>
      </trkpt>
      <trkpt lat="29.202011" lon="-13.468623">
        <ele>291.627</ele>
        <time>2020-05-02T09:49:38Z</time>
      </trkpt>
      <trkpt lat="29.202015" lon="-13.468645">
        <ele>291.468</ele>
        <time>2020-05-02T09:49:39Z</time>
      </trkpt>
      <trkpt lat="29.202028" lon="-13.468721">
        <ele>291.014</ele>
        <time>2020-05-02T09:49:43Z</time>
      </trkpt>
      <trkpt lat="29.202032" lon="-13.468756">
        <ele>291.008</ele>
        <time>2020-05-02T09:49:45Z</time>
      </trkpt>
      <trkpt lat="29.202039" lon="-13.468869">
        <ele>291.026</ele>
        <time>2020-05-02T09:49:52Z</time>
      </trkpt>
      <trkpt lat="29.202048" lon="-13.468960">
        <ele>290.860</ele>
        <time>2020-05-02T09:49:58Z</time>
      </trkpt>
      <trkpt lat="29.202059" lon="-13.469053">
        <ele>290.489</ele>
        <time>2020-05-02T09:50:03Z</time>
      </trkpt>
      <trkpt lat="29.202061" lon="-13.469073">
        <ele>290.240</ele>
        <time>2020-05-02T09:50:04Z</time>
      </trkpt>
      <trkpt lat="29.202070" lon="-13.469205">
        <ele>290.295</ele>
        <time>2020-05-02T09:50:11Z</time>
      </trkpt>
      <trkpt lat="29.202088" lon="-13.469299">
        <ele>289.263</ele>
        <time>2020-05-02T09:50:16Z</time>
      </trkpt>
      <trkpt lat="29.202107" lon="-13.469354">
        <ele>289.047</ele>
        <time>2020-05-02T09:50:19Z</time>
      </trkpt>
      <trkpt lat="29.202142" lon="-13.469441">
        <ele>288.273</ele>
        <time>2020-05-02T09:50:24Z</time>
      </trkpt>
      <trkpt lat="29.202149" lon="-13.469459">
        <ele>288.265</ele>
        <time>2020-05-02T09:50:25Z</time>
      </trkpt>
      <trkpt lat="29.202158" lon="-13.469477">
        <ele>288.068</ele>
        <time>2020-05-02T09:50:26Z</time>
      </trkpt>
      <trkpt lat="29.202202" lon="-13.469619">
        <ele>287.014</ele>
        <time>2020-05-02T09:50:34Z</time>
      </trkpt>
      <trkpt lat="29.202203" lon="-13.469636">
        <ele>286.808</ele>
        <time>2020-05-02T09:50:35Z</time>
      </trkpt>
      <trkpt lat="29.202204" lon="-13.469743">
        <ele>286.040</ele>
        <time>2020-05-02T09:50:41Z</time>
      </trkpt>
      <trkpt lat="29.202207" lon="-13.469796">
        <ele>285.674</ele>
        <time>2020-05-02T09:50:44Z</time>
      </trkpt>
      <trkpt lat="29.202204" lon="-13.469919">
        <ele>285.083</ele>
        <time>2020-05-02T09:50:51Z</time>
      </trkpt>
      <trkpt lat="29.202202" lon="-13.469953">
        <ele>284.884</ele>
        <time>2020-05-02T09:50:53Z</time>
      </trkpt>
      <trkpt lat="29.202205" lon="-13.470115">
        <ele>284.479</ele>
        <time>2020-05-02T09:51:02Z</time>
      </trkpt>
      <trkpt lat="29.202223" lon="-13.470228">
        <ele>283.877</ele>
        <time>2020-05-02T09:51:08Z</time>
      </trkpt>
      <trkpt lat="29.202235" lon="-13.470266">
        <ele>283.871</ele>
        <time>2020-05-02T09:51:10Z</time>
      </trkpt>
      <trkpt lat="29.202289" lon="-13.470402">
        <ele>284.427</ele>
        <time>2020-05-02T09:51:18Z</time>
      </trkpt>
      <trkpt lat="29.202325" lon="-13.470512">
        <ele>284.656</ele>
        <time>2020-05-02T09:51:25Z</time>
      </trkpt>
      <trkpt lat="29.202368" lon="-13.470628">
        <ele>284.859</ele>
        <time>2020-05-02T09:51:32Z</time>
      </trkpt>
      <trkpt lat="29.202394" lon="-13.470708">
        <ele>285.414</ele>
        <time>2020-05-02T09:51:37Z</time>
      </trkpt>
      <trkpt lat="29.202431" lon="-13.470828">
        <ele>285.408</ele>
        <time>2020-05-02T09:51:45Z</time>
      </trkpt>
      <trkpt lat="29.202460" lon="-13.470907">
        <ele>286.079</ele>
        <time>2020-05-02T09:51:49Z</time>
      </trkpt>
      <trkpt lat="29.202476" lon="-13.470967">
        <ele>286.293</ele>
        <time>2020-05-02T09:51:52Z</time>
      </trkpt>
      <trkpt lat="29.202493" lon="-13.471076">
        <ele>287.062</ele>
        <time>2020-05-02T09:51:58Z</time>
      </trkpt>
      <trkpt lat="29.202493" lon="-13.471093">
        <ele>287.293</ele>
        <time>2020-05-02T09:51:59Z</time>
      </trkpt>
      <trkpt lat="29.202489" lon="-13.471200">
        <ele>288.028</ele>
        <time>2020-05-02T09:52:05Z</time>
      </trkpt>
      <trkpt lat="29.202487" lon="-13.471217">
        <ele>288.216</ele>
        <time>2020-05-02T09:52:06Z</time>
      </trkpt>
      <trkpt lat="29.202485" lon="-13.471251">
        <ele>288.480</ele>
        <time>2020-05-02T09:52:08Z</time>
      </trkpt>
      <trkpt lat="29.202481" lon="-13.471285">
        <ele>288.636</ele>
        <time>2020-05-02T09:52:10Z</time>
      </trkpt>
      <trkpt lat="29.202480" lon="-13.471303">
        <ele>288.653</ele>
        <time>2020-05-02T09:52:11Z</time>
      </trkpt>
      <trkpt lat="29.202477" lon="-13.471457">
        <ele>289.204</ele>
        <time>2020-05-02T09:52:19Z</time>
      </trkpt>
      <trkpt lat="29.202477" lon="-13.471477">
        <ele>289.014</ele>
        <time>2020-05-02T09:52:20Z</time>
      </trkpt>
      <trkpt lat="29.202464" lon="-13.471608">
        <ele>288.408</ele>
        <time>2020-05-02T09:52:27Z</time>
      </trkpt>
      <trkpt lat="29.202480" lon="-13.471760">
        <ele>288.499</ele>
        <time>2020-05-02T09:52:35Z</time>
      </trkpt>
      <trkpt lat="29.202514" lon="-13.471874">
        <ele>288.613</ele>
        <time>2020-05-02T09:52:41Z</time>
      </trkpt>
      <trkpt lat="29.202547" lon="-13.472044">
        <ele>289.462</ele>
        <time>2020-05-02T09:52:50Z</time>
      </trkpt>
      <trkpt lat="29.202587" lon="-13.472173">
        <ele>289.833</ele>
        <time>2020-05-02T09:52:57Z</time>
      </trkpt>
      <trkpt lat="29.202593" lon="-13.472279">
        <ele>289.628</ele>
        <time>2020-05-02T09:53:03Z</time>
      </trkpt>
      <trkpt lat="29.202569" lon="-13.472380">
        <ele>289.446</ele>
        <time>2020-05-02T09:53:08Z</time>
      </trkpt>
      <trkpt lat="29.202511" lon="-13.472466">
        <ele>289.430</ele>
        <time>2020-05-02T09:53:15Z</time>
      </trkpt>
      <trkpt lat="29.202448" lon="-13.472516">
        <ele>289.696</ele>
        <time>2020-05-02T09:53:21Z</time>
      </trkpt>
      <trkpt lat="29.202374" lon="-13.472524">
        <ele>288.234</ele>
        <time>2020-05-02T09:53:26Z</time>
      </trkpt>
      <trkpt lat="29.202358" lon="-13.472521">
        <ele>288.055</ele>
        <time>2020-05-02T09:53:27Z</time>
      </trkpt>
      <trkpt lat="29.202325" lon="-13.472522">
        <ele>287.610</ele>
        <time>2020-05-02T09:53:29Z</time>
      </trkpt>
      <trkpt lat="29.202197" lon="-13.472542">
        <ele>286.808</ele>
        <time>2020-05-02T09:53:37Z</time>
      </trkpt>
      <trkpt lat="29.202122" lon="-13.472572">
        <ele>286.447</ele>
        <time>2020-05-02T09:53:43Z</time>
      </trkpt>
      <trkpt lat="29.202007" lon="-13.472646">
        <ele>286.041</ele>
        <time>2020-05-02T09:53:52Z</time>
      </trkpt>
      <trkpt lat="29.201983" lon="-13.472659">
        <ele>285.810</ele>
        <time>2020-05-02T09:53:54Z</time>
      </trkpt>
      <trkpt lat="29.201909" lon="-13.472703">
        <ele>285.881</ele>
        <time>2020-05-02T09:54:00Z</time>
      </trkpt>
      <trkpt lat="29.201814" lon="-13.472752">
        <ele>285.696</ele>
        <time>2020-05-02T09:54:07Z</time>
      </trkpt>
      <trkpt lat="29.201703" lon="-13.472813">
        <ele>285.244</ele>
        <time>2020-05-02T09:54:15Z</time>
      </trkpt>
      <trkpt lat="29.201594" lon="-13.472873">
        <ele>284.888</ele>
        <time>2020-05-02T09:54:22Z</time>
      </trkpt>
      <trkpt lat="29.201547" lon="-13.472898">
        <ele>284.624</ele>
        <time>2020-05-02T09:54:25Z</time>
      </trkpt>
      <trkpt lat="29.201508" lon="-13.472924">
        <ele>284.454</ele>
        <time>2020-05-02T09:54:28Z</time>
      </trkpt>
      <trkpt lat="29.201425" lon="-13.472975">
        <ele>284.856</ele>
        <time>2020-05-02T09:54:34Z</time>
      </trkpt>
      <trkpt lat="29.201410" lon="-13.472983">
        <ele>284.811</ele>
        <time>2020-05-02T09:54:35Z</time>
      </trkpt>
      <trkpt lat="29.201343" lon="-13.473041">
        <ele>285.008</ele>
        <time>2020-05-02T09:54:40Z</time>
      </trkpt>
      <trkpt lat="29.201227" lon="-13.473109">
        <ele>284.829</ele>
        <time>2020-05-02T09:54:48Z</time>
      </trkpt>
      <trkpt lat="29.201199" lon="-13.473117">
        <ele>284.653</ele>
        <time>2020-05-02T09:54:50Z</time>
      </trkpt>
      <trkpt lat="29.201119" lon="-13.473127">
        <ele>284.682</ele>
        <time>2020-05-02T09:54:56Z</time>
      </trkpt>
      <trkpt lat="29.200980" lon="-13.473183">
        <ele>284.663</ele>
        <time>2020-05-02T09:55:06Z</time>
      </trkpt>
      <trkpt lat="29.200874" lon="-13.473280">
        <ele>284.648</ele>
        <time>2020-05-02T09:55:14Z</time>
      </trkpt>
      <trkpt lat="29.200790" lon="-13.473353">
        <ele>285.026</ele>
        <time>2020-05-02T09:55:20Z</time>
      </trkpt>
      <trkpt lat="29.200697" lon="-13.473420">
        <ele>285.470</ele>
        <time>2020-05-02T09:55:27Z</time>
      </trkpt>
      <trkpt lat="29.200591" lon="-13.473423">
        <ele>285.856</ele>
        <time>2020-05-02T09:55:34Z</time>
      </trkpt>
      <trkpt lat="29.200572" lon="-13.473417">
        <ele>285.886</ele>
        <time>2020-05-02T09:55:35Z</time>
      </trkpt>
      <trkpt lat="29.200488" lon="-13.473394">
        <ele>286.660</ele>
        <time>2020-05-02T09:55:40Z</time>
      </trkpt>
      <trkpt lat="29.200472" lon="-13.473391">
        <ele>287.026</ele>
        <time>2020-05-02T09:55:41Z</time>
      </trkpt>
      <trkpt lat="29.200439" lon="-13.473383">
        <ele>287.808</ele>
        <time>2020-05-02T09:55:43Z</time>
      </trkpt>
      <trkpt lat="29.200423" lon="-13.473380">
        <ele>288.022</ele>
        <time>2020-05-02T09:55:44Z</time>
      </trkpt>
      <trkpt lat="29.200380" lon="-13.473363">
        <ele>288.266</ele>
        <time>2020-05-02T09:55:47Z</time>
      </trkpt>
      <trkpt lat="29.200331" lon="-13.473340">
        <ele>288.035</ele>
        <time>2020-05-02T09:55:50Z</time>
      </trkpt>
      <trkpt lat="29.200275" lon="-13.473315">
        <ele>288.876</ele>
        <time>2020-05-02T09:55:54Z</time>
      </trkpt>
      <trkpt lat="29.200243" lon="-13.473305">
        <ele>289.271</ele>
        <time>2020-05-02T09:55:56Z</time>
      </trkpt>
      <trkpt lat="29.200228" lon="-13.473299">
        <ele>289.429</ele>
        <time>2020-05-02T09:55:57Z</time>
      </trkpt>
      <trkpt lat="29.200185" lon="-13.473289">
        <ele>290.243</ele>
        <time>2020-05-02T09:56:00Z</time>
      </trkpt>
      <trkpt lat="29.200115" lon="-13.473265">
        <ele>291.469</ele>
        <time>2020-05-02T09:56:05Z</time>
      </trkpt>
      <trkpt lat="29.200102" lon="-13.473261">
        <ele>291.844</ele>
        <time>2020-05-02T09:56:06Z</time>
      </trkpt>
      <trkpt lat="29.200029" lon="-13.473239">
        <ele>292.405</ele>
        <time>2020-05-02T09:56:11Z</time>
      </trkpt>
      <trkpt lat="29.199983" lon="-13.473227">
        <ele>293.015</ele>
        <time>2020-05-02T09:56:14Z</time>
      </trkpt>
      <trkpt lat="29.199958" lon="-13.473215">
        <ele>293.808</ele>
        <time>2020-05-02T09:56:16Z</time>
      </trkpt>
      <trkpt lat="29.199897" lon="-13.473201">
        <ele>294.898</ele>
        <time>2020-05-02T09:56:20Z</time>
      </trkpt>
      <trkpt lat="29.199879" lon="-13.473204">
        <ele>295.242</ele>
        <time>2020-05-02T09:56:21Z</time>
      </trkpt>
      <trkpt lat="29.199834" lon="-13.473203">
        <ele>296.431</ele>
        <time>2020-05-02T09:56:24Z</time>
      </trkpt>
      <trkpt lat="29.199794" lon="-13.473203">
        <ele>297.442</ele>
        <time>2020-05-02T09:56:27Z</time>
      </trkpt>
      <trkpt lat="29.199779" lon="-13.473203">
        <ele>297.477</ele>
        <time>2020-05-02T09:56:28Z</time>
      </trkpt>
      <trkpt lat="29.199724" lon="-13.473184">
        <ele>298.685</ele>
        <time>2020-05-02T09:56:32Z</time>
      </trkpt>
      <trkpt lat="29.199684" lon="-13.473169">
        <ele>300.039</ele>
        <time>2020-05-02T09:56:35Z</time>
      </trkpt>
      <trkpt lat="29.199627" lon="-13.473151">
        <ele>301.235</ele>
        <time>2020-05-02T09:56:39Z</time>
      </trkpt>
      <trkpt lat="29.199571" lon="-13.473130">
        <ele>302.214</ele>
        <time>2020-05-02T09:56:43Z</time>
      </trkpt>
      <trkpt lat="29.199558" lon="-13.473125">
        <ele>302.454</ele>
        <time>2020-05-02T09:56:44Z</time>
      </trkpt>
      <trkpt lat="29.199502" lon="-13.473099">
        <ele>303.609</ele>
        <time>2020-05-02T09:56:48Z</time>
      </trkpt>
      <trkpt lat="29.199460" lon="-13.473078">
        <ele>304.408</ele>
        <time>2020-05-02T09:56:51Z</time>
      </trkpt>
      <trkpt lat="29.199429" lon="-13.473067">
        <ele>304.685</ele>
        <time>2020-05-02T09:56:53Z</time>
      </trkpt>
      <trkpt lat="29.199372" lon="-13.473048">
        <ele>305.679</ele>
        <time>2020-05-02T09:56:57Z</time>
      </trkpt>
      <trkpt lat="29.199345" lon="-13.473037">
        <ele>306.488</ele>
        <time>2020-05-02T09:56:59Z</time>
      </trkpt>
      <trkpt lat="29.199330" lon="-13.473034">
        <ele>306.819</ele>
        <time>2020-05-02T09:57:00Z</time>
      </trkpt>
      <trkpt lat="29.199287" lon="-13.473032">
        <ele>308.034</ele>
        <time>2020-05-02T09:57:03Z</time>
      </trkpt>
      <trkpt lat="29.199247" lon="-13.473045">
        <ele>309.072</ele>
        <time>2020-05-02T09:57:06Z</time>
      </trkpt>
      <trkpt lat="29.199236" lon="-13.473050">
        <ele>309.286</ele>
        <time>2020-05-02T09:57:07Z</time>
      </trkpt>
      <trkpt lat="29.199204" lon="-13.473073">
        <ele>310.032</ele>
        <time>2020-05-02T09:57:10Z</time>
      </trkpt>
      <trkpt lat="29.199197" lon="-13.473087">
        <ele>310.219</ele>
        <time>2020-05-02T09:57:11Z</time>
      </trkpt>
      <trkpt lat="29.199178" lon="-13.473131">
        <ele>310.809</ele>
        <time>2020-05-02T09:57:14Z</time>
      </trkpt>
      <trkpt lat="29.199173" lon="-13.473163">
        <ele>311.219</ele>
        <time>2020-05-02T09:57:16Z</time>
      </trkpt>
      <trkpt lat="29.199187" lon="-13.473246">
        <ele>311.608</ele>
        <time>2020-05-02T09:57:21Z</time>
      </trkpt>
      <trkpt lat="29.199191" lon="-13.473296">
        <ele>312.265</ele>
        <time>2020-05-02T09:57:24Z</time>
      </trkpt>
      <trkpt lat="29.199190" lon="-13.473373">
        <ele>313.039</ele>
        <time>2020-05-02T09:57:29Z</time>
      </trkpt>
      <trkpt lat="29.199190" lon="-13.473405">
        <ele>313.688</ele>
        <time>2020-05-02T09:57:31Z</time>
      </trkpt>
      <trkpt lat="29.199167" lon="-13.473489">
        <ele>314.429</ele>
        <time>2020-05-02T09:57:36Z</time>
      </trkpt>
      <trkpt lat="29.199163" lon="-13.473516">
        <ele>314.654</ele>
        <time>2020-05-02T09:57:38Z</time>
      </trkpt>
      <trkpt lat="29.199177" lon="-13.473586">
        <ele>314.822</ele>
        <time>2020-05-02T09:57:42Z</time>
      </trkpt>
      <trkpt lat="29.199178" lon="-13.473602">
        <ele>315.046</ele>
        <time>2020-05-02T09:57:43Z</time>
      </trkpt>
      <trkpt lat="29.199199" lon="-13.473706">
        <ele>315.282</ele>
        <time>2020-05-02T09:57:49Z</time>
      </trkpt>
      <trkpt lat="29.199204" lon="-13.473745">
        <ele>315.258</ele>
        <time>2020-05-02T09:57:51Z</time>
      </trkpt>
      <trkpt lat="29.199209" lon="-13.473779">
        <ele>315.652</ele>
        <time>2020-05-02T09:57:53Z</time>
      </trkpt>
      <trkpt lat="29.199222" lon="-13.473865">
        <ele>316.217</ele>
        <time>2020-05-02T09:57:58Z</time>
      </trkpt>
      <trkpt lat="29.199221" lon="-13.473973">
        <ele>316.208</ele>
        <time>2020-05-02T09:58:04Z</time>
      </trkpt>
      <trkpt lat="29.199212" lon="-13.474037">
        <ele>316.429</ele>
        <time>2020-05-02T09:58:08Z</time>
      </trkpt>
      <trkpt lat="29.199211" lon="-13.474055">
        <ele>316.663</ele>
        <time>2020-05-02T09:58:09Z</time>
      </trkpt>
      <trkpt lat="29.199212" lon="-13.474094">
        <ele>317.242</ele>
        <time>2020-05-02T09:58:11Z</time>
      </trkpt>
      <trkpt lat="29.199215" lon="-13.474221">
        <ele>317.253</ele>
        <time>2020-05-02T09:58:19Z</time>
      </trkpt>
      <trkpt lat="29.199212" lon="-13.474271">
        <ele>317.868</ele>
        <time>2020-05-02T09:58:22Z</time>
      </trkpt>
      <trkpt lat="29.199209" lon="-13.474299">
        <ele>318.026</ele>
        <time>2020-05-02T09:58:24Z</time>
      </trkpt>
      <trkpt lat="29.199216" lon="-13.474341">
        <ele>318.240</ele>
        <time>2020-05-02T09:58:26Z</time>
      </trkpt>
      <trkpt lat="29.199224" lon="-13.474454">
        <ele>319.056</ele>
        <time>2020-05-02T09:58:32Z</time>
      </trkpt>
      <trkpt lat="29.199218" lon="-13.474576">
        <ele>320.029</ele>
        <time>2020-05-02T09:58:39Z</time>
      </trkpt>
      <trkpt lat="29.199213" lon="-13.474593">
        <ele>320.200</ele>
        <time>2020-05-02T09:58:40Z</time>
      </trkpt>
      <trkpt lat="29.199177" lon="-13.474696">
        <ele>320.620</ele>
        <time>2020-05-02T09:58:46Z</time>
      </trkpt>
      <trkpt lat="29.199157" lon="-13.474803">
        <ele>320.808</ele>
        <time>2020-05-02T09:58:52Z</time>
      </trkpt>
      <trkpt lat="29.199144" lon="-13.474859">
        <ele>321.096</ele>
        <time>2020-05-02T09:58:55Z</time>
      </trkpt>
      <trkpt lat="29.199143" lon="-13.474937">
        <ele>321.240</ele>
        <time>2020-05-02T09:58:59Z</time>
      </trkpt>
      <trkpt lat="29.199129" lon="-13.475021">
        <ele>321.659</ele>
        <time>2020-05-02T09:59:04Z</time>
      </trkpt>
      <trkpt lat="29.199124" lon="-13.475038">
        <ele>321.610</ele>
        <time>2020-05-02T09:59:05Z</time>
      </trkpt>
      <trkpt lat="29.199099" lon="-13.475190">
        <ele>322.035</ele>
        <time>2020-05-02T09:59:13Z</time>
      </trkpt>
      <trkpt lat="29.199094" lon="-13.475210">
        <ele>322.233</ele>
        <time>2020-05-02T09:59:14Z</time>
      </trkpt>
      <trkpt lat="29.199039" lon="-13.475336">
        <ele>323.067</ele>
        <time>2020-05-02T09:59:22Z</time>
      </trkpt>
      <trkpt lat="29.199029" lon="-13.475352">
        <ele>323.053</ele>
        <time>2020-05-02T09:59:23Z</time>
      </trkpt>
      <trkpt lat="29.198975" lon="-13.475440">
        <ele>324.281</ele>
        <time>2020-05-02T09:59:29Z</time>
      </trkpt>
      <trkpt lat="29.198969" lon="-13.475454">
        <ele>324.261</ele>
        <time>2020-05-02T09:59:30Z</time>
      </trkpt>
      <trkpt lat="29.198887" lon="-13.475587">
        <ele>324.417</ele>
        <time>2020-05-02T09:59:39Z</time>
      </trkpt>
      <trkpt lat="29.198785" lon="-13.475665">
        <ele>325.008</ele>
        <time>2020-05-02T09:59:47Z</time>
      </trkpt>
      <trkpt lat="29.198743" lon="-13.475691">
        <ele>325.252</ele>
        <time>2020-05-02T09:59:50Z</time>
      </trkpt>
      <trkpt lat="29.198693" lon="-13.475716">
        <ele>325.266</ele>
        <time>2020-05-02T09:59:54Z</time>
      </trkpt>
      <trkpt lat="29.198588" lon="-13.475767">
        <ele>325.435</ele>
        <time>2020-05-02T10:00:02Z</time>
      </trkpt>
      <trkpt lat="29.198486" lon="-13.475821">
        <ele>326.096</ele>
        <time>2020-05-02T10:00:09Z</time>
      </trkpt>
      <trkpt lat="29.198473" lon="-13.475829">
        <ele>326.231</ele>
        <time>2020-05-02T10:00:10Z</time>
      </trkpt>
      <trkpt lat="29.198460" lon="-13.475836">
        <ele>326.249</ele>
        <time>2020-05-02T10:00:11Z</time>
      </trkpt>
      <trkpt lat="29.198367" lon="-13.475911">
        <ele>326.883</ele>
        <time>2020-05-02T10:00:18Z</time>
      </trkpt>
      <trkpt lat="29.198274" lon="-13.476019">
        <ele>327.259</ele>
        <time>2020-05-02T10:00:26Z</time>
      </trkpt>
      <trkpt lat="29.198263" lon="-13.476030">
        <ele>327.218</ele>
        <time>2020-05-02T10:00:27Z</time>
      </trkpt>
      <trkpt lat="29.198172" lon="-13.476126">
        <ele>328.298</ele>
        <time>2020-05-02T10:00:35Z</time>
      </trkpt>
      <trkpt lat="29.198159" lon="-13.476135">
        <ele>328.217</ele>
        <time>2020-05-02T10:00:36Z</time>
      </trkpt>
      <trkpt lat="29.198077" lon="-13.476219">
        <ele>328.208</ele>
        <time>2020-05-02T10:00:43Z</time>
      </trkpt>
      <trkpt lat="29.198004" lon="-13.476309">
        <ele>328.865</ele>
        <time>2020-05-02T10:00:50Z</time>
      </trkpt>
      <trkpt lat="29.197993" lon="-13.476318">
        <ele>329.019</ele>
        <time>2020-05-02T10:00:51Z</time>
      </trkpt>
      <trkpt lat="29.197965" lon="-13.476338">
        <ele>329.288</ele>
        <time>2020-05-02T10:00:53Z</time>
      </trkpt>
      <trkpt lat="29.197913" lon="-13.476383">
        <ele>329.899</ele>
        <time>2020-05-02T10:00:57Z</time>
      </trkpt>
      <trkpt lat="29.197842" lon="-13.476434">
        <ele>330.214</ele>
        <time>2020-05-02T10:01:02Z</time>
      </trkpt>
      <trkpt lat="29.197798" lon="-13.476459">
        <ele>330.642</ele>
        <time>2020-05-02T10:01:05Z</time>
      </trkpt>
      <trkpt lat="29.197697" lon="-13.476516">
        <ele>331.436</ele>
        <time>2020-05-02T10:01:12Z</time>
      </trkpt>
      <trkpt lat="29.197597" lon="-13.476570">
        <ele>332.432</ele>
        <time>2020-05-02T10:01:20Z</time>
      </trkpt>
      <trkpt lat="29.197584" lon="-13.476575">
        <ele>332.635</ele>
        <time>2020-05-02T10:01:21Z</time>
      </trkpt>
      <trkpt lat="29.197511" lon="-13.476599">
        <ele>333.286</ele>
        <time>2020-05-02T10:01:26Z</time>
      </trkpt>
      <trkpt lat="29.197465" lon="-13.476610">
        <ele>333.814</ele>
        <time>2020-05-02T10:01:29Z</time>
      </trkpt>
      <trkpt lat="29.197451" lon="-13.476612">
        <ele>334.208</ele>
        <time>2020-05-02T10:01:30Z</time>
      </trkpt>
      <trkpt lat="29.197373" lon="-13.476628">
        <ele>334.837</ele>
        <time>2020-05-02T10:01:35Z</time>
      </trkpt>
      <trkpt lat="29.197345" lon="-13.476630">
        <ele>335.211</ele>
        <time>2020-05-02T10:01:37Z</time>
      </trkpt>
      <trkpt lat="29.197306" lon="-13.476637">
        <ele>336.090</ele>
        <time>2020-05-02T10:01:40Z</time>
      </trkpt>
      <trkpt lat="29.197218" lon="-13.476653">
        <ele>337.071</ele>
        <time>2020-05-02T10:01:46Z</time>
      </trkpt>
      <trkpt lat="29.197205" lon="-13.476656">
        <ele>337.216</ele>
        <time>2020-05-02T10:01:47Z</time>
      </trkpt>
      <trkpt lat="29.197117" lon="-13.476689">
        <ele>337.874</ele>
        <time>2020-05-02T10:01:53Z</time>
      </trkpt>
      <trkpt lat="29.197050" lon="-13.476723">
        <ele>338.288</ele>
        <time>2020-05-02T10:01:58Z</time>
      </trkpt>
      <trkpt lat="29.197020" lon="-13.476752">
        <ele>338.484</ele>
        <time>2020-05-02T10:02:00Z</time>
      </trkpt>
      <trkpt lat="29.196950" lon="-13.476817">
        <ele>339.438</ele>
        <time>2020-05-02T10:02:05Z</time>
      </trkpt>
      <trkpt lat="29.196926" lon="-13.476845">
        <ele>339.670</ele>
        <time>2020-05-02T10:02:07Z</time>
      </trkpt>
      <trkpt lat="29.196847" lon="-13.476939">
        <ele>340.417</ele>
        <time>2020-05-02T10:02:14Z</time>
      </trkpt>
      <trkpt lat="29.196834" lon="-13.476954">
        <ele>340.608</ele>
        <time>2020-05-02T10:02:15Z</time>
      </trkpt>
      <trkpt lat="29.196762" lon="-13.477033">
        <ele>341.647</ele>
        <time>2020-05-02T10:02:21Z</time>
      </trkpt>
      <trkpt lat="29.196729" lon="-13.477079">
        <ele>342.041</ele>
        <time>2020-05-02T10:02:24Z</time>
      </trkpt>
      <trkpt lat="29.196707" lon="-13.477127">
        <ele>342.670</ele>
        <time>2020-05-02T10:02:27Z</time>
      </trkpt>
      <trkpt lat="29.196664" lon="-13.477184">
        <ele>343.491</ele>
        <time>2020-05-02T10:02:31Z</time>
      </trkpt>
      <trkpt lat="29.196636" lon="-13.477234">
        <ele>343.886</ele>
        <time>2020-05-02T10:02:34Z</time>
      </trkpt>
      <trkpt lat="29.196631" lon="-13.477288">
        <ele>344.464</ele>
        <time>2020-05-02T10:02:37Z</time>
      </trkpt>
      <trkpt lat="29.196635" lon="-13.477344">
        <ele>345.028</ele>
        <time>2020-05-02T10:02:40Z</time>
      </trkpt>
      <trkpt lat="29.196647" lon="-13.477415">
        <ele>346.214</ele>
        <time>2020-05-02T10:02:44Z</time>
      </trkpt>
      <trkpt lat="29.196653" lon="-13.477430">
        <ele>346.433</ele>
        <time>2020-05-02T10:02:45Z</time>
      </trkpt>
      <trkpt lat="29.196672" lon="-13.477488">
        <ele>347.223</ele>
        <time>2020-05-02T10:02:49Z</time>
      </trkpt>
      <trkpt lat="29.196692" lon="-13.477547">
        <ele>348.215</ele>
        <time>2020-05-02T10:02:53Z</time>
      </trkpt>
      <trkpt lat="29.196712" lon="-13.477574">
        <ele>348.608</ele>
        <time>2020-05-02T10:02:55Z</time>
      </trkpt>
      <trkpt lat="29.196771" lon="-13.477653">
        <ele>349.447</ele>
        <time>2020-05-02T10:03:01Z</time>
      </trkpt>
      <trkpt lat="29.196801" lon="-13.477695">
        <ele>350.061</ele>
        <time>2020-05-02T10:03:04Z</time>
      </trkpt>
      <trkpt lat="29.196824" lon="-13.477722">
        <ele>350.680</ele>
        <time>2020-05-02T10:03:06Z</time>
      </trkpt>
      <trkpt lat="29.196899" lon="-13.477802">
        <ele>351.661</ele>
        <time>2020-05-02T10:03:12Z</time>
      </trkpt>
      <trkpt lat="29.196914" lon="-13.477814">
        <ele>351.856</ele>
        <time>2020-05-02T10:03:13Z</time>
      </trkpt>
      <trkpt lat="29.197001" lon="-13.477865">
        <ele>352.834</ele>
        <time>2020-05-02T10:03:19Z</time>
      </trkpt>
      <trkpt lat="29.197033" lon="-13.477875">
        <ele>353.468</ele>
        <time>2020-05-02T10:03:21Z</time>
      </trkpt>
      <trkpt lat="29.197066" lon="-13.477886">
        <ele>354.094</ele>
        <time>2020-05-02T10:03:23Z</time>
      </trkpt>
      <trkpt lat="29.197153" lon="-13.477931">
        <ele>355.268</ele>
        <time>2020-05-02T10:03:29Z</time>
      </trkpt>
      <trkpt lat="29.197182" lon="-13.478006">
        <ele>356.242</ele>
        <time>2020-05-02T10:03:34Z</time>
      </trkpt>
      <trkpt lat="29.197178" lon="-13.478025">
        <ele>356.626</ele>
        <time>2020-05-02T10:03:35Z</time>
      </trkpt>
      <trkpt lat="29.197169" lon="-13.478040">
        <ele>356.808</ele>
        <time>2020-05-02T10:03:36Z</time>
      </trkpt>
      <trkpt lat="29.197148" lon="-13.478063">
        <ele>357.450</ele>
        <time>2020-05-02T10:03:38Z</time>
      </trkpt>
      <trkpt lat="29.197124" lon="-13.478077">
        <ele>358.024</ele>
        <time>2020-05-02T10:03:40Z</time>
      </trkpt>
      <trkpt lat="29.197112" lon="-13.478080">
        <ele>358.413</ele>
        <time>2020-05-02T10:03:41Z</time>
      </trkpt>
      <trkpt lat="29.197074" lon="-13.478079">
        <ele>359.684</ele>
        <time>2020-05-02T10:03:44Z</time>
      </trkpt>
      <trkpt lat="29.197035" lon="-13.478085">
        <ele>360.669</ele>
        <time>2020-05-02T10:03:47Z</time>
      </trkpt>
      <trkpt lat="29.196992" lon="-13.478107">
        <ele>362.217</ele>
        <time>2020-05-02T10:03:51Z</time>
      </trkpt>
      <trkpt lat="29.196960" lon="-13.478136">
        <ele>362.861</ele>
        <time>2020-05-02T10:03:54Z</time>
      </trkpt>
      <trkpt lat="29.196931" lon="-13.478166">
        <ele>363.417</ele>
        <time>2020-05-02T10:03:57Z</time>
      </trkpt>
      <trkpt lat="29.196878" lon="-13.478229">
        <ele>364.434</ele>
        <time>2020-05-02T10:04:02Z</time>
      </trkpt>
      <trkpt lat="29.196860" lon="-13.478255">
        <ele>365.055</ele>
        <time>2020-05-02T10:04:04Z</time>
      </trkpt>
      <trkpt lat="29.196841" lon="-13.478280">
        <ele>365.610</ele>
        <time>2020-05-02T10:04:06Z</time>
      </trkpt>
      <trkpt lat="29.196798" lon="-13.478338">
        <ele>366.208</ele>
        <time>2020-05-02T10:04:11Z</time>
      </trkpt>
      <trkpt lat="29.196781" lon="-13.478366">
        <ele>366.657</ele>
        <time>2020-05-02T10:04:13Z</time>
      </trkpt>
      <trkpt lat="29.196730" lon="-13.478428">
        <ele>367.891</ele>
        <time>2020-05-02T10:04:18Z</time>
      </trkpt>
      <trkpt lat="29.196719" lon="-13.478433">
        <ele>368.220</ele>
        <time>2020-05-02T10:04:19Z</time>
      </trkpt>
      <trkpt lat="29.196696" lon="-13.478441">
        <ele>368.851</ele>
        <time>2020-05-02T10:04:21Z</time>
      </trkpt>
      <trkpt lat="29.196629" lon="-13.478427">
        <ele>369.426</ele>
        <time>2020-05-02T10:04:26Z</time>
      </trkpt>
      <trkpt lat="29.196538" lon="-13.478330">
        <ele>369.654</ele>
        <time>2020-05-02T10:04:34Z</time>
      </trkpt>
      <trkpt lat="29.196485" lon="-13.478291">
        <ele>369.858</ele>
        <time>2020-05-02T10:04:38Z</time>
      </trkpt>
      <trkpt lat="29.196432" lon="-13.478258">
        <ele>370.474</ele>
        <time>2020-05-02T10:04:42Z</time>
      </trkpt>
      <trkpt lat="29.196348" lon="-13.478227">
        <ele>370.867</ele>
        <time>2020-05-02T10:04:48Z</time>
      </trkpt>
      <trkpt lat="29.196234" lon="-13.478175">
        <ele>370.481</ele>
        <time>2020-05-02T10:04:56Z</time>
      </trkpt>
      <trkpt lat="29.196178" lon="-13.478130">
        <ele>371.219</ele>
        <time>2020-05-02T10:05:01Z</time>
      </trkpt>
      <trkpt lat="29.196166" lon="-13.478122">
        <ele>371.208</ele>
        <time>2020-05-02T10:05:02Z</time>
      </trkpt>
      <trkpt lat="29.196122" lon="-13.478088">
        <ele>371.610</ele>
        <time>2020-05-02T10:05:06Z</time>
      </trkpt>
      <trkpt lat="29.196113" lon="-13.478076">
        <ele>371.624</ele>
        <time>2020-05-02T10:05:07Z</time>
      </trkpt>
      <trkpt lat="29.196082" lon="-13.478006">
        <ele>372.283</ele>
        <time>2020-05-02T10:05:10Z</time>
      </trkpt>
      <trkpt lat="29.196067" lon="-13.477938">
        <ele>372.254</ele>
        <time>2020-05-02T10:05:12Z</time>
      </trkpt>
      <trkpt lat="29.196033" lon="-13.477734">
        <ele>371.829</ele>
        <time>2020-05-02T10:05:18Z</time>
      </trkpt>
      <trkpt lat="29.196016" lon="-13.477562">
        <ele>372.477</ele>
        <time>2020-05-02T10:05:24Z</time>
      </trkpt>
      <trkpt lat="29.196003" lon="-13.477448">
        <ele>372.421</ele>
        <time>2020-05-02T10:05:28Z</time>
      </trkpt>
      <trkpt lat="29.195993" lon="-13.477421">
        <ele>372.497</ele>
        <time>2020-05-02T10:05:29Z</time>
      </trkpt>
      <trkpt lat="29.195941" lon="-13.477222">
        <ele>372.057</ele>
        <time>2020-05-02T10:05:36Z</time>
      </trkpt>
      <trkpt lat="29.195921" lon="-13.477139">
        <ele>371.600</ele>
        <time>2020-05-02T10:05:41Z</time>
      </trkpt>
      <trkpt lat="29.195915" lon="-13.477130">
        <ele>371.620</ele>
        <time>2020-05-02T10:05:42Z</time>
      </trkpt>
      <trkpt lat="29.195901" lon="-13.477095">
        <ele>371.408</ele>
        <time>2020-05-02T10:05:45Z</time>
      </trkpt>
      <trkpt lat="29.195883" lon="-13.476996">
        <ele>371.649</ele>
        <time>2020-05-02T10:05:51Z</time>
      </trkpt>
      <trkpt lat="29.195877" lon="-13.476971">
        <ele>371.623</ele>
        <time>2020-05-02T10:05:53Z</time>
      </trkpt>
      <trkpt lat="29.195853" lon="-13.476894">
        <ele>371.682</ele>
        <time>2020-05-02T10:05:58Z</time>
      </trkpt>
      <trkpt lat="29.195838" lon="-13.476865">
        <ele>371.663</ele>
        <time>2020-05-02T10:06:00Z</time>
      </trkpt>
      <trkpt lat="29.195754" lon="-13.476687">
        <ele>370.858</ele>
        <time>2020-05-02T10:06:36Z</time>
      </trkpt>
      <trkpt lat="29.195747" lon="-13.476677">
        <ele>370.856</ele>
        <time>2020-05-02T10:06:37Z</time>
      </trkpt>
      <trkpt lat="29.195717" lon="-13.476588">
        <ele>370.650</ele>
        <time>2020-05-02T10:06:43Z</time>
      </trkpt>
      <trkpt lat="29.195632" lon="-13.476441">
        <ele>370.096</ele>
        <time>2020-05-02T10:06:52Z</time>
      </trkpt>
      <trkpt lat="29.195563" lon="-13.476337">
        <ele>370.069</ele>
        <time>2020-05-02T10:06:59Z</time>
      </trkpt>
      <trkpt lat="29.195540" lon="-13.476292">
        <ele>369.804</ele>
        <time>2020-05-02T10:07:02Z</time>
      </trkpt>
      <trkpt lat="29.195500" lon="-13.476221">
        <ele>369.424</ele>
        <time>2020-05-02T10:07:07Z</time>
      </trkpt>
      <trkpt lat="29.195456" lon="-13.476146">
        <ele>369.008</ele>
        <time>2020-05-02T10:07:12Z</time>
      </trkpt>
      <trkpt lat="29.195435" lon="-13.476115">
        <ele>368.810</ele>
        <time>2020-05-02T10:07:14Z</time>
      </trkpt>
      <trkpt lat="29.195415" lon="-13.476075">
        <ele>368.894</ele>
        <time>2020-05-02T10:07:17Z</time>
      </trkpt>
      <trkpt lat="29.195398" lon="-13.476043">
        <ele>369.043</ele>
        <time>2020-05-02T10:07:19Z</time>
      </trkpt>
      <trkpt lat="29.195375" lon="-13.476012">
        <ele>369.024</ele>
        <time>2020-05-02T10:07:21Z</time>
      </trkpt>
      <trkpt lat="29.195353" lon="-13.475981">
        <ele>369.259</ele>
        <time>2020-05-02T10:07:23Z</time>
      </trkpt>
      <trkpt lat="29.195340" lon="-13.475965">
        <ele>369.247</ele>
        <time>2020-05-02T10:07:24Z</time>
      </trkpt>
      <trkpt lat="29.195306" lon="-13.475931">
        <ele>369.261</ele>
        <time>2020-05-02T10:07:27Z</time>
      </trkpt>
      <trkpt lat="29.195250" lon="-13.475862">
        <ele>368.827</ele>
        <time>2020-05-02T10:07:32Z</time>
      </trkpt>
      <trkpt lat="29.195195" lon="-13.475809">
        <ele>368.886</ele>
        <time>2020-05-02T10:07:36Z</time>
      </trkpt>
      <trkpt lat="29.195174" lon="-13.475780">
        <ele>368.660</ele>
        <time>2020-05-02T10:07:38Z</time>
      </trkpt>
      <trkpt lat="29.195127" lon="-13.475731">
        <ele>368.626</ele>
        <time>2020-05-02T10:07:42Z</time>
      </trkpt>
      <trkpt lat="29.195065" lon="-13.475665">
        <ele>368.808</ele>
        <time>2020-05-02T10:07:47Z</time>
      </trkpt>
      <trkpt lat="29.194948" lon="-13.475574">
        <ele>368.622</ele>
        <time>2020-05-02T10:07:56Z</time>
      </trkpt>
      <trkpt lat="29.194830" lon="-13.475467">
        <ele>368.876</ele>
        <time>2020-05-02T10:08:05Z</time>
      </trkpt>
      <trkpt lat="29.194756" lon="-13.475405">
        <ele>368.045</ele>
        <time>2020-05-02T10:08:10Z</time>
      </trkpt>
      <trkpt lat="29.194717" lon="-13.475366">
        <ele>367.666</ele>
        <time>2020-05-02T10:08:13Z</time>
      </trkpt>
      <trkpt lat="29.194702" lon="-13.475353">
        <ele>367.661</ele>
        <time>2020-05-02T10:08:14Z</time>
      </trkpt>
      <trkpt lat="29.194607" lon="-13.475283">
        <ele>367.449</ele>
        <time>2020-05-02T10:08:21Z</time>
      </trkpt>
      <trkpt lat="29.194593" lon="-13.475274">
        <ele>367.463</ele>
        <time>2020-05-02T10:08:22Z</time>
      </trkpt>
      <trkpt lat="29.194499" lon="-13.475208">
        <ele>366.659</ele>
        <time>2020-05-02T10:08:29Z</time>
      </trkpt>
      <trkpt lat="29.194470" lon="-13.475186">
        <ele>366.637</ele>
        <time>2020-05-02T10:08:31Z</time>
      </trkpt>
      <trkpt lat="29.194357" lon="-13.475071">
        <ele>365.649</ele>
        <time>2020-05-02T10:08:41Z</time>
      </trkpt>
      <trkpt lat="29.194346" lon="-13.475057">
        <ele>365.613</ele>
        <time>2020-05-02T10:08:42Z</time>
      </trkpt>
      <trkpt lat="29.194256" lon="-13.474956">
        <ele>365.408</ele>
        <time>2020-05-02T10:08:50Z</time>
      </trkpt>
      <trkpt lat="29.194209" lon="-13.474899">
        <ele>365.247</ele>
        <time>2020-05-02T10:08:54Z</time>
      </trkpt>
      <trkpt lat="29.194180" lon="-13.474869">
        <ele>364.811</ele>
        <time>2020-05-02T10:08:57Z</time>
      </trkpt>
      <trkpt lat="29.194088" lon="-13.474800">
        <ele>365.040</ele>
        <time>2020-05-02T10:09:04Z</time>
      </trkpt>
      <trkpt lat="29.194014" lon="-13.474740">
        <ele>364.641</ele>
        <time>2020-05-02T10:09:10Z</time>
      </trkpt>
      <trkpt lat="29.194005" lon="-13.474728">
        <ele>364.666</ele>
        <time>2020-05-02T10:09:11Z</time>
      </trkpt>
      <trkpt lat="29.193944" lon="-13.474650">
        <ele>364.224</ele>
        <time>2020-05-02T10:09:17Z</time>
      </trkpt>
      <trkpt lat="29.193870" lon="-13.474553">
        <ele>363.828</ele>
        <time>2020-05-02T10:09:24Z</time>
      </trkpt>
      <trkpt lat="29.193847" lon="-13.474526">
        <ele>363.694</ele>
        <time>2020-05-02T10:09:26Z</time>
      </trkpt>
      <trkpt lat="29.193836" lon="-13.474513">
        <ele>363.478</ele>
        <time>2020-05-02T10:09:27Z</time>
      </trkpt>
      <trkpt lat="29.193753" lon="-13.474466">
        <ele>364.233</ele>
        <time>2020-05-02T10:09:57Z</time>
      </trkpt>
      <trkpt lat="29.193766" lon="-13.474457">
        <ele>364.026</ele>
        <time>2020-05-02T10:09:58Z</time>
      </trkpt>
      <trkpt lat="29.193898" lon="-13.474388">
        <ele>363.408</ele>
        <time>2020-05-02T10:10:06Z</time>
      </trkpt>
      <trkpt lat="29.193967" lon="-13.474334">
        <ele>362.871</ele>
        <time>2020-05-02T10:10:09Z</time>
      </trkpt>
      <trkpt lat="29.193989" lon="-13.474316">
        <ele>362.425</ele>
        <time>2020-05-02T10:10:10Z</time>
      </trkpt>
      <trkpt lat="29.194056" lon="-13.474258">
        <ele>360.894</ele>
        <time>2020-05-02T10:10:13Z</time>
      </trkpt>
      <trkpt lat="29.194077" lon="-13.474237">
        <ele>360.245</ele>
        <time>2020-05-02T10:10:14Z</time>
      </trkpt>
      <trkpt lat="29.194096" lon="-13.474217">
        <ele>359.880</ele>
        <time>2020-05-02T10:10:15Z</time>
      </trkpt>
      <trkpt lat="29.194136" lon="-13.474179">
        <ele>358.888</ele>
        <time>2020-05-02T10:10:17Z</time>
      </trkpt>
      <trkpt lat="29.194208" lon="-13.474128">
        <ele>357.672</ele>
        <time>2020-05-02T10:10:20Z</time>
      </trkpt>
      <trkpt lat="29.194231" lon="-13.474113">
        <ele>357.448</ele>
        <time>2020-05-02T10:10:21Z</time>
      </trkpt>
      <trkpt lat="29.194307" lon="-13.474028">
        <ele>356.679</ele>
        <time>2020-05-02T10:10:25Z</time>
      </trkpt>
      <trkpt lat="29.194319" lon="-13.473971">
        <ele>356.205</ele>
        <time>2020-05-02T10:10:27Z</time>
      </trkpt>
      <trkpt lat="29.194307" lon="-13.473912">
        <ele>355.225</ele>
        <time>2020-05-02T10:10:29Z</time>
      </trkpt>
      <trkpt lat="29.194284" lon="-13.473863">
        <ele>354.208</ele>
        <time>2020-05-02T10:10:31Z</time>
      </trkpt>
      <trkpt lat="29.194273" lon="-13.473840">
        <ele>354.011</ele>
        <time>2020-05-02T10:10:32Z</time>
      </trkpt>
      <trkpt lat="29.194211" lon="-13.473699">
        <ele>352.885</ele>
        <time>2020-05-02T10:10:38Z</time>
      </trkpt>
      <trkpt lat="29.194197" lon="-13.473671">
        <ele>352.234</ele>
        <time>2020-05-02T10:10:39Z</time>
      </trkpt>
      <trkpt lat="29.194183" lon="-13.473640">
        <ele>351.645</ele>
        <time>2020-05-02T10:10:40Z</time>
      </trkpt>
      <trkpt lat="29.194101" lon="-13.473458">
        <ele>350.470</ele>
        <time>2020-05-02T10:10:46Z</time>
      </trkpt>
      <trkpt lat="29.194056" lon="-13.473359">
        <ele>349.018</ele>
        <time>2020-05-02T10:10:50Z</time>
      </trkpt>
      <trkpt lat="29.194041" lon="-13.473329">
        <ele>347.882</ele>
        <time>2020-05-02T10:10:52Z</time>
      </trkpt>
      <trkpt lat="29.194033" lon="-13.473315">
        <ele>347.468</ele>
        <time>2020-05-02T10:10:53Z</time>
      </trkpt>
      <trkpt lat="29.194009" lon="-13.473264">
        <ele>346.675</ele>
        <time>2020-05-02T10:10:56Z</time>
      </trkpt>
      <trkpt lat="29.193985" lon="-13.473215">
        <ele>345.428</ele>
        <time>2020-05-02T10:10:59Z</time>
      </trkpt>
      <trkpt lat="29.193978" lon="-13.473200">
        <ele>345.020</ele>
        <time>2020-05-02T10:11:00Z</time>
      </trkpt>
      <trkpt lat="29.193944" lon="-13.473137">
        <ele>344.208</ele>
        <time>2020-05-02T10:11:04Z</time>
      </trkpt>
      <trkpt lat="29.193908" lon="-13.473063">
        <ele>343.241</ele>
        <time>2020-05-02T10:11:09Z</time>
      </trkpt>
      <trkpt lat="29.193901" lon="-13.473046">
        <ele>342.685</ele>
        <time>2020-05-02T10:11:10Z</time>
      </trkpt>
      <trkpt lat="29.193893" lon="-13.473030">
        <ele>342.014</ele>
        <time>2020-05-02T10:11:11Z</time>
      </trkpt>
      <trkpt lat="29.193857" lon="-13.472969">
        <ele>341.475</ele>
        <time>2020-05-02T10:11:15Z</time>
      </trkpt>
      <trkpt lat="29.193848" lon="-13.472953">
        <ele>341.050</ele>
        <time>2020-05-02T10:11:16Z</time>
      </trkpt>
      <trkpt lat="29.193831" lon="-13.472924">
        <ele>340.428</ele>
        <time>2020-05-02T10:11:18Z</time>
      </trkpt>
      <trkpt lat="29.193813" lon="-13.472897">
        <ele>340.052</ele>
        <time>2020-05-02T10:11:20Z</time>
      </trkpt>
      <trkpt lat="29.193771" lon="-13.472852">
        <ele>339.498</ele>
        <time>2020-05-02T10:11:23Z</time>
      </trkpt>
      <trkpt lat="29.193762" lon="-13.472839">
        <ele>339.064</ele>
        <time>2020-05-02T10:11:24Z</time>
      </trkpt>
      <trkpt lat="29.193710" lon="-13.472782">
        <ele>337.806</ele>
        <time>2020-05-02T10:11:28Z</time>
      </trkpt>
      <trkpt lat="29.193699" lon="-13.472765">
        <ele>337.416</ele>
        <time>2020-05-02T10:11:29Z</time>
      </trkpt>
      <trkpt lat="29.193691" lon="-13.472751">
        <ele>337.008</ele>
        <time>2020-05-02T10:11:30Z</time>
      </trkpt>
      <trkpt lat="29.193689" lon="-13.472738">
        <ele>336.670</ele>
        <time>2020-05-02T10:11:31Z</time>
      </trkpt>
      <trkpt lat="29.193660" lon="-13.472692">
        <ele>336.054</ele>
        <time>2020-05-02T10:11:34Z</time>
      </trkpt>
      <trkpt lat="29.193651" lon="-13.472676">
        <ele>335.423</ele>
        <time>2020-05-02T10:11:35Z</time>
      </trkpt>
      <trkpt lat="29.193601" lon="-13.472623">
        <ele>334.274</ele>
        <time>2020-05-02T10:11:39Z</time>
      </trkpt>
      <trkpt lat="29.193544" lon="-13.472582">
        <ele>333.289</ele>
        <time>2020-05-02T10:11:43Z</time>
      </trkpt>
      <trkpt lat="29.193500" lon="-13.472541">
        <ele>332.467</ele>
        <time>2020-05-02T10:11:46Z</time>
      </trkpt>
      <trkpt lat="29.193469" lon="-13.472516">
        <ele>332.021</ele>
        <time>2020-05-02T10:11:48Z</time>
      </trkpt>
      <trkpt lat="29.193404" lon="-13.472480">
        <ele>330.867</ele>
        <time>2020-05-02T10:11:52Z</time>
      </trkpt>
      <trkpt lat="29.193366" lon="-13.472471">
        <ele>330.479</ele>
        <time>2020-05-02T10:11:54Z</time>
      </trkpt>
      <trkpt lat="29.193330" lon="-13.472459">
        <ele>329.605</ele>
        <time>2020-05-02T10:11:56Z</time>
      </trkpt>
      <trkpt lat="29.193250" lon="-13.472419">
        <ele>328.425</ele>
        <time>2020-05-02T10:12:01Z</time>
      </trkpt>
      <trkpt lat="29.193232" lon="-13.472410">
        <ele>327.808</ele>
        <time>2020-05-02T10:12:02Z</time>
      </trkpt>
      <trkpt lat="29.193198" lon="-13.472395">
        <ele>327.231</ele>
        <time>2020-05-02T10:12:04Z</time>
      </trkpt>
      <trkpt lat="29.193109" lon="-13.472356">
        <ele>326.015</ele>
        <time>2020-05-02T10:12:09Z</time>
      </trkpt>
      <trkpt lat="29.193090" lon="-13.472358">
        <ele>325.674</ele>
        <time>2020-05-02T10:12:10Z</time>
      </trkpt>
      <trkpt lat="29.193015" lon="-13.472311">
        <ele>324.665</ele>
        <time>2020-05-02T10:12:15Z</time>
      </trkpt>
      <trkpt lat="29.192949" lon="-13.472270">
        <ele>323.630</ele>
        <time>2020-05-02T10:12:20Z</time>
      </trkpt>
      <trkpt lat="29.192918" lon="-13.472251">
        <ele>323.298</ele>
        <time>2020-05-02T10:12:22Z</time>
      </trkpt>
      <trkpt lat="29.192778" lon="-13.472185">
        <ele>322.662</ele>
        <time>2020-05-02T10:12:30Z</time>
      </trkpt>
      <trkpt lat="29.192674" lon="-13.472121">
        <ele>321.438</ele>
        <time>2020-05-02T10:12:35Z</time>
      </trkpt>
      <trkpt lat="29.192634" lon="-13.472087">
        <ele>321.018</ele>
        <time>2020-05-02T10:12:37Z</time>
      </trkpt>
      <trkpt lat="29.192553" lon="-13.471991">
        <ele>320.498</ele>
        <time>2020-05-02T10:12:42Z</time>
      </trkpt>
      <trkpt lat="29.192538" lon="-13.471971">
        <ele>320.417</ele>
        <time>2020-05-02T10:12:43Z</time>
      </trkpt>
      <trkpt lat="29.192527" lon="-13.471953">
        <ele>320.208</ele>
        <time>2020-05-02T10:12:44Z</time>
      </trkpt>
      <trkpt lat="29.192501" lon="-13.471905">
        <ele>319.255</ele>
        <time>2020-05-02T10:12:47Z</time>
      </trkpt>
      <trkpt lat="29.192480" lon="-13.471859">
        <ele>318.239</ele>
        <time>2020-05-02T10:12:50Z</time>
      </trkpt>
      <trkpt lat="29.192472" lon="-13.471842">
        <ele>318.028</ele>
        <time>2020-05-02T10:12:51Z</time>
      </trkpt>
      <trkpt lat="29.192445" lon="-13.471788">
        <ele>317.269</ele>
        <time>2020-05-02T10:12:54Z</time>
      </trkpt>
      <trkpt lat="29.192429" lon="-13.471752">
        <ele>316.624</ele>
        <time>2020-05-02T10:12:56Z</time>
      </trkpt>
      <trkpt lat="29.192417" lon="-13.471719">
        <ele>316.412</ele>
        <time>2020-05-02T10:12:58Z</time>
      </trkpt>
      <trkpt lat="29.192403" lon="-13.471687">
        <ele>316.246</ele>
        <time>2020-05-02T10:13:00Z</time>
      </trkpt>
      <trkpt lat="29.192372" lon="-13.471582">
        <ele>315.622</ele>
        <time>2020-05-02T10:13:06Z</time>
      </trkpt>
      <trkpt lat="29.192325" lon="-13.471454">
        <ele>315.255</ele>
        <time>2020-05-02T10:13:13Z</time>
      </trkpt>
      <trkpt lat="29.192318" lon="-13.471436">
        <ele>314.607</ele>
        <time>2020-05-02T10:13:14Z</time>
      </trkpt>
      <trkpt lat="29.192285" lon="-13.471364">
        <ele>313.417</ele>
        <time>2020-05-02T10:13:18Z</time>
      </trkpt>
      <trkpt lat="29.192262" lon="-13.471324">
        <ele>313.208</ele>
        <time>2020-05-02T10:13:20Z</time>
      </trkpt>
      <trkpt lat="29.192191" lon="-13.471239">
        <ele>312.279</ele>
        <time>2020-05-02T10:13:24Z</time>
      </trkpt>
      <trkpt lat="29.192150" lon="-13.471188">
        <ele>311.683</ele>
        <time>2020-05-02T10:13:26Z</time>
      </trkpt>
      <trkpt lat="29.192101" lon="-13.471135">
        <ele>311.072</ele>
        <time>2020-05-02T10:13:28Z</time>
      </trkpt>
      <trkpt lat="29.192024" lon="-13.471070">
        <ele>309.483</ele>
        <time>2020-05-02T10:13:31Z</time>
      </trkpt>
      <trkpt lat="29.191977" lon="-13.471028">
        <ele>308.628</ele>
        <time>2020-05-02T10:13:33Z</time>
      </trkpt>
      <trkpt lat="29.191954" lon="-13.471010">
        <ele>308.266</ele>
        <time>2020-05-02T10:13:34Z</time>
      </trkpt>
      <trkpt lat="29.191887" lon="-13.470928">
        <ele>307.030</ele>
        <time>2020-05-02T10:13:38Z</time>
      </trkpt>
      <trkpt lat="29.191882" lon="-13.470903">
        <ele>306.696</ele>
        <time>2020-05-02T10:13:39Z</time>
      </trkpt>
      <trkpt lat="29.191890" lon="-13.470881">
        <ele>306.021</ele>
        <time>2020-05-02T10:13:40Z</time>
      </trkpt>
      <trkpt lat="29.191911" lon="-13.470869">
        <ele>305.641</ele>
        <time>2020-05-02T10:13:41Z</time>
      </trkpt>
      <trkpt lat="29.191936" lon="-13.470864">
        <ele>305.205</ele>
        <time>2020-05-02T10:13:42Z</time>
      </trkpt>
      <trkpt lat="29.191960" lon="-13.470870">
        <ele>305.008</ele>
        <time>2020-05-02T10:13:43Z</time>
      </trkpt>
      <trkpt lat="29.192002" lon="-13.470896">
        <ele>304.456</ele>
        <time>2020-05-02T10:13:45Z</time>
      </trkpt>
      <trkpt lat="29.192020" lon="-13.470913">
        <ele>304.410</ele>
        <time>2020-05-02T10:13:46Z</time>
      </trkpt>
      <trkpt lat="29.192097" lon="-13.470985">
        <ele>302.849</ele>
        <time>2020-05-02T10:13:50Z</time>
      </trkpt>
      <trkpt lat="29.192140" lon="-13.471018">
        <ele>301.480</ele>
        <time>2020-05-02T10:13:52Z</time>
      </trkpt>
      <trkpt lat="29.192180" lon="-13.471058">
        <ele>300.895</ele>
        <time>2020-05-02T10:13:54Z</time>
      </trkpt>
      <trkpt lat="29.192203" lon="-13.471077">
        <ele>300.413</ele>
        <time>2020-05-02T10:13:55Z</time>
      </trkpt>
      <trkpt lat="29.192246" lon="-13.471117">
        <ele>299.467</ele>
        <time>2020-05-02T10:13:57Z</time>
      </trkpt>
      <trkpt lat="29.192295" lon="-13.471150">
        <ele>298.423</ele>
        <time>2020-05-02T10:13:59Z</time>
      </trkpt>
      <trkpt lat="29.192345" lon="-13.471176">
        <ele>297.496</ele>
        <time>2020-05-02T10:14:01Z</time>
      </trkpt>
      <trkpt lat="29.192369" lon="-13.471189">
        <ele>297.231</ele>
        <time>2020-05-02T10:14:02Z</time>
      </trkpt>
      <trkpt lat="29.192537" lon="-13.471229">
        <ele>296.424</ele>
        <time>2020-05-02T10:14:08Z</time>
      </trkpt>
      <trkpt lat="29.192563" lon="-13.471237">
        <ele>296.008</ele>
        <time>2020-05-02T10:14:09Z</time>
      </trkpt>
      <trkpt lat="29.192703" lon="-13.471248">
        <ele>295.033</ele>
        <time>2020-05-02T10:14:14Z</time>
      </trkpt>
      <trkpt lat="29.192759" lon="-13.471241">
        <ele>294.647</ele>
        <time>2020-05-02T10:14:16Z</time>
      </trkpt>
      <trkpt lat="29.192865" lon="-13.471211">
        <ele>295.036</ele>
        <time>2020-05-02T10:14:20Z</time>
      </trkpt>
      <trkpt lat="29.193018" lon="-13.471137">
        <ele>295.047</ele>
        <time>2020-05-02T10:14:26Z</time>
      </trkpt>
      <trkpt lat="29.193190" lon="-13.471053">
        <ele>294.472</ele>
        <time>2020-05-02T10:14:33Z</time>
      </trkpt>
      <trkpt lat="29.193255" lon="-13.471020">
        <ele>294.280</ele>
        <time>2020-05-02T10:14:36Z</time>
      </trkpt>
      <trkpt lat="29.193360" lon="-13.470891">
        <ele>294.054</ele>
        <time>2020-05-02T10:14:42Z</time>
      </trkpt>
      <trkpt lat="29.193361" lon="-13.470855">
        <ele>293.480</ele>
        <time>2020-05-02T10:14:43Z</time>
      </trkpt>
      <trkpt lat="29.193354" lon="-13.470785">
        <ele>291.654</ele>
        <time>2020-05-02T10:14:45Z</time>
      </trkpt>
      <trkpt lat="29.193344" lon="-13.470719">
        <ele>290.056</ele>
        <time>2020-05-02T10:14:47Z</time>
      </trkpt>
      <trkpt lat="29.193328" lon="-13.470612">
        <ele>288.611</ele>
        <time>2020-05-02T10:14:50Z</time>
      </trkpt>
      <trkpt lat="29.193318" lon="-13.470536">
        <ele>287.608</ele>
        <time>2020-05-02T10:14:52Z</time>
      </trkpt>
      <trkpt lat="29.193310" lon="-13.470465">
        <ele>286.249</ele>
        <time>2020-05-02T10:14:54Z</time>
      </trkpt>
      <trkpt lat="29.193308" lon="-13.470430">
        <ele>285.643</ele>
        <time>2020-05-02T10:14:55Z</time>
      </trkpt>
      <trkpt lat="29.193305" lon="-13.470395">
        <ele>285.292</ele>
        <time>2020-05-02T10:14:56Z</time>
      </trkpt>
      <trkpt lat="29.193298" lon="-13.470327">
        <ele>283.863</ele>
        <time>2020-05-02T10:14:58Z</time>
      </trkpt>
      <trkpt lat="29.193290" lon="-13.470222">
        <ele>282.488</ele>
        <time>2020-05-02T10:15:01Z</time>
      </trkpt>
      <trkpt lat="29.193287" lon="-13.470152">
        <ele>281.426</ele>
        <time>2020-05-02T10:15:03Z</time>
      </trkpt>
      <trkpt lat="29.193269" lon="-13.470024">
        <ele>280.060</ele>
        <time>2020-05-02T10:15:07Z</time>
      </trkpt>
      <trkpt lat="29.193251" lon="-13.469954">
        <ele>278.616</ele>
        <time>2020-05-02T10:15:09Z</time>
      </trkpt>
      <trkpt lat="29.193236" lon="-13.469885">
        <ele>277.054</ele>
        <time>2020-05-02T10:15:11Z</time>
      </trkpt>
      <trkpt lat="29.193223" lon="-13.469827">
        <ele>275.656</ele>
        <time>2020-05-02T10:15:13Z</time>
      </trkpt>
      <trkpt lat="29.193207" lon="-13.469740">
        <ele>274.211</ele>
        <time>2020-05-02T10:15:16Z</time>
      </trkpt>
      <trkpt lat="29.193201" lon="-13.469712">
        <ele>273.408</ele>
        <time>2020-05-02T10:15:17Z</time>
      </trkpt>
      <trkpt lat="29.193194" lon="-13.469681">
        <ele>272.669</ele>
        <time>2020-05-02T10:15:18Z</time>
      </trkpt>
      <trkpt lat="29.193181" lon="-13.469612">
        <ele>270.883</ele>
        <time>2020-05-02T10:15:20Z</time>
      </trkpt>
      <trkpt lat="29.193168" lon="-13.469536">
        <ele>269.082</ele>
        <time>2020-05-02T10:15:22Z</time>
      </trkpt>
      <trkpt lat="29.193152" lon="-13.469462">
        <ele>268.463</ele>
        <time>2020-05-02T10:15:24Z</time>
      </trkpt>
      <trkpt lat="29.193146" lon="-13.469426">
        <ele>268.098</ele>
        <time>2020-05-02T10:15:25Z</time>
      </trkpt>
      <trkpt lat="29.193131" lon="-13.469356">
        <ele>266.896</ele>
        <time>2020-05-02T10:15:27Z</time>
      </trkpt>
      <trkpt lat="29.193118" lon="-13.469286">
        <ele>265.460</ele>
        <time>2020-05-02T10:15:29Z</time>
      </trkpt>
      <trkpt lat="29.193109" lon="-13.469219">
        <ele>264.696</ele>
        <time>2020-05-02T10:15:31Z</time>
      </trkpt>
      <trkpt lat="29.193105" lon="-13.469186">
        <ele>264.022</ele>
        <time>2020-05-02T10:15:32Z</time>
      </trkpt>
      <trkpt lat="29.193097" lon="-13.469119">
        <ele>262.862</ele>
        <time>2020-05-02T10:15:34Z</time>
      </trkpt>
      <trkpt lat="29.193083" lon="-13.468979">
        <ele>262.008</ele>
        <time>2020-05-02T10:15:38Z</time>
      </trkpt>
      <trkpt lat="29.193084" lon="-13.468944">
        <ele>261.808</ele>
        <time>2020-05-02T10:15:39Z</time>
      </trkpt>
      <trkpt lat="29.193082" lon="-13.468846">
        <ele>260.296</ele>
        <time>2020-05-02T10:15:42Z</time>
      </trkpt>
      <trkpt lat="29.193074" lon="-13.468748">
        <ele>258.830</ele>
        <time>2020-05-02T10:15:45Z</time>
      </trkpt>
      <trkpt lat="29.193064" lon="-13.468686">
        <ele>257.669</ele>
        <time>2020-05-02T10:15:47Z</time>
      </trkpt>
      <trkpt lat="29.193043" lon="-13.468554">
        <ele>256.610</ele>
        <time>2020-05-02T10:15:51Z</time>
      </trkpt>
      <trkpt lat="29.193002" lon="-13.468346">
        <ele>255.825</ele>
        <time>2020-05-02T10:15:57Z</time>
      </trkpt>
      <trkpt lat="29.192996" lon="-13.468309">
        <ele>255.473</ele>
        <time>2020-05-02T10:15:58Z</time>
      </trkpt>
      <trkpt lat="29.192992" lon="-13.468276">
        <ele>255.287</ele>
        <time>2020-05-02T10:15:59Z</time>
      </trkpt>
      <trkpt lat="29.192979" lon="-13.468179">
        <ele>254.293</ele>
        <time>2020-05-02T10:16:02Z</time>
      </trkpt>
      <trkpt lat="29.192950" lon="-13.468084">
        <ele>253.016</ele>
        <time>2020-05-02T10:16:05Z</time>
      </trkpt>
      <trkpt lat="29.192933" lon="-13.467943">
        <ele>252.076</ele>
        <time>2020-05-02T10:16:09Z</time>
      </trkpt>
      <trkpt lat="29.192923" lon="-13.467841">
        <ele>250.013</ele>
        <time>2020-05-02T10:16:12Z</time>
      </trkpt>
      <trkpt lat="29.192917" lon="-13.467776">
        <ele>248.408</ele>
        <time>2020-05-02T10:16:14Z</time>
      </trkpt>
      <trkpt lat="29.192912" lon="-13.467709">
        <ele>247.475</ele>
        <time>2020-05-02T10:16:16Z</time>
      </trkpt>
      <trkpt lat="29.192885" lon="-13.467514">
        <ele>247.249</ele>
        <time>2020-05-02T10:16:22Z</time>
      </trkpt>
      <trkpt lat="29.192874" lon="-13.467448">
        <ele>246.058</ele>
        <time>2020-05-02T10:16:24Z</time>
      </trkpt>
      <trkpt lat="29.192867" lon="-13.467380">
        <ele>245.039</ele>
        <time>2020-05-02T10:16:26Z</time>
      </trkpt>
      <trkpt lat="29.192853" lon="-13.467281">
        <ele>244.264</ele>
        <time>2020-05-02T10:16:29Z</time>
      </trkpt>
      <trkpt lat="29.192847" lon="-13.467249">
        <ele>243.892</ele>
        <time>2020-05-02T10:16:30Z</time>
      </trkpt>
      <trkpt lat="29.192830" lon="-13.467149">
        <ele>242.846</ele>
        <time>2020-05-02T10:16:33Z</time>
      </trkpt>
      <trkpt lat="29.192820" lon="-13.467081">
        <ele>241.682</ele>
        <time>2020-05-02T10:16:35Z</time>
      </trkpt>
      <trkpt lat="29.192811" lon="-13.467013">
        <ele>240.258</ele>
        <time>2020-05-02T10:16:37Z</time>
      </trkpt>
      <trkpt lat="29.192802" lon="-13.466942">
        <ele>238.452</ele>
        <time>2020-05-02T10:16:39Z</time>
      </trkpt>
      <trkpt lat="29.192792" lon="-13.466872">
        <ele>237.617</ele>
        <time>2020-05-02T10:16:41Z</time>
      </trkpt>
      <trkpt lat="29.192785" lon="-13.466838">
        <ele>237.208</ele>
        <time>2020-05-02T10:16:42Z</time>
      </trkpt>
      <trkpt lat="29.192769" lon="-13.466672">
        <ele>236.049</ele>
        <time>2020-05-02T10:16:47Z</time>
      </trkpt>
      <trkpt lat="29.192767" lon="-13.466639">
        <ele>235.223</ele>
        <time>2020-05-02T10:16:48Z</time>
      </trkpt>
      <trkpt lat="29.192764" lon="-13.466606">
        <ele>234.682</ele>
        <time>2020-05-02T10:16:49Z</time>
      </trkpt>
      <trkpt lat="29.192749" lon="-13.466539">
        <ele>233.443</ele>
        <time>2020-05-02T10:16:51Z</time>
      </trkpt>
      <trkpt lat="29.192717" lon="-13.466401">
        <ele>232.218</ele>
        <time>2020-05-02T10:16:55Z</time>
      </trkpt>
      <trkpt lat="29.192660" lon="-13.466308">
        <ele>231.086</ele>
        <time>2020-05-02T10:16:58Z</time>
      </trkpt>
      <trkpt lat="29.192609" lon="-13.466252">
        <ele>229.880</ele>
        <time>2020-05-02T10:17:00Z</time>
      </trkpt>
      <trkpt lat="29.192535" lon="-13.466175">
        <ele>228.456</ele>
        <time>2020-05-02T10:17:03Z</time>
      </trkpt>
      <trkpt lat="29.192440" lon="-13.466083">
        <ele>227.863</ele>
        <time>2020-05-02T10:17:07Z</time>
      </trkpt>
      <trkpt lat="29.192392" lon="-13.466045">
        <ele>227.444</ele>
        <time>2020-05-02T10:17:09Z</time>
      </trkpt>
      <trkpt lat="29.192271" lon="-13.465958">
        <ele>226.618</ele>
        <time>2020-05-02T10:17:14Z</time>
      </trkpt>
      <trkpt lat="29.192249" lon="-13.465941">
        <ele>226.208</ele>
        <time>2020-05-02T10:17:15Z</time>
      </trkpt>
      <trkpt lat="29.192163" lon="-13.465833">
        <ele>225.260</ele>
        <time>2020-05-02T10:17:20Z</time>
      </trkpt>
      <trkpt lat="29.192155" lon="-13.465804">
        <ele>225.244</ele>
        <time>2020-05-02T10:17:21Z</time>
      </trkpt>
      <trkpt lat="29.192120" lon="-13.465658">
        <ele>224.253</ele>
        <time>2020-05-02T10:17:26Z</time>
      </trkpt>
      <trkpt lat="29.192103" lon="-13.465567">
        <ele>222.654</ele>
        <time>2020-05-02T10:17:29Z</time>
      </trkpt>
      <trkpt lat="29.192097" lon="-13.465504">
        <ele>221.679</ele>
        <time>2020-05-02T10:17:31Z</time>
      </trkpt>
      <trkpt lat="29.192107" lon="-13.465408">
        <ele>220.437</ele>
        <time>2020-05-02T10:17:34Z</time>
      </trkpt>
      <trkpt lat="29.192111" lon="-13.465378">
        <ele>220.021</ele>
        <time>2020-05-02T10:17:35Z</time>
      </trkpt>
      <trkpt lat="29.192158" lon="-13.465204">
        <ele>219.497</ele>
        <time>2020-05-02T10:17:41Z</time>
      </trkpt>
      <trkpt lat="29.192167" lon="-13.465177">
        <ele>219.026</ele>
        <time>2020-05-02T10:17:42Z</time>
      </trkpt>
      <trkpt lat="29.192190" lon="-13.465121">
        <ele>218.247</ele>
        <time>2020-05-02T10:17:44Z</time>
      </trkpt>
      <trkpt lat="29.192219" lon="-13.465033">
        <ele>217.211</ele>
        <time>2020-05-02T10:17:48Z</time>
      </trkpt>
      <trkpt lat="29.192221" lon="-13.465019">
        <ele>217.208</ele>
        <time>2020-05-02T10:17:49Z</time>
      </trkpt>
      <trkpt lat="29.192242" lon="-13.464936">
        <ele>216.646</ele>
        <time>2020-05-02T10:17:55Z</time>
      </trkpt>
      <trkpt lat="29.192282" lon="-13.464804">
        <ele>216.270</ele>
        <time>2020-05-02T10:18:03Z</time>
      </trkpt>
      <trkpt lat="29.192334" lon="-13.464648">
        <ele>215.449</ele>
        <time>2020-05-02T10:18:12Z</time>
      </trkpt>
      <trkpt lat="29.192370" lon="-13.464564">
        <ele>215.250</ele>
        <time>2020-05-02T10:18:17Z</time>
      </trkpt>
      <trkpt lat="29.192380" lon="-13.464534">
        <ele>215.085</ele>
        <time>2020-05-02T10:18:19Z</time>
      </trkpt>
      <trkpt lat="29.192418" lon="-13.464434">
        <ele>214.823</ele>
        <time>2020-05-02T10:18:25Z</time>
      </trkpt>
      <trkpt lat="29.192437" lon="-13.464380">
        <ele>214.877</ele>
        <time>2020-05-02T10:18:28Z</time>
      </trkpt>
      <trkpt lat="29.192473" lon="-13.464280">
        <ele>214.683</ele>
        <time>2020-05-02T10:18:34Z</time>
      </trkpt>
      <trkpt lat="29.192532" lon="-13.464167">
        <ele>214.673</ele>
        <time>2020-05-02T10:18:41Z</time>
      </trkpt>
      <trkpt lat="29.192622" lon="-13.464077">
        <ele>214.085</ele>
        <time>2020-05-02T10:18:49Z</time>
      </trkpt>
      <trkpt lat="29.192635" lon="-13.464069">
        <ele>214.013</ele>
        <time>2020-05-02T10:18:50Z</time>
      </trkpt>
      <trkpt lat="29.192675" lon="-13.464050">
        <ele>213.808</ele>
        <time>2020-05-02T10:18:53Z</time>
      </trkpt>
      <trkpt lat="29.192739" lon="-13.464034">
        <ele>214.081</ele>
        <time>2020-05-02T10:18:57Z</time>
      </trkpt>
      <trkpt lat="29.192753" lon="-13.464035">
        <ele>214.045</ele>
        <time>2020-05-02T10:18:58Z</time>
      </trkpt>
      <trkpt lat="29.192890" lon="-13.464018">
        <ele>213.684</ele>
        <time>2020-05-02T10:19:07Z</time>
      </trkpt>
      <trkpt lat="29.193025" lon="-13.463998">
        <ele>213.625</ele>
        <time>2020-05-02T10:19:15Z</time>
      </trkpt>
      <trkpt lat="29.193130" lon="-13.463975">
        <ele>213.410</ele>
        <time>2020-05-02T10:19:22Z</time>
      </trkpt>
      <trkpt lat="29.193214" lon="-13.463921">
        <ele>213.088</ele>
        <time>2020-05-02T10:19:29Z</time>
      </trkpt>
      <trkpt lat="29.193230" lon="-13.463916">
        <ele>213.042</ele>
        <time>2020-05-02T10:19:30Z</time>
      </trkpt>
      <trkpt lat="29.193325" lon="-13.463889">
        <ele>211.868</ele>
        <time>2020-05-02T10:19:36Z</time>
      </trkpt>
      <trkpt lat="29.193340" lon="-13.463879">
        <ele>211.892</ele>
        <time>2020-05-02T10:19:37Z</time>
      </trkpt>
      <trkpt lat="29.193479" lon="-13.463800">
        <ele>211.273</ele>
        <time>2020-05-02T10:19:46Z</time>
      </trkpt>
      <trkpt lat="29.193606" lon="-13.463708">
        <ele>211.620</ele>
        <time>2020-05-02T10:19:55Z</time>
      </trkpt>
      <trkpt lat="29.193714" lon="-13.463632">
        <ele>212.008</ele>
        <time>2020-05-02T10:20:03Z</time>
      </trkpt>
      <trkpt lat="29.193802" lon="-13.463552">
        <ele>211.833</ele>
        <time>2020-05-02T10:20:10Z</time>
      </trkpt>
      <trkpt lat="29.193886" lon="-13.463456">
        <ele>211.047</ele>
        <time>2020-05-02T10:20:17Z</time>
      </trkpt>
      <trkpt lat="29.193901" lon="-13.463449">
        <ele>210.836</ele>
        <time>2020-05-02T10:20:18Z</time>
      </trkpt>
      <trkpt lat="29.193995" lon="-13.463464">
        <ele>209.877</ele>
        <time>2020-05-02T10:20:23Z</time>
      </trkpt>
      <trkpt lat="29.194009" lon="-13.463474">
        <ele>209.842</ele>
        <time>2020-05-02T10:20:24Z</time>
      </trkpt>
      <trkpt lat="29.194087" lon="-13.463495">
        <ele>209.630</ele>
        <time>2020-05-02T10:20:30Z</time>
      </trkpt>
      <trkpt lat="29.194174" lon="-13.463522">
        <ele>208.614</ele>
        <time>2020-05-02T10:20:36Z</time>
      </trkpt>
      <trkpt lat="29.194220" lon="-13.463533">
        <ele>208.050</ele>
        <time>2020-05-02T10:20:39Z</time>
      </trkpt>
      <trkpt lat="29.194236" lon="-13.463536">
        <ele>207.824</ele>
        <time>2020-05-02T10:20:40Z</time>
      </trkpt>
      <trkpt lat="29.194254" lon="-13.463540">
        <ele>207.604</ele>
        <time>2020-05-02T10:20:41Z</time>
      </trkpt>
      <trkpt lat="29.194369" lon="-13.463544">
        <ele>207.014</ele>
        <time>2020-05-02T10:20:48Z</time>
      </trkpt>
      <trkpt lat="29.194501" lon="-13.463530">
        <ele>207.608</ele>
        <time>2020-05-02T10:20:56Z</time>
      </trkpt>
      <trkpt lat="29.194641" lon="-13.463502">
        <ele>207.876</ele>
        <time>2020-05-02T10:21:03Z</time>
      </trkpt>
      <trkpt lat="29.194698" lon="-13.463449">
        <ele>206.470</ele>
        <time>2020-05-02T10:21:06Z</time>
      </trkpt>
      <trkpt lat="29.194721" lon="-13.463418">
        <ele>205.629</ele>
        <time>2020-05-02T10:21:08Z</time>
      </trkpt>
      <trkpt lat="29.194730" lon="-13.463404">
        <ele>205.430</ele>
        <time>2020-05-02T10:21:09Z</time>
      </trkpt>
      <trkpt lat="29.194742" lon="-13.463397">
        <ele>205.215</ele>
        <time>2020-05-02T10:21:10Z</time>
      </trkpt>
      <trkpt lat="29.194782" lon="-13.463409">
        <ele>205.043</ele>
        <time>2020-05-02T10:21:13Z</time>
      </trkpt>
      <trkpt lat="29.194874" lon="-13.463460">
        <ele>204.497</ele>
        <time>2020-05-02T10:21:19Z</time>
      </trkpt>
      <trkpt lat="29.194889" lon="-13.463469">
        <ele>204.423</ele>
        <time>2020-05-02T10:21:20Z</time>
      </trkpt>
      <trkpt lat="29.194975" lon="-13.463487">
        <ele>203.227</ele>
        <time>2020-05-02T10:21:26Z</time>
      </trkpt>
      <trkpt lat="29.195045" lon="-13.463479">
        <ele>202.468</ele>
        <time>2020-05-02T10:21:30Z</time>
      </trkpt>
      <trkpt lat="29.195062" lon="-13.463479">
        <ele>202.214</ele>
        <time>2020-05-02T10:21:31Z</time>
      </trkpt>
      <trkpt lat="29.195125" lon="-13.463473">
        <ele>201.408</ele>
        <time>2020-05-02T10:21:35Z</time>
      </trkpt>
      <trkpt lat="29.195217" lon="-13.463461">
        <ele>201.066</ele>
        <time>2020-05-02T10:21:41Z</time>
      </trkpt>
      <trkpt lat="29.195268" lon="-13.463454">
        <ele>200.880</ele>
        <time>2020-05-02T10:21:44Z</time>
      </trkpt>
      <trkpt lat="29.195398" lon="-13.463448">
        <ele>200.019</ele>
        <time>2020-05-02T10:21:52Z</time>
      </trkpt>
      <trkpt lat="29.195459" lon="-13.463426">
        <ele>200.260</ele>
        <time>2020-05-02T10:21:56Z</time>
      </trkpt>
      <trkpt lat="29.195529" lon="-13.463397">
        <ele>200.035</ele>
        <time>2020-05-02T10:22:05Z</time>
      </trkpt>
      <trkpt lat="29.195557" lon="-13.463386">
        <ele>200.293</ele>
        <time>2020-05-02T10:22:07Z</time>
      </trkpt>
      <trkpt lat="29.195646" lon="-13.463336">
        <ele>200.647</ele>
        <time>2020-05-02T10:22:14Z</time>
      </trkpt>
      <trkpt lat="29.195720" lon="-13.463447">
        <ele>200.823</ele>
        <time>2020-05-02T10:23:38Z</time>
      </trkpt>
      <trkpt lat="29.195742" lon="-13.463448">
        <ele>201.094</ele>
        <time>2020-05-02T10:23:40Z</time>
      </trkpt>
      <trkpt lat="29.195754" lon="-13.463450">
        <ele>201.257</ele>
        <time>2020-05-02T10:23:41Z</time>
      </trkpt>
      <trkpt lat="29.195766" lon="-13.463448">
        <ele>201.222</ele>
        <time>2020-05-02T10:23:42Z</time>
      </trkpt>
      <trkpt lat="29.195787" lon="-13.463444">
        <ele>201.408</ele>
        <time>2020-05-02T10:23:44Z</time>
      </trkpt>
      <trkpt lat="29.195906" lon="-13.463437">
        <ele>201.673</ele>
        <time>2020-05-02T10:23:52Z</time>
      </trkpt>
      <trkpt lat="29.195973" lon="-13.463435">
        <ele>202.287</ele>
        <time>2020-05-02T10:23:55Z</time>
      </trkpt>
      <trkpt lat="29.196040" lon="-13.463428">
        <ele>203.426</ele>
        <time>2020-05-02T10:23:58Z</time>
      </trkpt>
      <trkpt lat="29.196116" lon="-13.463431">
        <ele>204.277</ele>
        <time>2020-05-02T10:24:01Z</time>
      </trkpt>
      <trkpt lat="29.196138" lon="-13.463428">
        <ele>204.612</ele>
        <time>2020-05-02T10:24:02Z</time>
      </trkpt>
      <trkpt lat="29.196157" lon="-13.463424">
        <ele>205.090</ele>
        <time>2020-05-02T10:24:03Z</time>
      </trkpt>
      <trkpt lat="29.196184" lon="-13.463412">
        <ele>205.424</ele>
        <time>2020-05-02T10:24:06Z</time>
      </trkpt>
      <trkpt lat="29.196192" lon="-13.463413">
        <ele>205.470</ele>
        <time>2020-05-02T10:24:07Z</time>
      </trkpt>
      <trkpt lat="29.196234" lon="-13.463412">
        <ele>205.854</ele>
        <time>2020-05-02T10:24:11Z</time>
      </trkpt>
      <trkpt lat="29.196280" lon="-13.463391">
        <ele>205.856</ele>
        <time>2020-05-02T10:24:14Z</time>
      </trkpt>
      <trkpt lat="29.196361" lon="-13.463297">
        <ele>206.211</ele>
        <time>2020-05-02T10:24:19Z</time>
      </trkpt>
      <trkpt lat="29.196384" lon="-13.463285">
        <ele>206.208</ele>
        <time>2020-05-02T10:24:20Z</time>
      </trkpt>
      <trkpt lat="29.196451" lon="-13.463274">
        <ele>206.829</ele>
        <time>2020-05-02T10:24:23Z</time>
      </trkpt>
      <trkpt lat="29.196531" lon="-13.463266">
        <ele>207.623</ele>
        <time>2020-05-02T10:24:27Z</time>
      </trkpt>
      <trkpt lat="29.196550" lon="-13.463261">
        <ele>207.672</ele>
        <time>2020-05-02T10:24:28Z</time>
      </trkpt>
      <trkpt lat="29.196583" lon="-13.463252">
        <ele>207.843</ele>
        <time>2020-05-02T10:24:30Z</time>
      </trkpt>
      <trkpt lat="29.196593" lon="-13.463241">
        <ele>207.868</ele>
        <time>2020-05-02T10:24:31Z</time>
      </trkpt>
      <trkpt lat="29.196614" lon="-13.463230">
        <ele>208.486</ele>
        <time>2020-05-02T10:24:33Z</time>
      </trkpt>
      <trkpt lat="29.196636" lon="-13.463215">
        <ele>209.050</ele>
        <time>2020-05-02T10:24:35Z</time>
      </trkpt>
      <trkpt lat="29.196676" lon="-13.463197">
        <ele>210.086</ele>
        <time>2020-05-02T10:24:39Z</time>
      </trkpt>
      <trkpt lat="29.196685" lon="-13.463195">
        <ele>210.495</ele>
        <time>2020-05-02T10:24:40Z</time>
      </trkpt>
      <trkpt lat="29.196715" lon="-13.463192">
        <ele>211.249</ele>
        <time>2020-05-02T10:24:43Z</time>
      </trkpt>
      <trkpt lat="29.196757" lon="-13.463175">
        <ele>212.023</ele>
        <time>2020-05-02T10:24:47Z</time>
      </trkpt>
      <trkpt lat="29.196769" lon="-13.463169">
        <ele>212.208</ele>
        <time>2020-05-02T10:24:48Z</time>
      </trkpt>
      <trkpt lat="29.196808" lon="-13.463167">
        <ele>212.823</ele>
        <time>2020-05-02T10:24:52Z</time>
      </trkpt>
      <trkpt lat="29.196817" lon="-13.463159">
        <ele>212.897</ele>
        <time>2020-05-02T10:24:53Z</time>
      </trkpt>
      <trkpt lat="29.196897" lon="-13.463108">
        <ele>212.636</ele>
        <time>2020-05-02T10:25:00Z</time>
      </trkpt>
      <trkpt lat="29.197004" lon="-13.463135">
        <ele>212.297</ele>
        <time>2020-05-02T10:25:07Z</time>
      </trkpt>
      <trkpt lat="29.197080" lon="-13.463177">
        <ele>212.032</ele>
        <time>2020-05-02T10:25:12Z</time>
      </trkpt>
      <trkpt lat="29.197105" lon="-13.463193">
        <ele>212.070</ele>
        <time>2020-05-02T10:25:14Z</time>
      </trkpt>
      <trkpt lat="29.197190" lon="-13.463231">
        <ele>212.854</ele>
        <time>2020-05-02T10:25:21Z</time>
      </trkpt>
      <trkpt lat="29.197216" lon="-13.463224">
        <ele>213.260</ele>
        <time>2020-05-02T10:25:23Z</time>
      </trkpt>
      <trkpt lat="29.197280" lon="-13.463225">
        <ele>213.686</ele>
        <time>2020-05-02T10:25:28Z</time>
      </trkpt>
      <trkpt lat="29.197363" lon="-13.463296">
        <ele>214.060</ele>
        <time>2020-05-02T10:25:35Z</time>
      </trkpt>
      <trkpt lat="29.197389" lon="-13.463319">
        <ele>214.426</ele>
        <time>2020-05-02T10:25:37Z</time>
      </trkpt>
      <trkpt lat="29.197443" lon="-13.463378">
        <ele>215.408</ele>
        <time>2020-05-02T10:25:42Z</time>
      </trkpt>
      <trkpt lat="29.197464" lon="-13.463415">
        <ele>216.622</ele>
        <time>2020-05-02T10:25:45Z</time>
      </trkpt>
      <trkpt lat="29.197494" lon="-13.463447">
        <ele>217.686</ele>
        <time>2020-05-02T10:25:48Z</time>
      </trkpt>
      <trkpt lat="29.197507" lon="-13.463458">
        <ele>217.865</ele>
        <time>2020-05-02T10:25:49Z</time>
      </trkpt>
      <trkpt lat="29.197573" lon="-13.463503">
        <ele>219.096</ele>
        <time>2020-05-02T10:25:54Z</time>
      </trkpt>
      <trkpt lat="29.197600" lon="-13.463516">
        <ele>219.421</ele>
        <time>2020-05-02T10:25:56Z</time>
      </trkpt>
      <trkpt lat="29.197660" lon="-13.463529">
        <ele>220.039</ele>
        <time>2020-05-02T10:26:00Z</time>
      </trkpt>
      <trkpt lat="29.197709" lon="-13.463516">
        <ele>221.213</ele>
        <time>2020-05-02T10:26:03Z</time>
      </trkpt>
      <trkpt lat="29.197743" lon="-13.463460">
        <ele>222.289</ele>
        <time>2020-05-02T10:26:07Z</time>
      </trkpt>
      <trkpt lat="29.197755" lon="-13.463432">
        <ele>222.851</ele>
        <time>2020-05-02T10:26:09Z</time>
      </trkpt>
      <trkpt lat="29.197803" lon="-13.463328">
        <ele>223.401</ele>
        <time>2020-05-02T10:26:16Z</time>
      </trkpt>
      <trkpt lat="29.197857" lon="-13.463238">
        <ele>224.211</ele>
        <time>2020-05-02T10:26:23Z</time>
      </trkpt>
      <trkpt lat="29.197952" lon="-13.463190">
        <ele>224.408</ele>
        <time>2020-05-02T10:26:30Z</time>
      </trkpt>
      <trkpt lat="29.197964" lon="-13.463185">
        <ele>224.499</ele>
        <time>2020-05-02T10:26:31Z</time>
      </trkpt>
      <trkpt lat="29.198022" lon="-13.463150">
        <ele>223.813</ele>
        <time>2020-05-02T10:26:36Z</time>
      </trkpt>
      <trkpt lat="29.198044" lon="-13.463135">
        <ele>223.652</ele>
        <time>2020-05-02T10:26:38Z</time>
      </trkpt>
      <trkpt lat="29.198105" lon="-13.463124">
        <ele>223.283</ele>
        <time>2020-05-02T10:26:42Z</time>
      </trkpt>
      <trkpt lat="29.198151" lon="-13.463113">
        <ele>223.068</ele>
        <time>2020-05-02T10:26:45Z</time>
      </trkpt>
      <trkpt lat="29.198245" lon="-13.463089">
        <ele>222.496</ele>
        <time>2020-05-02T10:26:51Z</time>
      </trkpt>
      <trkpt lat="29.198277" lon="-13.463079">
        <ele>222.480</ele>
        <time>2020-05-02T10:26:53Z</time>
      </trkpt>
      <trkpt lat="29.198388" lon="-13.463047">
        <ele>222.616</ele>
        <time>2020-05-02T10:27:00Z</time>
      </trkpt>
      <trkpt lat="29.198571" lon="-13.463021">
        <ele>222.818</ele>
        <time>2020-05-02T10:27:10Z</time>
      </trkpt>
      <trkpt lat="29.198674" lon="-13.463016">
        <ele>222.898</ele>
        <time>2020-05-02T10:27:16Z</time>
      </trkpt>
      <trkpt lat="29.198686" lon="-13.463026">
        <ele>223.017</ele>
        <time>2020-05-02T10:27:17Z</time>
      </trkpt>
      <trkpt lat="29.198752" lon="-13.463130">
        <ele>224.408</ele>
        <time>2020-05-02T10:27:24Z</time>
      </trkpt>
      <trkpt lat="29.198760" lon="-13.463143">
        <ele>224.625</ele>
        <time>2020-05-02T10:27:25Z</time>
      </trkpt>
      <trkpt lat="29.198807" lon="-13.463213">
        <ele>225.659</ele>
        <time>2020-05-02T10:27:30Z</time>
      </trkpt>
      <trkpt lat="29.198842" lon="-13.463245">
        <ele>226.028</ele>
        <time>2020-05-02T10:27:33Z</time>
      </trkpt>
      <trkpt lat="29.198863" lon="-13.463269">
        <ele>226.669</ele>
        <time>2020-05-02T10:27:35Z</time>
      </trkpt>
      <trkpt lat="29.198916" lon="-13.463335">
        <ele>227.694</ele>
        <time>2020-05-02T10:27:40Z</time>
      </trkpt>
      <trkpt lat="29.198949" lon="-13.463370">
        <ele>228.442</ele>
        <time>2020-05-02T10:27:43Z</time>
      </trkpt>
      <trkpt lat="29.198970" lon="-13.463396">
        <ele>228.876</ele>
        <time>2020-05-02T10:27:45Z</time>
      </trkpt>
      <trkpt lat="29.199046" lon="-13.463452">
        <ele>229.832</ele>
        <time>2020-05-02T10:27:51Z</time>
      </trkpt>
      <trkpt lat="29.199059" lon="-13.463460">
        <ele>230.093</ele>
        <time>2020-05-02T10:27:52Z</time>
      </trkpt>
      <trkpt lat="29.199117" lon="-13.463494">
        <ele>230.865</ele>
        <time>2020-05-02T10:27:56Z</time>
      </trkpt>
      <trkpt lat="29.199150" lon="-13.463504">
        <ele>230.821</ele>
        <time>2020-05-02T10:27:58Z</time>
      </trkpt>
      <trkpt lat="29.199196" lon="-13.463522">
        <ele>231.808</ele>
        <time>2020-05-02T10:28:01Z</time>
      </trkpt>
      <trkpt lat="29.199210" lon="-13.463529">
        <ele>232.243</ele>
        <time>2020-05-02T10:28:02Z</time>
      </trkpt>
      <trkpt lat="29.199284" lon="-13.463547">
        <ele>234.657</ele>
        <time>2020-05-02T10:28:07Z</time>
      </trkpt>
      <trkpt lat="29.199327" lon="-13.463551">
        <ele>235.656</ele>
        <time>2020-05-02T10:28:10Z</time>
      </trkpt>
      <trkpt lat="29.199341" lon="-13.463552">
        <ele>235.867</ele>
        <time>2020-05-02T10:28:11Z</time>
      </trkpt>
      <trkpt lat="29.199411" lon="-13.463541">
        <ele>236.072</ele>
        <time>2020-05-02T10:28:16Z</time>
      </trkpt>
      <trkpt lat="29.199455" lon="-13.463527">
        <ele>237.030</ele>
        <time>2020-05-02T10:28:19Z</time>
      </trkpt>
      <trkpt lat="29.199510" lon="-13.463509">
        <ele>237.894</ele>
        <time>2020-05-02T10:28:23Z</time>
      </trkpt>
      <trkpt lat="29.199524" lon="-13.463505">
        <ele>238.290</ele>
        <time>2020-05-02T10:28:24Z</time>
      </trkpt>
      <trkpt lat="29.199603" lon="-13.463484">
        <ele>239.473</ele>
        <time>2020-05-02T10:28:30Z</time>
      </trkpt>
      <trkpt lat="29.199617" lon="-13.463475">
        <ele>239.685</ele>
        <time>2020-05-02T10:28:31Z</time>
      </trkpt>
      <trkpt lat="29.199655" lon="-13.463382">
        <ele>240.013</ele>
        <time>2020-05-02T10:28:37Z</time>
      </trkpt>
      <trkpt lat="29.199647" lon="-13.463259">
        <ele>238.408</ele>
        <time>2020-05-02T10:28:43Z</time>
      </trkpt>
      <trkpt lat="29.199631" lon="-13.463216">
        <ele>238.031</ele>
        <time>2020-05-02T10:28:45Z</time>
      </trkpt>
      <trkpt lat="29.199593" lon="-13.463086">
        <ele>237.215</ele>
        <time>2020-05-02T10:28:52Z</time>
      </trkpt>
      <trkpt lat="29.199570" lon="-13.462980">
        <ele>236.654</ele>
        <time>2020-05-02T10:28:58Z</time>
      </trkpt>
      <trkpt lat="29.199559" lon="-13.462951">
        <ele>236.025</ele>
        <time>2020-05-02T10:29:00Z</time>
      </trkpt>
      <trkpt lat="29.199547" lon="-13.462888">
        <ele>235.630</ele>
        <time>2020-05-02T10:29:04Z</time>
      </trkpt>
      <trkpt lat="29.199535" lon="-13.462845">
        <ele>235.868</ele>
        <time>2020-05-02T10:29:07Z</time>
      </trkpt>
      <trkpt lat="29.199518" lon="-13.462786">
        <ele>234.892</ele>
        <time>2020-05-02T10:29:11Z</time>
      </trkpt>
      <trkpt lat="29.199504" lon="-13.462731">
        <ele>234.418</ele>
        <time>2020-05-02T10:29:14Z</time>
      </trkpt>
      <trkpt lat="29.199479" lon="-13.462641">
        <ele>234.255</ele>
        <time>2020-05-02T10:29:19Z</time>
      </trkpt>
      <trkpt lat="29.199461" lon="-13.462586">
        <ele>233.607</ele>
        <time>2020-05-02T10:29:23Z</time>
      </trkpt>
      <trkpt lat="29.199449" lon="-13.462533">
        <ele>232.417</ele>
        <time>2020-05-02T10:29:26Z</time>
      </trkpt>
      <trkpt lat="29.199427" lon="-13.462445">
        <ele>232.208</ele>
        <time>2020-05-02T10:29:31Z</time>
      </trkpt>
      <trkpt lat="29.199417" lon="-13.462395">
        <ele>232.219</ele>
        <time>2020-05-02T10:29:34Z</time>
      </trkpt>
      <trkpt lat="29.199366" lon="-13.462268">
        <ele>230.843</ele>
        <time>2020-05-02T10:31:15Z</time>
      </trkpt>
      <trkpt lat="29.199363" lon="-13.462264">
        <ele>230.482</ele>
        <time>2020-05-02T10:31:16Z</time>
      </trkpt>
      <trkpt lat="29.199355" lon="-13.462223">
        <ele>229.023</ele>
        <time>2020-05-02T10:31:18Z</time>
      </trkpt>
      <trkpt lat="29.199348" lon="-13.462189">
        <ele>228.648</ele>
        <time>2020-05-02T10:31:19Z</time>
      </trkpt>
      <trkpt lat="29.199328" lon="-13.462118">
        <ele>228.016</ele>
        <time>2020-05-02T10:31:21Z</time>
      </trkpt>
      <trkpt lat="29.199305" lon="-13.461962">
        <ele>227.060</ele>
        <time>2020-05-02T10:31:25Z</time>
      </trkpt>
      <trkpt lat="29.199264" lon="-13.461775">
        <ele>225.876</ele>
        <time>2020-05-02T10:31:30Z</time>
      </trkpt>
      <trkpt lat="29.199257" lon="-13.461744">
        <ele>225.477</ele>
        <time>2020-05-02T10:31:31Z</time>
      </trkpt>
      <trkpt lat="29.199213" lon="-13.461579">
        <ele>224.661</ele>
        <time>2020-05-02T10:31:36Z</time>
      </trkpt>
      <trkpt lat="29.199202" lon="-13.461540">
        <ele>224.627</ele>
        <time>2020-05-02T10:31:37Z</time>
      </trkpt>
      <trkpt lat="29.199176" lon="-13.461468">
        <ele>223.408</ele>
        <time>2020-05-02T10:31:39Z</time>
      </trkpt>
      <trkpt lat="29.199125" lon="-13.461362">
        <ele>222.271</ele>
        <time>2020-05-02T10:31:42Z</time>
      </trkpt>
      <trkpt lat="29.199109" lon="-13.461330">
        <ele>222.095</ele>
        <time>2020-05-02T10:31:43Z</time>
      </trkpt>
      <trkpt lat="29.199072" lon="-13.461227">
        <ele>221.294</ele>
        <time>2020-05-02T10:31:46Z</time>
      </trkpt>
      <trkpt lat="29.198994" lon="-13.461049">
        <ele>220.645</ele>
        <time>2020-05-02T10:31:51Z</time>
      </trkpt>
      <trkpt lat="29.198923" lon="-13.460861">
        <ele>220.240</ele>
        <time>2020-05-02T10:31:56Z</time>
      </trkpt>
      <trkpt lat="29.198906" lon="-13.460823">
        <ele>219.898</ele>
        <time>2020-05-02T10:31:57Z</time>
      </trkpt>
      <trkpt lat="29.198854" lon="-13.460684">
        <ele>218.672</ele>
        <time>2020-05-02T10:32:01Z</time>
      </trkpt>
      <trkpt lat="29.198811" lon="-13.460582">
        <ele>217.628</ele>
        <time>2020-05-02T10:32:04Z</time>
      </trkpt>
      <trkpt lat="29.198793" lon="-13.460550">
        <ele>217.091</ele>
        <time>2020-05-02T10:32:05Z</time>
      </trkpt>
      <trkpt lat="29.198767" lon="-13.460478">
        <ele>216.081</ele>
        <time>2020-05-02T10:32:07Z</time>
      </trkpt>
      <trkpt lat="29.198723" lon="-13.460369">
        <ele>215.019</ele>
        <time>2020-05-02T10:32:10Z</time>
      </trkpt>
      <trkpt lat="29.198708" lon="-13.460333">
        <ele>214.808</ele>
        <time>2020-05-02T10:32:11Z</time>
      </trkpt>
      <trkpt lat="29.198616" lon="-13.460133">
        <ele>214.073</ele>
        <time>2020-05-02T10:32:17Z</time>
      </trkpt>
      <trkpt lat="29.198604" lon="-13.460096">
        <ele>214.087</ele>
        <time>2020-05-02T10:32:18Z</time>
      </trkpt>
      <trkpt lat="29.198524" lon="-13.459891">
        <ele>213.216</ele>
        <time>2020-05-02T10:32:24Z</time>
      </trkpt>
      <trkpt lat="29.198515" lon="-13.459859">
        <ele>212.817</ele>
        <time>2020-05-02T10:32:25Z</time>
      </trkpt>
      <trkpt lat="29.198501" lon="-13.459796">
        <ele>211.622</ele>
        <time>2020-05-02T10:32:27Z</time>
      </trkpt>
      <trkpt lat="29.198452" lon="-13.459675">
        <ele>211.030</ele>
        <time>2020-05-02T10:32:31Z</time>
      </trkpt>
      <trkpt lat="29.198416" lon="-13.459598">
        <ele>210.274</ele>
        <time>2020-05-02T10:32:34Z</time>
      </trkpt>
      <trkpt lat="29.198410" lon="-13.459539">
        <ele>209.040</ele>
        <time>2020-05-02T10:32:36Z</time>
      </trkpt>
      <trkpt lat="29.198411" lon="-13.459505">
        <ele>208.055</ele>
        <time>2020-05-02T10:32:37Z</time>
      </trkpt>
      <trkpt lat="29.198414" lon="-13.459468">
        <ele>207.207</ele>
        <time>2020-05-02T10:32:38Z</time>
      </trkpt>
      <trkpt lat="29.198420" lon="-13.459391">
        <ele>206.217</ele>
        <time>2020-05-02T10:32:40Z</time>
      </trkpt>
      <trkpt lat="29.198433" lon="-13.459315">
        <ele>204.808</ele>
        <time>2020-05-02T10:32:42Z</time>
      </trkpt>
      <trkpt lat="29.198455" lon="-13.459237">
        <ele>203.869</ele>
        <time>2020-05-02T10:32:44Z</time>
      </trkpt>
      <trkpt lat="29.198471" lon="-13.459196">
        <ele>203.243</ele>
        <time>2020-05-02T10:32:45Z</time>
      </trkpt>
      <trkpt lat="29.198503" lon="-13.459102">
        <ele>201.672</ele>
        <time>2020-05-02T10:32:47Z</time>
      </trkpt>
      <trkpt lat="29.198517" lon="-13.459056">
        <ele>201.093</ele>
        <time>2020-05-02T10:32:48Z</time>
      </trkpt>
      <trkpt lat="29.198534" lon="-13.459012">
        <ele>200.648</ele>
        <time>2020-05-02T10:32:49Z</time>
      </trkpt>
      <trkpt lat="29.198560" lon="-13.458923">
        <ele>199.286</ele>
        <time>2020-05-02T10:32:51Z</time>
      </trkpt>
      <trkpt lat="29.198564" lon="-13.458882">
        <ele>197.840</ele>
        <time>2020-05-02T10:32:52Z</time>
      </trkpt>
      <trkpt lat="29.198570" lon="-13.458841">
        <ele>196.296</ele>
        <time>2020-05-02T10:32:53Z</time>
      </trkpt>
      <trkpt lat="29.198586" lon="-13.458754">
        <ele>194.621</ele>
        <time>2020-05-02T10:32:55Z</time>
      </trkpt>
      <trkpt lat="29.198593" lon="-13.458707">
        <ele>193.441</ele>
        <time>2020-05-02T10:32:56Z</time>
      </trkpt>
      <trkpt lat="29.198606" lon="-13.458620">
        <ele>191.605</ele>
        <time>2020-05-02T10:32:58Z</time>
      </trkpt>
      <trkpt lat="29.198612" lon="-13.458534">
        <ele>189.808</ele>
        <time>2020-05-02T10:33:00Z</time>
      </trkpt>
      <trkpt lat="29.198608" lon="-13.458492">
        <ele>188.626</ele>
        <time>2020-05-02T10:33:01Z</time>
      </trkpt>
      <trkpt lat="29.198603" lon="-13.458450">
        <ele>187.410</ele>
        <time>2020-05-02T10:33:02Z</time>
      </trkpt>
      <trkpt lat="29.198603" lon="-13.458413">
        <ele>186.449</ele>
        <time>2020-05-02T10:33:03Z</time>
      </trkpt>
      <trkpt lat="29.198615" lon="-13.458373">
        <ele>185.860</ele>
        <time>2020-05-02T10:33:04Z</time>
      </trkpt>
      <trkpt lat="29.198630" lon="-13.458335">
        <ele>185.285</ele>
        <time>2020-05-02T10:33:05Z</time>
      </trkpt>
      <trkpt lat="29.198660" lon="-13.458253">
        <ele>184.033</ele>
        <time>2020-05-02T10:33:07Z</time>
      </trkpt>
      <trkpt lat="29.198673" lon="-13.458162">
        <ele>182.487</ele>
        <time>2020-05-02T10:33:09Z</time>
      </trkpt>
      <trkpt lat="29.198676" lon="-13.458117">
        <ele>181.073</ele>
        <time>2020-05-02T10:33:10Z</time>
      </trkpt>
      <trkpt lat="29.198679" lon="-13.458074">
        <ele>179.897</ele>
        <time>2020-05-02T10:33:11Z</time>
      </trkpt>
      <trkpt lat="29.198682" lon="-13.458031">
        <ele>178.823</ele>
        <time>2020-05-02T10:33:12Z</time>
      </trkpt>
      <trkpt lat="29.198687" lon="-13.457988">
        <ele>177.625</ele>
        <time>2020-05-02T10:33:13Z</time>
      </trkpt>
      <trkpt lat="29.198695" lon="-13.457944">
        <ele>176.608</ele>
        <time>2020-05-02T10:33:14Z</time>
      </trkpt>
      <trkpt lat="29.198707" lon="-13.457858">
        <ele>175.273</ele>
        <time>2020-05-02T10:33:16Z</time>
      </trkpt>
      <trkpt lat="29.198707" lon="-13.457761">
        <ele>173.887</ele>
        <time>2020-05-02T10:33:18Z</time>
      </trkpt>
      <trkpt lat="29.198707" lon="-13.457667">
        <ele>171.816</ele>
        <time>2020-05-02T10:33:20Z</time>
      </trkpt>
      <trkpt lat="29.198705" lon="-13.457622">
        <ele>170.657</ele>
        <time>2020-05-02T10:33:21Z</time>
      </trkpt>
      <trkpt lat="29.198707" lon="-13.457576">
        <ele>169.672</ele>
        <time>2020-05-02T10:33:22Z</time>
      </trkpt>
      <trkpt lat="29.198712" lon="-13.457528">
        <ele>168.670</ele>
        <time>2020-05-02T10:33:23Z</time>
      </trkpt>
      <trkpt lat="29.198719" lon="-13.457436">
        <ele>167.244</ele>
        <time>2020-05-02T10:33:25Z</time>
      </trkpt>
      <trkpt lat="29.198720" lon="-13.457347">
        <ele>165.860</ele>
        <time>2020-05-02T10:33:27Z</time>
      </trkpt>
      <trkpt lat="29.198716" lon="-13.457302">
        <ele>164.852</ele>
        <time>2020-05-02T10:33:28Z</time>
      </trkpt>
      <trkpt lat="29.198714" lon="-13.457212">
        <ele>163.653</ele>
        <time>2020-05-02T10:33:30Z</time>
      </trkpt>
      <trkpt lat="29.198715" lon="-13.457079">
        <ele>162.608</ele>
        <time>2020-05-02T10:33:33Z</time>
      </trkpt>
      <trkpt lat="29.198713" lon="-13.456993">
        <ele>161.208</ele>
        <time>2020-05-02T10:33:35Z</time>
      </trkpt>
      <trkpt lat="29.198712" lon="-13.456906">
        <ele>160.069</ele>
        <time>2020-05-02T10:33:37Z</time>
      </trkpt>
      <trkpt lat="29.198722" lon="-13.456824">
        <ele>158.663</ele>
        <time>2020-05-02T10:33:39Z</time>
      </trkpt>
      <trkpt lat="29.198738" lon="-13.456703">
        <ele>157.662</ele>
        <time>2020-05-02T10:33:42Z</time>
      </trkpt>
      <trkpt lat="29.198734" lon="-13.456620">
        <ele>156.843</ele>
        <time>2020-05-02T10:33:44Z</time>
      </trkpt>
      <trkpt lat="29.198730" lon="-13.456581">
        <ele>156.268</ele>
        <time>2020-05-02T10:33:45Z</time>
      </trkpt>
      <trkpt lat="29.198727" lon="-13.456468">
        <ele>154.866</ele>
        <time>2020-05-02T10:33:48Z</time>
      </trkpt>
      <trkpt lat="29.198728" lon="-13.456391">
        <ele>154.010</ele>
        <time>2020-05-02T10:33:50Z</time>
      </trkpt>
      <trkpt lat="29.198726" lon="-13.456351">
        <ele>153.646</ele>
        <time>2020-05-02T10:33:51Z</time>
      </trkpt>
      <trkpt lat="29.198715" lon="-13.456148">
        <ele>153.047</ele>
        <time>2020-05-02T10:33:56Z</time>
      </trkpt>
      <trkpt lat="29.198725" lon="-13.456070">
        <ele>152.629</ele>
        <time>2020-05-02T10:33:58Z</time>
      </trkpt>
      <trkpt lat="29.198756" lon="-13.455958">
        <ele>151.821</ele>
        <time>2020-05-02T10:34:01Z</time>
      </trkpt>
      <trkpt lat="29.198766" lon="-13.455917">
        <ele>151.408</ele>
        <time>2020-05-02T10:34:02Z</time>
      </trkpt>
      <trkpt lat="29.198774" lon="-13.455791">
        <ele>150.098</ele>
        <time>2020-05-02T10:34:05Z</time>
      </trkpt>
      <trkpt lat="29.198770" lon="-13.455711">
        <ele>149.072</ele>
        <time>2020-05-02T10:34:07Z</time>
      </trkpt>
      <trkpt lat="29.198768" lon="-13.455672">
        <ele>148.671</ele>
        <time>2020-05-02T10:34:08Z</time>
      </trkpt>
      <trkpt lat="29.198752" lon="-13.455518">
        <ele>147.462</ele>
        <time>2020-05-02T10:34:12Z</time>
      </trkpt>
      <trkpt lat="29.198740" lon="-13.455436">
        <ele>146.487</ele>
        <time>2020-05-02T10:34:14Z</time>
      </trkpt>
      <trkpt lat="29.198734" lon="-13.455397">
        <ele>146.095</ele>
        <time>2020-05-02T10:34:15Z</time>
      </trkpt>
      <trkpt lat="29.198723" lon="-13.455284">
        <ele>144.829</ele>
        <time>2020-05-02T10:34:18Z</time>
      </trkpt>
      <trkpt lat="29.198713" lon="-13.455204">
        <ele>143.695</ele>
        <time>2020-05-02T10:34:20Z</time>
      </trkpt>
      <trkpt lat="29.198708" lon="-13.455164">
        <ele>143.277</ele>
        <time>2020-05-02T10:34:21Z</time>
      </trkpt>
      <trkpt lat="29.198697" lon="-13.455041">
        <ele>142.461</ele>
        <time>2020-05-02T10:34:24Z</time>
      </trkpt>
      <trkpt lat="29.198688" lon="-13.454969">
        <ele>141.427</ele>
        <time>2020-05-02T10:34:26Z</time>
      </trkpt>
      <trkpt lat="29.198686" lon="-13.454932">
        <ele>140.808</ele>
        <time>2020-05-02T10:34:27Z</time>
      </trkpt>
      <trkpt lat="29.198682" lon="-13.454862">
        <ele>140.281</ele>
        <time>2020-05-02T10:34:29Z</time>
      </trkpt>
      <trkpt lat="29.198670" lon="-13.454764">
        <ele>139.025</ele>
        <time>2020-05-02T10:34:32Z</time>
      </trkpt>
      <trkpt lat="29.198664" lon="-13.454742">
        <ele>138.454</ele>
        <time>2020-05-02T10:34:33Z</time>
      </trkpt>
      <trkpt lat="29.198654" lon="-13.454735">
        <ele>138.065</ele>
        <time>2020-05-02T10:34:34Z</time>
      </trkpt>
      <trkpt lat="29.198605" lon="-13.454752">
        <ele>137.050</ele>
        <time>2020-05-02T10:34:56Z</time>
      </trkpt>
      <trkpt lat="29.198604" lon="-13.454737">
        <ele>137.018</ele>
        <time>2020-05-02T10:34:57Z</time>
      </trkpt>
      <trkpt lat="29.198601" lon="-13.454708">
        <ele>136.452</ele>
        <time>2020-05-02T10:34:59Z</time>
      </trkpt>
      <trkpt lat="29.198596" lon="-13.454692">
        <ele>136.038</ele>
        <time>2020-05-02T10:35:00Z</time>
      </trkpt>
      <trkpt lat="29.198571" lon="-13.454593">
        <ele>135.254</ele>
        <time>2020-05-02T10:35:05Z</time>
      </trkpt>
      <trkpt lat="29.198566" lon="-13.454576">
        <ele>135.056</ele>
        <time>2020-05-02T10:35:06Z</time>
      </trkpt>
      <trkpt lat="29.198560" lon="-13.454560">
        <ele>134.611</ele>
        <time>2020-05-02T10:35:07Z</time>
      </trkpt>
      <trkpt lat="29.198543" lon="-13.454527">
        <ele>134.008</ele>
        <time>2020-05-02T10:35:09Z</time>
      </trkpt>
      <trkpt lat="29.198518" lon="-13.454492">
        <ele>133.479</ele>
        <time>2020-05-02T10:35:12Z</time>
      </trkpt>
      <trkpt lat="29.198509" lon="-13.454477">
        <ele>133.273</ele>
        <time>2020-05-02T10:35:13Z</time>
      </trkpt>
      <trkpt lat="29.198479" lon="-13.454422">
        <ele>132.462</ele>
        <time>2020-05-02T10:35:17Z</time>
      </trkpt>
      <trkpt lat="29.198457" lon="-13.454377">
        <ele>132.223</ele>
        <time>2020-05-02T10:35:20Z</time>
      </trkpt>
      <trkpt lat="29.198413" lon="-13.454282">
        <ele>131.278</ele>
        <time>2020-05-02T10:35:26Z</time>
      </trkpt>
      <trkpt lat="29.198404" lon="-13.454270">
        <ele>131.016</ele>
        <time>2020-05-02T10:35:27Z</time>
      </trkpt>
      <trkpt lat="29.198369" lon="-13.454236">
        <ele>130.230</ele>
        <time>2020-05-02T10:35:30Z</time>
      </trkpt>
      <trkpt lat="29.198282" lon="-13.454184">
        <ele>129.866</ele>
        <time>2020-05-02T10:35:36Z</time>
      </trkpt>
      <trkpt lat="29.198224" lon="-13.454155">
        <ele>129.047</ele>
        <time>2020-05-02T10:35:40Z</time>
      </trkpt>
      <trkpt lat="29.198207" lon="-13.454138">
        <ele>128.629</ele>
        <time>2020-05-02T10:35:41Z</time>
      </trkpt>
      <trkpt lat="29.198180" lon="-13.454099">
        <ele>127.821</ele>
        <time>2020-05-02T10:35:43Z</time>
      </trkpt>
      <trkpt lat="29.198176" lon="-13.454076">
        <ele>127.408</ele>
        <time>2020-05-02T10:35:44Z</time>
      </trkpt>
      <trkpt lat="29.198191" lon="-13.454054">
        <ele>126.488</ele>
        <time>2020-05-02T10:35:46Z</time>
      </trkpt>
      <trkpt lat="29.198215" lon="-13.454043">
        <ele>125.032</ele>
        <time>2020-05-02T10:35:48Z</time>
      </trkpt>
      <trkpt lat="29.198253" lon="-13.454023">
        <ele>123.831</ele>
        <time>2020-05-02T10:35:51Z</time>
      </trkpt>
      <trkpt lat="29.198282" lon="-13.454011">
        <ele>123.692</ele>
        <time>2020-05-02T10:35:53Z</time>
      </trkpt>
      <trkpt lat="29.198349" lon="-13.453991">
        <ele>122.857</ele>
        <time>2020-05-02T10:35:57Z</time>
      </trkpt>
      <trkpt lat="29.198385" lon="-13.453977">
        <ele>121.665</ele>
        <time>2020-05-02T10:35:59Z</time>
      </trkpt>
      <trkpt lat="29.198414" lon="-13.453972">
        <ele>121.249</ele>
        <time>2020-05-02T10:36:01Z</time>
      </trkpt>
      <trkpt lat="29.198452" lon="-13.453959">
        <ele>120.625</ele>
        <time>2020-05-02T10:36:04Z</time>
      </trkpt>
      <trkpt lat="29.199550" lon="-13.454459">
        <ele>97.259</ele>
        <time>2020-05-02T10:38:15Z</time>
      </trkpt>
      <trkpt lat="29.199572" lon="-13.454385">
        <ele>97.003</ele>
        <time>2020-05-02T10:38:19Z</time>
      </trkpt>
      <trkpt lat="29.199541" lon="-13.454202">
        <ele>96.023</ele>
        <time>2020-05-02T10:38:22Z</time>
      </trkpt>
      <trkpt lat="29.199541" lon="-13.454137">
        <ele>95.408</ele>
        <time>2020-05-02T10:38:24Z</time>
      </trkpt>
      <trkpt lat="29.199540" lon="-13.454082">
        <ele>95.039</ele>
        <time>2020-05-02T10:38:26Z</time>
      </trkpt>
      <trkpt lat="29.199546" lon="-13.454048">
        <ele>94.293</ele>
        <time>2020-05-02T10:38:29Z</time>
      </trkpt>
      <trkpt lat="29.199549" lon="-13.454025">
        <ele>93.812</ele>
        <time>2020-05-02T10:38:31Z</time>
      </trkpt>
      <trkpt lat="29.199539" lon="-13.453961">
        <ele>93.073</ele>
        <time>2020-05-02T10:38:35Z</time>
      </trkpt>
      <trkpt lat="29.199539" lon="-13.453939">
        <ele>92.650</ele>
        <time>2020-05-02T10:38:36Z</time>
      </trkpt>
      <trkpt lat="29.199547" lon="-13.453893">
        <ele>91.610</ele>
        <time>2020-05-02T10:38:39Z</time>
      </trkpt>
      <trkpt lat="29.199540" lon="-13.453861">
        <ele>91.083</ele>
        <time>2020-05-02T10:38:41Z</time>
      </trkpt>
      <trkpt lat="29.199540" lon="-13.453844">
        <ele>90.864</ele>
        <time>2020-05-02T10:38:42Z</time>
      </trkpt>
      <trkpt lat="29.199538" lon="-13.453827">
        <ele>90.496</ele>
        <time>2020-05-02T10:38:43Z</time>
      </trkpt>
      <trkpt lat="29.199527" lon="-13.453757">
        <ele>89.231</ele>
        <time>2020-05-02T10:38:47Z</time>
      </trkpt>
      <trkpt lat="29.199535" lon="-13.453650">
        <ele>88.024</ele>
        <time>2020-05-02T10:38:53Z</time>
      </trkpt>
      <trkpt lat="29.199561" lon="-13.453633">
        <ele>87.408</ele>
        <time>2020-05-02T10:38:56Z</time>
      </trkpt>
      <trkpt lat="29.199584" lon="-13.453631">
        <ele>87.053</ele>
        <time>2020-05-02T10:38:58Z</time>
      </trkpt>
      <trkpt lat="29.199597" lon="-13.453630">
        <ele>86.697</ele>
        <time>2020-05-02T10:38:59Z</time>
      </trkpt>
      <trkpt lat="29.199647" lon="-13.453634">
        <ele>85.686</ele>
        <time>2020-05-02T10:39:03Z</time>
      </trkpt>
      <trkpt lat="29.199667" lon="-13.453641">
        <ele>85.457</ele>
        <time>2020-05-02T10:39:05Z</time>
      </trkpt>
      <trkpt lat="29.199723" lon="-13.453645">
        <ele>84.494</ele>
        <time>2020-05-02T10:39:09Z</time>
      </trkpt>
      <trkpt lat="29.199768" lon="-13.453654">
        <ele>84.044</ele>
        <time>2020-05-02T10:39:12Z</time>
      </trkpt>
      <trkpt lat="29.199810" lon="-13.453657">
        <ele>83.277</ele>
        <time>2020-05-02T10:39:15Z</time>
      </trkpt>
      <trkpt lat="29.199892" lon="-13.453669">
        <ele>82.298</ele>
        <time>2020-05-02T10:39:20Z</time>
      </trkpt>
      <trkpt lat="29.199908" lon="-13.453671">
        <ele>82.283</ele>
        <time>2020-05-02T10:39:21Z</time>
      </trkpt>
      <trkpt lat="29.200020" lon="-13.453688">
        <ele>81.225</ele>
        <time>2020-05-02T10:39:28Z</time>
      </trkpt>
      <trkpt lat="29.200049" lon="-13.453692">
        <ele>81.017</ele>
        <time>2020-05-02T10:39:30Z</time>
      </trkpt>
      <trkpt lat="29.200102" lon="-13.453710">
        <ele>79.808</ele>
        <time>2020-05-02T10:39:33Z</time>
      </trkpt>
      <trkpt lat="29.200145" lon="-13.453707">
        <ele>79.662</ele>
        <time>2020-05-02T10:39:35Z</time>
      </trkpt>
      <trkpt lat="29.200211" lon="-13.453716">
        <ele>79.486</ele>
        <time>2020-05-02T10:39:38Z</time>
      </trkpt>
      <trkpt lat="29.200273" lon="-13.453723">
        <ele>79.685</ele>
        <time>2020-05-02T10:39:40Z</time>
      </trkpt>
      <trkpt lat="29.200450" lon="-13.453759">
        <ele>78.616</ele>
        <time>2020-05-02T10:39:46Z</time>
      </trkpt>
      <trkpt lat="29.200480" lon="-13.453763">
        <ele>78.273</ele>
        <time>2020-05-02T10:39:47Z</time>
      </trkpt>
      <trkpt lat="29.200538" lon="-13.453771">
        <ele>77.633</ele>
        <time>2020-05-02T10:39:49Z</time>
      </trkpt>
      <trkpt lat="29.200645" lon="-13.453817">
        <ele>76.896</ele>
        <time>2020-05-02T10:39:53Z</time>
      </trkpt>
      <trkpt lat="29.200700" lon="-13.453840">
        <ele>76.447</ele>
        <time>2020-05-02T10:39:55Z</time>
      </trkpt>
      <trkpt lat="29.200801" lon="-13.453857">
        <ele>76.098</ele>
        <time>2020-05-02T10:39:58Z</time>
      </trkpt>
      <trkpt lat="29.200861" lon="-13.453875">
        <ele>75.415</ele>
        <time>2020-05-02T10:40:00Z</time>
      </trkpt>
      <trkpt lat="29.200939" lon="-13.453914">
        <ele>74.226</ele>
        <time>2020-05-02T10:40:03Z</time>
      </trkpt>
      <trkpt lat="29.200992" lon="-13.453941">
        <ele>73.808</ele>
        <time>2020-05-02T10:40:06Z</time>
      </trkpt>
      <trkpt lat="29.201047" lon="-13.453998">
        <ele>74.683</ele>
        <time>2020-05-02T10:40:11Z</time>
      </trkpt>
      <trkpt lat="29.201076" lon="-13.454032">
        <ele>75.287</ele>
        <time>2020-05-02T10:40:13Z</time>
      </trkpt>
      <trkpt lat="29.201090" lon="-13.454049">
        <ele>75.426</ele>
        <time>2020-05-02T10:40:14Z</time>
      </trkpt>
      <trkpt lat="29.201148" lon="-13.454143">
        <ele>75.887</ele>
        <time>2020-05-02T10:40:18Z</time>
      </trkpt>
      <trkpt lat="29.201208" lon="-13.454272">
        <ele>76.014</ele>
        <time>2020-05-02T10:40:23Z</time>
      </trkpt>
      <trkpt lat="29.201266" lon="-13.454409">
        <ele>76.264</ele>
        <time>2020-05-02T10:40:28Z</time>
      </trkpt>
      <trkpt lat="29.201278" lon="-13.454436">
        <ele>76.457</ele>
        <time>2020-05-02T10:40:29Z</time>
      </trkpt>
      <trkpt lat="29.201290" lon="-13.454462">
        <ele>76.488</ele>
        <time>2020-05-02T10:40:30Z</time>
      </trkpt>
      <trkpt lat="29.201349" lon="-13.454599">
        <ele>76.873</ele>
        <time>2020-05-02T10:40:35Z</time>
      </trkpt>
      <trkpt lat="29.201416" lon="-13.454774">
        <ele>77.685</ele>
        <time>2020-05-02T10:40:41Z</time>
      </trkpt>
      <trkpt lat="29.201425" lon="-13.454803">
        <ele>77.613</ele>
        <time>2020-05-02T10:40:42Z</time>
      </trkpt>
      <trkpt lat="29.201479" lon="-13.454932">
        <ele>78.408</ele>
        <time>2020-05-02T10:40:47Z</time>
      </trkpt>
      <trkpt lat="29.201491" lon="-13.454958">
        <ele>78.631</ele>
        <time>2020-05-02T10:40:48Z</time>
      </trkpt>
      <trkpt lat="29.201571" lon="-13.455151">
        <ele>78.825</ele>
        <time>2020-05-02T10:40:55Z</time>
      </trkpt>
      <trkpt lat="29.201615" lon="-13.455265">
        <ele>79.614</ele>
        <time>2020-05-02T10:40:59Z</time>
      </trkpt>
      <trkpt lat="29.201634" lon="-13.455314">
        <ele>80.635</ele>
        <time>2020-05-02T10:41:01Z</time>
      </trkpt>
      <trkpt lat="29.201643" lon="-13.455338">
        <ele>81.092</ele>
        <time>2020-05-02T10:41:02Z</time>
      </trkpt>
      <trkpt lat="29.201671" lon="-13.455413">
        <ele>82.082</ele>
        <time>2020-05-02T10:41:05Z</time>
      </trkpt>
      <trkpt lat="29.201700" lon="-13.455445">
        <ele>82.435</ele>
        <time>2020-05-02T10:41:07Z</time>
      </trkpt>
      <trkpt lat="29.201712" lon="-13.455451">
        <ele>82.646</ele>
        <time>2020-05-02T10:41:08Z</time>
      </trkpt>
      <trkpt lat="29.201784" lon="-13.455470">
        <ele>82.429</ele>
        <time>2020-05-02T10:41:12Z</time>
      </trkpt>
      <trkpt lat="29.201791" lon="-13.455479">
        <ele>82.600</ele>
        <time>2020-05-02T10:41:13Z</time>
      </trkpt>
      <trkpt lat="29.201803" lon="-13.455522">
        <ele>83.020</ele>
        <time>2020-05-02T10:41:17Z</time>
      </trkpt>
      <trkpt lat="29.201812" lon="-13.455533">
        <ele>83.008</ele>
        <time>2020-05-02T10:41:18Z</time>
      </trkpt>
      <trkpt lat="29.201849" lon="-13.455597">
        <ele>82.276</ele>
        <time>2020-05-02T10:41:21Z</time>
      </trkpt>
      <trkpt lat="29.201855" lon="-13.455614">
        <ele>81.620</ele>
        <time>2020-05-02T10:41:22Z</time>
      </trkpt>
      <trkpt lat="29.201893" lon="-13.455659">
        <ele>81.289</ele>
        <time>2020-05-02T10:41:26Z</time>
      </trkpt>
      <trkpt lat="29.201975" lon="-13.455705">
        <ele>81.650</ele>
        <time>2020-05-02T10:41:33Z</time>
      </trkpt>
      <trkpt lat="29.202033" lon="-13.455737">
        <ele>82.887</ele>
        <time>2020-05-02T10:41:38Z</time>
      </trkpt>
      <trkpt lat="29.202070" lon="-13.455761">
        <ele>82.857</ele>
        <time>2020-05-02T10:41:41Z</time>
      </trkpt>
      <trkpt lat="29.202147" lon="-13.455843">
        <ele>82.290</ele>
        <time>2020-05-02T10:41:47Z</time>
      </trkpt>
      <trkpt lat="29.202201" lon="-13.455917">
        <ele>82.891</ele>
        <time>2020-05-02T10:41:52Z</time>
      </trkpt>
      <trkpt lat="29.202251" lon="-13.455988">
        <ele>83.675</ele>
        <time>2020-05-02T10:41:57Z</time>
      </trkpt>
      <trkpt lat="29.202268" lon="-13.456011">
        <ele>83.828</ele>
        <time>2020-05-02T10:41:59Z</time>
      </trkpt>
      <trkpt lat="29.202337" lon="-13.456049">
        <ele>83.820</ele>
        <time>2020-05-02T10:42:04Z</time>
      </trkpt>
      <trkpt lat="29.202437" lon="-13.456048">
        <ele>83.808</ele>
        <time>2020-05-02T10:42:10Z</time>
      </trkpt>
      <trkpt lat="29.202512" lon="-13.456052">
        <ele>84.871</ele>
        <time>2020-05-02T10:42:15Z</time>
      </trkpt>
      <trkpt lat="29.202542" lon="-13.456061">
        <ele>84.665</ele>
        <time>2020-05-02T10:42:17Z</time>
      </trkpt>
      <trkpt lat="29.202671" lon="-13.456079">
        <ele>84.664</ele>
        <time>2020-05-02T10:42:25Z</time>
      </trkpt>
      <trkpt lat="29.202776" lon="-13.456112">
        <ele>84.865</ele>
        <time>2020-05-02T10:42:32Z</time>
      </trkpt>
      <trkpt lat="29.202853" lon="-13.456150">
        <ele>84.622</ele>
        <time>2020-05-02T10:42:38Z</time>
      </trkpt>
      <trkpt lat="29.202949" lon="-13.456148">
        <ele>85.662</ele>
        <time>2020-05-02T10:42:44Z</time>
      </trkpt>
      <trkpt lat="29.203060" lon="-13.456157">
        <ele>85.085</ele>
        <time>2020-05-02T10:42:51Z</time>
      </trkpt>
      <trkpt lat="29.203088" lon="-13.456162">
        <ele>85.076</ele>
        <time>2020-05-02T10:42:53Z</time>
      </trkpt>
      <trkpt lat="29.203137" lon="-13.456164">
        <ele>84.656</ele>
        <time>2020-05-02T10:42:56Z</time>
      </trkpt>
      <trkpt lat="29.203222" lon="-13.456163">
        <ele>83.859</ele>
        <time>2020-05-02T10:43:01Z</time>
      </trkpt>
      <trkpt lat="29.203290" lon="-13.456167">
        <ele>83.614</ele>
        <time>2020-05-02T10:43:05Z</time>
      </trkpt>
      <trkpt lat="29.203305" lon="-13.456164">
        <ele>83.608</ele>
        <time>2020-05-02T10:43:06Z</time>
      </trkpt>
      <trkpt lat="29.203399" lon="-13.456157">
        <ele>82.829</ele>
        <time>2020-05-02T10:43:12Z</time>
      </trkpt>
      <trkpt lat="29.203434" lon="-13.456156">
        <ele>82.643</ele>
        <time>2020-05-02T10:43:14Z</time>
      </trkpt>
      <trkpt lat="29.203515" lon="-13.456164">
        <ele>82.232</ele>
        <time>2020-05-02T10:43:19Z</time>
      </trkpt>
      <trkpt lat="29.203547" lon="-13.456158">
        <ele>82.053</ele>
        <time>2020-05-02T10:43:21Z</time>
      </trkpt>
      <trkpt lat="29.203609" lon="-13.456162">
        <ele>81.650</ele>
        <time>2020-05-02T10:43:25Z</time>
      </trkpt>
      <trkpt lat="29.203678" lon="-13.456163">
        <ele>81.060</ele>
        <time>2020-05-02T10:43:29Z</time>
      </trkpt>
      <trkpt lat="29.203716" lon="-13.456156">
        <ele>80.473</ele>
        <time>2020-05-02T10:43:31Z</time>
      </trkpt>
      <trkpt lat="29.203788" lon="-13.456149">
        <ele>79.854</ele>
        <time>2020-05-02T10:43:35Z</time>
      </trkpt>
      <trkpt lat="29.203806" lon="-13.456146">
        <ele>79.698</ele>
        <time>2020-05-02T10:43:36Z</time>
      </trkpt>
      <trkpt lat="29.203823" lon="-13.456145">
        <ele>79.415</ele>
        <time>2020-05-02T10:43:37Z</time>
      </trkpt>
      <trkpt lat="29.203898" lon="-13.456139">
        <ele>78.226</ele>
        <time>2020-05-02T10:43:41Z</time>
      </trkpt>
      <trkpt lat="29.203937" lon="-13.456134">
        <ele>78.008</ele>
        <time>2020-05-02T10:43:43Z</time>
      </trkpt>
      <trkpt lat="29.204023" lon="-13.456140">
        <ele>76.873</ele>
        <time>2020-05-02T10:43:48Z</time>
      </trkpt>
      <trkpt lat="29.204074" lon="-13.456139">
        <ele>76.057</ele>
        <time>2020-05-02T10:43:51Z</time>
      </trkpt>
      <trkpt lat="29.204122" lon="-13.456137">
        <ele>75.856</ele>
        <time>2020-05-02T10:43:54Z</time>
      </trkpt>
      <trkpt lat="29.204179" lon="-13.456138">
        <ele>75.067</ele>
        <time>2020-05-02T10:43:58Z</time>
      </trkpt>
      <trkpt lat="29.204208" lon="-13.456141">
        <ele>74.854</ele>
        <time>2020-05-02T10:44:00Z</time>
      </trkpt>
      <trkpt lat="29.204274" lon="-13.456128">
        <ele>74.474</ele>
        <time>2020-05-02T10:44:05Z</time>
      </trkpt>
      <trkpt lat="29.204330" lon="-13.456104">
        <ele>73.887</ele>
        <time>2020-05-02T10:44:09Z</time>
      </trkpt>
      <trkpt lat="29.204363" lon="-13.456095">
        <ele>73.468</ele>
        <time>2020-05-02T10:44:12Z</time>
      </trkpt>
      <trkpt lat="29.204389" lon="-13.456094">
        <ele>73.468</ele>
        <time>2020-05-02T10:44:14Z</time>
      </trkpt>
      <trkpt lat="29.204442" lon="-13.456104">
        <ele>72.842</ele>
        <time>2020-05-02T10:44:17Z</time>
      </trkpt>
      <trkpt lat="29.204461" lon="-13.456109">
        <ele>72.426</ele>
        <time>2020-05-02T10:44:18Z</time>
      </trkpt>
      <trkpt lat="29.204527" lon="-13.456118">
        <ele>71.608</ele>
        <time>2020-05-02T10:44:21Z</time>
      </trkpt>
      <trkpt lat="29.204628" lon="-13.456118">
        <ele>71.210</ele>
        <time>2020-05-02T10:44:24Z</time>
      </trkpt>
      <trkpt lat="29.204708" lon="-13.456114">
        <ele>70.464</ele>
        <time>2020-05-02T10:44:26Z</time>
      </trkpt>
      <trkpt lat="29.204786" lon="-13.456109">
        <ele>69.043</ele>
        <time>2020-05-02T10:44:28Z</time>
      </trkpt>
      <trkpt lat="29.204823" lon="-13.456105">
        <ele>68.434</ele>
        <time>2020-05-02T10:44:29Z</time>
      </trkpt>
      <trkpt lat="29.204858" lon="-13.456100">
        <ele>67.891</ele>
        <time>2020-05-02T10:44:30Z</time>
      </trkpt>
      <trkpt lat="29.204962" lon="-13.456066">
        <ele>66.891</ele>
        <time>2020-05-02T10:44:33Z</time>
      </trkpt>
      <trkpt lat="29.205024" lon="-13.456030">
        <ele>66.014</ele>
        <time>2020-05-02T10:44:35Z</time>
      </trkpt>
      <trkpt lat="29.205050" lon="-13.456009">
        <ele>65.685</ele>
        <time>2020-05-02T10:44:36Z</time>
      </trkpt>
      <trkpt lat="29.205103" lon="-13.455978">
        <ele>64.687</ele>
        <time>2020-05-02T10:44:38Z</time>
      </trkpt>
      <trkpt lat="29.205187" lon="-13.455959">
        <ele>63.642</ele>
        <time>2020-05-02T10:44:41Z</time>
      </trkpt>
      <trkpt lat="29.205215" lon="-13.455960">
        <ele>63.626</ele>
        <time>2020-05-02T10:44:42Z</time>
      </trkpt>
      <trkpt lat="29.205358" lon="-13.455965">
        <ele>62.408</ele>
        <time>2020-05-02T10:44:47Z</time>
      </trkpt>
      <trkpt lat="29.205526" lon="-13.455914">
        <ele>62.422</ele>
        <time>2020-05-02T10:44:53Z</time>
      </trkpt>
      <trkpt lat="29.205663" lon="-13.455901">
        <ele>61.896</ele>
        <time>2020-05-02T10:44:58Z</time>
      </trkpt>
      <trkpt lat="29.205691" lon="-13.455907">
        <ele>61.855</ele>
        <time>2020-05-02T10:44:59Z</time>
      </trkpt>
      <trkpt lat="29.205776" lon="-13.455912">
        <ele>61.496</ele>
        <time>2020-05-02T10:45:02Z</time>
      </trkpt>
      <trkpt lat="29.205858" lon="-13.455886">
        <ele>61.053</ele>
        <time>2020-05-02T10:45:05Z</time>
      </trkpt>
      <trkpt lat="29.205963" lon="-13.455787">
        <ele>60.433</ele>
        <time>2020-05-02T10:45:10Z</time>
      </trkpt>
      <trkpt lat="29.205975" lon="-13.455776">
        <ele>60.036</ele>
        <time>2020-05-02T10:45:11Z</time>
      </trkpt>
      <trkpt lat="29.206017" lon="-13.455734">
        <ele>59.217</ele>
        <time>2020-05-02T10:45:15Z</time>
      </trkpt>
      <trkpt lat="29.206049" lon="-13.455693">
        <ele>59.041</ele>
        <time>2020-05-02T10:45:18Z</time>
      </trkpt>
      <trkpt lat="29.206108" lon="-13.455633">
        <ele>58.481</ele>
        <time>2020-05-02T10:45:23Z</time>
      </trkpt>
      <trkpt lat="29.206133" lon="-13.455611">
        <ele>58.209</ele>
        <time>2020-05-02T10:45:25Z</time>
      </trkpt>
      <trkpt lat="29.206229" lon="-13.455502">
        <ele>57.608</ele>
        <time>2020-05-02T10:45:34Z</time>
      </trkpt>
      <trkpt lat="29.206242" lon="-13.455492">
        <ele>57.468</ele>
        <time>2020-05-02T10:45:35Z</time>
      </trkpt>
      <trkpt lat="29.206263" lon="-13.455475">
        <ele>57.282</ele>
        <time>2020-05-02T10:45:37Z</time>
      </trkpt>
      <trkpt lat="29.206349" lon="-13.455419">
        <ele>56.831</ele>
        <time>2020-05-02T10:45:43Z</time>
      </trkpt>
      <trkpt lat="29.206406" lon="-13.455368">
        <ele>56.632</ele>
        <time>2020-05-02T10:45:48Z</time>
      </trkpt>
      <trkpt lat="29.206492" lon="-13.455277">
        <ele>56.419</ele>
        <time>2020-05-02T10:45:55Z</time>
      </trkpt>
      <trkpt lat="29.206531" lon="-13.455226">
        <ele>56.039</ele>
        <time>2020-05-02T10:45:59Z</time>
      </trkpt>
      <trkpt lat="29.206565" lon="-13.455197">
        <ele>55.882</ele>
        <time>2020-05-02T10:46:02Z</time>
      </trkpt>
      <trkpt lat="29.206610" lon="-13.455131">
        <ele>55.423</ele>
        <time>2020-05-02T10:46:06Z</time>
      </trkpt>
      <trkpt lat="29.206622" lon="-13.455111">
        <ele>55.468</ele>
        <time>2020-05-02T10:46:07Z</time>
      </trkpt>
      <trkpt lat="29.206667" lon="-13.455016">
        <ele>55.442</ele>
        <time>2020-05-02T10:46:12Z</time>
      </trkpt>
      <trkpt lat="29.206676" lon="-13.455003">
        <ele>55.426</ele>
        <time>2020-05-02T10:46:13Z</time>
      </trkpt>
      <trkpt lat="29.206704" lon="-13.454953">
        <ele>54.808</ele>
        <time>2020-05-02T10:46:16Z</time>
      </trkpt>
      <trkpt lat="29.206739" lon="-13.454887">
        <ele>54.470</ele>
        <time>2020-05-02T10:46:20Z</time>
      </trkpt>
      <trkpt lat="29.206788" lon="-13.454758">
        <ele>53.864</ele>
        <time>2020-05-02T10:46:27Z</time>
      </trkpt>
      <trkpt lat="29.206803" lon="-13.454697">
        <ele>53.843</ele>
        <time>2020-05-02T10:46:30Z</time>
      </trkpt>
      <trkpt lat="29.206807" lon="-13.454611">
        <ele>53.814</ele>
        <time>2020-05-02T10:46:35Z</time>
      </trkpt>
      <trkpt lat="29.206816" lon="-13.454538">
        <ele>53.461</ele>
        <time>2020-05-02T10:46:39Z</time>
      </trkpt>
      <trkpt lat="29.206832" lon="-13.454494">
        <ele>53.411</ele>
        <time>2020-05-02T10:46:42Z</time>
      </trkpt>
      <trkpt lat="29.206851" lon="-13.454470">
        <ele>53.474</ele>
        <time>2020-05-02T10:46:44Z</time>
      </trkpt>
      <trkpt lat="29.206892" lon="-13.454465">
        <ele>53.255</ele>
        <time>2020-05-02T10:46:47Z</time>
      </trkpt>
      <trkpt lat="29.207021" lon="-13.454476">
        <ele>53.098</ele>
        <time>2020-05-02T10:46:55Z</time>
      </trkpt>
      <trkpt lat="29.207144" lon="-13.454479">
        <ele>53.015</ele>
        <time>2020-05-02T10:47:03Z</time>
      </trkpt>
      <trkpt lat="29.207276" lon="-13.454493">
        <ele>52.826</ele>
        <time>2020-05-02T10:47:11Z</time>
      </trkpt>
      <trkpt lat="29.207413" lon="-13.454501">
        <ele>52.408</ele>
        <time>2020-05-02T10:47:19Z</time>
      </trkpt>
      <trkpt lat="29.207528" lon="-13.454528">
        <ele>52.273</ele>
        <time>2020-05-02T10:47:27Z</time>
      </trkpt>
      <trkpt lat="29.207651" lon="-13.454541">
        <ele>52.277</ele>
        <time>2020-05-02T10:47:35Z</time>
      </trkpt>
      <trkpt lat="29.207712" lon="-13.454547">
        <ele>51.816</ele>
        <time>2020-05-02T10:47:39Z</time>
      </trkpt>
      <trkpt lat="29.207780" lon="-13.454558">
        <ele>51.237</ele>
        <time>2020-05-02T10:47:43Z</time>
      </trkpt>
      <trkpt lat="29.207886" lon="-13.454573">
        <ele>51.414</ele>
        <time>2020-05-02T10:47:50Z</time>
      </trkpt>
      <trkpt lat="29.207977" lon="-13.454601">
        <ele>50.654</ele>
        <time>2020-05-02T10:47:56Z</time>
      </trkpt>
      <trkpt lat="29.208012" lon="-13.454611">
        <ele>50.677</ele>
        <time>2020-05-02T10:47:58Z</time>
      </trkpt>
      <trkpt lat="29.208120" lon="-13.454644">
        <ele>51.078</ele>
        <time>2020-05-02T10:48:05Z</time>
      </trkpt>
      <trkpt lat="29.208228" lon="-13.454675">
        <ele>49.647</ele>
        <time>2020-05-02T10:48:12Z</time>
      </trkpt>
      <trkpt lat="29.208243" lon="-13.454680">
        <ele>49.629</ele>
        <time>2020-05-02T10:48:13Z</time>
      </trkpt>
      <trkpt lat="29.208376" lon="-13.454689">
        <ele>49.221</ele>
        <time>2020-05-02T10:48:21Z</time>
      </trkpt>
      <trkpt lat="29.208473" lon="-13.454662">
        <ele>48.608</ele>
        <time>2020-05-02T10:48:26Z</time>
      </trkpt>
      <trkpt lat="29.208506" lon="-13.454642">
        <ele>48.468</ele>
        <time>2020-05-02T10:48:28Z</time>
      </trkpt>
      <trkpt lat="29.208526" lon="-13.454632">
        <ele>48.412</ele>
        <time>2020-05-02T10:48:30Z</time>
      </trkpt>
      <trkpt lat="29.208582" lon="-13.454633">
        <ele>48.291</ele>
        <time>2020-05-02T10:48:34Z</time>
      </trkpt>
      <trkpt lat="29.208679" lon="-13.454628">
        <ele>47.632</ele>
        <time>2020-05-02T10:48:40Z</time>
      </trkpt>
      <trkpt lat="29.208697" lon="-13.454627">
        <ele>47.689</ele>
        <time>2020-05-02T10:48:41Z</time>
      </trkpt>
      <trkpt lat="29.208831" lon="-13.454628">
        <ele>47.439</ele>
        <time>2020-05-02T10:48:49Z</time>
      </trkpt>
      <trkpt lat="29.208932" lon="-13.454631">
        <ele>47.412</ele>
        <time>2020-05-02T10:48:55Z</time>
      </trkpt>
      <trkpt lat="29.208981" lon="-13.454629">
        <ele>47.233</ele>
        <time>2020-05-02T10:48:58Z</time>
      </trkpt>
      <trkpt lat="29.209105" lon="-13.454627">
        <ele>47.249</ele>
        <time>2020-05-02T10:49:06Z</time>
      </trkpt>
      <trkpt lat="29.209240" lon="-13.454623">
        <ele>47.002</ele>
        <time>2020-05-02T10:49:14Z</time>
      </trkpt>
      <trkpt lat="29.209381" lon="-13.454623">
        <ele>46.622</ele>
        <time>2020-05-02T10:49:23Z</time>
      </trkpt>
      <trkpt lat="29.209414" lon="-13.454627">
        <ele>46.608</ele>
        <time>2020-05-02T10:49:25Z</time>
      </trkpt>
      <trkpt lat="29.209480" lon="-13.454625">
        <ele>46.848</ele>
        <time>2020-05-02T10:49:29Z</time>
      </trkpt>
      <trkpt lat="29.209571" lon="-13.454632">
        <ele>46.612</ele>
        <time>2020-05-02T10:49:35Z</time>
      </trkpt>
      <trkpt lat="29.209595" lon="-13.454620">
        <ele>46.441</ele>
        <time>2020-05-02T10:49:37Z</time>
      </trkpt>
      <trkpt lat="29.209622" lon="-13.454586">
        <ele>46.222</ele>
        <time>2020-05-02T10:49:40Z</time>
      </trkpt>
      <trkpt lat="29.209737" lon="-13.454542">
        <ele>46.419</ele>
        <time>2020-05-02T10:49:48Z</time>
      </trkpt>
      <trkpt lat="29.209884" lon="-13.454501">
        <ele>45.629</ele>
        <time>2020-05-02T10:49:57Z</time>
      </trkpt>
      <trkpt lat="29.209900" lon="-13.454497">
        <ele>45.442</ele>
        <time>2020-05-02T10:49:58Z</time>
      </trkpt>
      <trkpt lat="29.209973" lon="-13.454490">
        <ele>45.483</ele>
        <time>2020-05-02T10:50:02Z</time>
      </trkpt>
      <trkpt lat="29.210007" lon="-13.454478">
        <ele>45.495</ele>
        <time>2020-05-02T10:50:04Z</time>
      </trkpt>
      <trkpt lat="29.210151" lon="-13.454433">
        <ele>46.249</ele>
        <time>2020-05-02T10:50:09Z</time>
      </trkpt>
      <trkpt lat="29.210180" lon="-13.454424">
        <ele>46.623</ele>
        <time>2020-05-02T10:50:10Z</time>
      </trkpt>
      <trkpt lat="29.210323" lon="-13.454368">
        <ele>46.808</ele>
        <time>2020-05-02T10:50:15Z</time>
      </trkpt>
      <trkpt lat="29.210377" lon="-13.454344">
        <ele>46.433</ele>
        <time>2020-05-02T10:50:17Z</time>
      </trkpt>
      <trkpt lat="29.210429" lon="-13.454314">
        <ele>45.247</ele>
        <time>2020-05-02T10:50:19Z</time>
      </trkpt>
      <trkpt lat="29.210598" lon="-13.454226">
        <ele>44.256</ele>
        <time>2020-05-02T10:50:25Z</time>
      </trkpt>
      <trkpt lat="29.210626" lon="-13.454211">
        <ele>44.277</ele>
        <time>2020-05-02T10:50:26Z</time>
      </trkpt>
      <trkpt lat="29.210790" lon="-13.454119">
        <ele>43.464</ele>
        <time>2020-05-02T10:50:32Z</time>
      </trkpt>
      <trkpt lat="29.210840" lon="-13.454084">
        <ele>43.484</ele>
        <time>2020-05-02T10:50:34Z</time>
      </trkpt>
      <trkpt lat="29.210977" lon="-13.454046">
        <ele>43.687</ele>
        <time>2020-05-02T10:50:39Z</time>
      </trkpt>
      <trkpt lat="29.211059" lon="-13.454105">
        <ele>43.868</ele>
        <time>2020-05-02T10:50:43Z</time>
      </trkpt>
      <trkpt lat="29.211079" lon="-13.454193">
        <ele>43.297</ele>
        <time>2020-05-02T10:50:46Z</time>
      </trkpt>
      <trkpt lat="29.211096" lon="-13.454247">
        <ele>43.023</ele>
        <time>2020-05-02T10:50:48Z</time>
      </trkpt>
      <trkpt lat="29.211156" lon="-13.454306">
        <ele>43.025</ele>
        <time>2020-05-02T10:50:52Z</time>
      </trkpt>
      <trkpt lat="29.211258" lon="-13.454374">
        <ele>42.608</ele>
        <time>2020-05-02T10:51:00Z</time>
      </trkpt>
      <trkpt lat="29.211336" lon="-13.454464">
        <ele>42.243</ele>
        <time>2020-05-02T10:51:08Z</time>
      </trkpt>
      <trkpt lat="29.211404" lon="-13.454569">
        <ele>42.497</ele>
        <time>2020-05-02T10:51:15Z</time>
      </trkpt>
      <trkpt lat="29.211414" lon="-13.454585">
        <ele>42.456</ele>
        <time>2020-05-02T10:51:16Z</time>
      </trkpt>
      <trkpt lat="29.211480" lon="-13.454685">
        <ele>42.617</ele>
        <time>2020-05-02T10:51:23Z</time>
      </trkpt>
      <trkpt lat="29.211461" lon="-13.454791">
        <ele>43.214</ele>
        <time>2020-05-02T10:51:29Z</time>
      </trkpt>
      <trkpt lat="29.211440" lon="-13.454942">
        <ele>43.664</ele>
        <time>2020-05-02T10:51:37Z</time>
      </trkpt>
      <trkpt lat="29.211461" lon="-13.455036">
        <ele>44.257</ele>
        <time>2020-05-02T10:51:42Z</time>
      </trkpt>
      <trkpt lat="29.211481" lon="-13.455066">
        <ele>44.278</ele>
        <time>2020-05-02T10:51:44Z</time>
      </trkpt>
      <trkpt lat="29.211586" lon="-13.455156">
        <ele>44.836</ele>
        <time>2020-05-02T10:51:52Z</time>
      </trkpt>
      <trkpt lat="29.211667" lon="-13.455216">
        <ele>44.617</ele>
        <time>2020-05-02T10:51:58Z</time>
      </trkpt>
      <trkpt lat="29.211694" lon="-13.455239">
        <ele>44.618</ele>
        <time>2020-05-02T10:52:00Z</time>
      </trkpt>
      <trkpt lat="29.211764" lon="-13.455309">
        <ele>44.608</ele>
        <time>2020-05-02T10:52:06Z</time>
      </trkpt>
      <trkpt lat="29.211804" lon="-13.455346">
        <ele>44.877</ele>
        <time>2020-05-02T10:52:09Z</time>
      </trkpt>
      <trkpt lat="29.211890" lon="-13.455445">
        <ele>44.841</ele>
        <time>2020-05-02T10:52:17Z</time>
      </trkpt>
      <trkpt lat="29.211938" lon="-13.455463">
        <ele>45.270</ele>
        <time>2020-05-02T10:52:20Z</time>
      </trkpt>
      <trkpt lat="29.211987" lon="-13.455455">
        <ele>45.231</ele>
        <time>2020-05-02T10:52:23Z</time>
      </trkpt>
      <trkpt lat="29.212062" lon="-13.455429">
        <ele>44.098</ele>
        <time>2020-05-02T10:52:28Z</time>
      </trkpt>
      <trkpt lat="29.212088" lon="-13.455420">
        <ele>43.688</ele>
        <time>2020-05-02T10:52:30Z</time>
      </trkpt>
      <trkpt lat="29.212150" lon="-13.455412">
        <ele>44.281</ele>
        <time>2020-05-02T10:52:35Z</time>
      </trkpt>
      <trkpt lat="29.212193" lon="-13.455419">
        <ele>43.262</ele>
        <time>2020-05-02T10:52:38Z</time>
      </trkpt>
      <trkpt lat="29.212208" lon="-13.455421">
        <ele>43.025</ele>
        <time>2020-05-02T10:52:39Z</time>
      </trkpt>
      <trkpt lat="29.212302" lon="-13.455421">
        <ele>42.826</ele>
        <time>2020-05-02T10:52:45Z</time>
      </trkpt>
      <trkpt lat="29.212418" lon="-13.455399">
        <ele>42.008</ele>
        <time>2020-05-02T10:52:53Z</time>
      </trkpt>
      <trkpt lat="29.212432" lon="-13.455397">
        <ele>41.808</ele>
        <time>2020-05-02T10:52:54Z</time>
      </trkpt>
      <trkpt lat="29.212505" lon="-13.455382">
        <ele>41.226</ele>
        <time>2020-05-02T10:52:59Z</time>
      </trkpt>
      <trkpt lat="29.212588" lon="-13.455370">
        <ele>40.610</ele>
        <time>2020-05-02T10:53:05Z</time>
      </trkpt>
      <trkpt lat="29.212606" lon="-13.455364">
        <ele>40.459</ele>
        <time>2020-05-02T10:53:06Z</time>
      </trkpt>
      <trkpt lat="29.212735" lon="-13.455309">
        <ele>40.060</ele>
        <time>2020-05-02T10:53:15Z</time>
      </trkpt>
      <trkpt lat="29.212762" lon="-13.455298">
        <ele>39.867</ele>
        <time>2020-05-02T10:53:17Z</time>
      </trkpt>
      <trkpt lat="29.212789" lon="-13.455282">
        <ele>39.657</ele>
        <time>2020-05-02T10:53:19Z</time>
      </trkpt>
      <trkpt lat="29.212813" lon="-13.455274">
        <ele>39.680</ele>
        <time>2020-05-02T10:53:21Z</time>
      </trkpt>
      <trkpt lat="29.212918" lon="-13.455248">
        <ele>38.881</ele>
        <time>2020-05-02T10:53:28Z</time>
      </trkpt>
      <trkpt lat="29.212936" lon="-13.455237">
        <ele>38.614</ele>
        <time>2020-05-02T10:53:29Z</time>
      </trkpt>
      <trkpt lat="29.213007" lon="-13.455202">
        <ele>38.254</ele>
        <time>2020-05-02T10:53:34Z</time>
      </trkpt>
      <trkpt lat="29.213090" lon="-13.455189">
        <ele>37.809</ele>
        <time>2020-05-02T10:53:40Z</time>
      </trkpt>
      <trkpt lat="29.213140" lon="-13.455224">
        <ele>37.408</ele>
        <time>2020-05-02T10:53:44Z</time>
      </trkpt>
      <trkpt lat="29.213176" lon="-13.455265">
        <ele>37.255</ele>
        <time>2020-05-02T10:53:47Z</time>
      </trkpt>
      <trkpt lat="29.213205" lon="-13.455369">
        <ele>36.619</ele>
        <time>2020-05-02T10:53:54Z</time>
      </trkpt>
      <trkpt lat="29.213191" lon="-13.455493">
        <ele>36.618</ele>
        <time>2020-05-02T10:54:00Z</time>
      </trkpt>
      <trkpt lat="29.213159" lon="-13.455625">
        <ele>37.419</ele>
        <time>2020-05-02T10:54:05Z</time>
      </trkpt>
      <trkpt lat="29.213156" lon="-13.455650">
        <ele>37.466</ele>
        <time>2020-05-02T10:54:06Z</time>
      </trkpt>
      <trkpt lat="29.213155" lon="-13.455768">
        <ele>37.266</ele>
        <time>2020-05-02T10:54:12Z</time>
      </trkpt>
      <trkpt lat="29.213171" lon="-13.455839">
        <ele>37.289</ele>
        <time>2020-05-02T10:54:16Z</time>
      </trkpt>
      <trkpt lat="29.213176" lon="-13.455874">
        <ele>37.250</ele>
        <time>2020-05-02T10:54:18Z</time>
      </trkpt>
      <trkpt lat="29.213191" lon="-13.456002">
        <ele>37.699</ele>
        <time>2020-05-02T10:54:25Z</time>
      </trkpt>
      <trkpt lat="29.213182" lon="-13.456120">
        <ele>37.607</ele>
        <time>2020-05-02T10:54:32Z</time>
      </trkpt>
      <trkpt lat="29.213210" lon="-13.456237">
        <ele>38.427</ele>
        <time>2020-05-02T10:54:39Z</time>
      </trkpt>
      <trkpt lat="29.213221" lon="-13.456252">
        <ele>38.608</ele>
        <time>2020-05-02T10:54:40Z</time>
      </trkpt>
      <trkpt lat="29.213282" lon="-13.456282">
        <ele>39.873</ele>
        <time>2020-05-02T10:54:44Z</time>
      </trkpt>
      <trkpt lat="29.213299" lon="-13.456287">
        <ele>40.057</ele>
        <time>2020-05-02T10:54:45Z</time>
      </trkpt>
      <trkpt lat="29.213355" lon="-13.456312">
        <ele>41.076</ele>
        <time>2020-05-02T10:54:49Z</time>
      </trkpt>
      <trkpt lat="29.213383" lon="-13.456326">
        <ele>41.497</ele>
        <time>2020-05-02T10:54:51Z</time>
      </trkpt>
      <trkpt lat="29.213485" lon="-13.456354">
        <ele>41.484</ele>
        <time>2020-05-02T10:54:58Z</time>
      </trkpt>
      <trkpt lat="29.213567" lon="-13.456379">
        <ele>42.044</ele>
        <time>2020-05-02T10:55:03Z</time>
      </trkpt>
      <trkpt lat="29.213631" lon="-13.456405">
        <ele>42.867</ele>
        <time>2020-05-02T10:55:07Z</time>
      </trkpt>
      <trkpt lat="29.213648" lon="-13.456409">
        <ele>43.278</ele>
        <time>2020-05-02T10:55:08Z</time>
      </trkpt>
      <trkpt lat="29.213744" lon="-13.456429">
        <ele>43.062</ele>
        <time>2020-05-02T10:55:14Z</time>
      </trkpt>
      <trkpt lat="29.213795" lon="-13.456441">
        <ele>42.283</ele>
        <time>2020-05-02T10:55:17Z</time>
      </trkpt>
      <trkpt lat="29.213877" lon="-13.456457">
        <ele>41.011</ele>
        <time>2020-05-02T10:55:22Z</time>
      </trkpt>
      <trkpt lat="29.213893" lon="-13.456455">
        <ele>41.008</ele>
        <time>2020-05-02T10:55:23Z</time>
      </trkpt>
      <trkpt lat="29.213968" lon="-13.456444">
        <ele>40.610</ele>
        <time>2020-05-02T10:55:28Z</time>
      </trkpt>
      <trkpt lat="29.214027" lon="-13.456429">
        <ele>40.464</ele>
        <time>2020-05-02T10:55:31Z</time>
      </trkpt>
      <trkpt lat="29.214047" lon="-13.456426">
        <ele>40.293</ele>
        <time>2020-05-02T10:55:32Z</time>
      </trkpt>
      <trkpt lat="29.214098" lon="-13.456410">
        <ele>39.894</ele>
        <time>2020-05-02T10:55:35Z</time>
      </trkpt>
      <trkpt lat="29.214172" lon="-13.456377">
        <ele>39.041</ele>
        <time>2020-05-02T10:55:39Z</time>
      </trkpt>
      <trkpt lat="29.214205" lon="-13.456361">
        <ele>39.051</ele>
        <time>2020-05-02T10:55:41Z</time>
      </trkpt>
      <trkpt lat="29.214234" lon="-13.456352">
        <ele>38.814</ele>
        <time>2020-05-02T10:55:43Z</time>
      </trkpt>
      <trkpt lat="29.214284" lon="-13.456332">
        <ele>37.895</ele>
        <time>2020-05-02T10:55:46Z</time>
      </trkpt>
      <trkpt lat="29.214389" lon="-13.456328">
        <ele>36.846</ele>
        <time>2020-05-02T10:55:51Z</time>
      </trkpt>
      <trkpt lat="29.214419" lon="-13.456327">
        <ele>36.888</ele>
        <time>2020-05-02T10:55:52Z</time>
      </trkpt>
      <trkpt lat="29.214526" lon="-13.456313">
        <ele>37.216</ele>
        <time>2020-05-02T10:55:56Z</time>
      </trkpt>
      <trkpt lat="29.214575" lon="-13.456309">
        <ele>37.408</ele>
        <time>2020-05-02T10:55:58Z</time>
      </trkpt>
      <trkpt lat="29.214670" lon="-13.456291">
        <ele>36.878</ele>
        <time>2020-05-02T10:56:02Z</time>
      </trkpt>
      <trkpt lat="29.214689" lon="-13.456267">
        <ele>36.682</ele>
        <time>2020-05-02T10:56:03Z</time>
      </trkpt>
      <trkpt lat="29.214732" lon="-13.456197">
        <ele>35.651</ele>
        <time>2020-05-02T10:56:06Z</time>
      </trkpt>
      <trkpt lat="29.214759" lon="-13.456191">
        <ele>35.232</ele>
        <time>2020-05-02T10:56:07Z</time>
      </trkpt>
      <trkpt lat="29.214847" lon="-13.456183">
        <ele>34.849</ele>
        <time>2020-05-02T10:56:10Z</time>
      </trkpt>
      <trkpt lat="29.214958" lon="-13.456164">
        <ele>35.069</ele>
        <time>2020-05-02T10:56:14Z</time>
      </trkpt>
      <trkpt lat="29.215067" lon="-13.456155">
        <ele>34.652</ele>
        <time>2020-05-02T10:56:18Z</time>
      </trkpt>
      <trkpt lat="29.215144" lon="-13.456128">
        <ele>34.433</ele>
        <time>2020-05-02T10:56:21Z</time>
      </trkpt>
      <trkpt lat="29.215180" lon="-13.456086">
        <ele>34.265</ele>
        <time>2020-05-02T10:56:23Z</time>
      </trkpt>
      <trkpt lat="29.215205" lon="-13.456040">
        <ele>34.268</ele>
        <time>2020-05-02T10:56:25Z</time>
      </trkpt>
      <trkpt lat="29.215222" lon="-13.456027">
        <ele>34.214</ele>
        <time>2020-05-02T10:56:26Z</time>
      </trkpt>
      <trkpt lat="29.215237" lon="-13.456011">
        <ele>34.208</ele>
        <time>2020-05-02T10:56:27Z</time>
      </trkpt>
      <trkpt lat="29.215236" lon="-13.455929">
        <ele>34.280</ele>
        <time>2020-05-02T10:56:30Z</time>
      </trkpt>
      <trkpt lat="29.215252" lon="-13.455888">
        <ele>34.044</ele>
        <time>2020-05-02T10:56:32Z</time>
      </trkpt>
      <trkpt lat="29.215271" lon="-13.455886">
        <ele>33.893</ele>
        <time>2020-05-02T10:56:33Z</time>
      </trkpt>
      <trkpt lat="29.215345" lon="-13.455903">
        <ele>33.474</ele>
        <time>2020-05-02T10:56:36Z</time>
      </trkpt>
      <trkpt lat="29.215413" lon="-13.455927">
        <ele>33.461</ele>
        <time>2020-05-02T10:56:39Z</time>
      </trkpt>
      <trkpt lat="29.215560" lon="-13.456006">
        <ele>34.481</ele>
        <time>2020-05-02T10:56:46Z</time>
      </trkpt>
      <trkpt lat="29.215580" lon="-13.456017">
        <ele>34.484</ele>
        <time>2020-05-02T10:56:47Z</time>
      </trkpt>
      <trkpt lat="29.215657" lon="-13.456013">
        <ele>34.455</ele>
        <time>2020-05-02T10:56:50Z</time>
      </trkpt>
      <trkpt lat="29.215707" lon="-13.455974">
        <ele>33.284</ele>
        <time>2020-05-02T10:56:54Z</time>
      </trkpt>
      <trkpt lat="29.215718" lon="-13.455962">
        <ele>33.007</ele>
        <time>2020-05-02T10:56:55Z</time>
      </trkpt>
      <trkpt lat="29.215763" lon="-13.455901">
        <ele>32.217</ele>
        <time>2020-05-02T10:57:01Z</time>
      </trkpt>
      <trkpt lat="29.215773" lon="-13.455886">
        <ele>32.008</ele>
        <time>2020-05-02T10:57:02Z</time>
      </trkpt>
      <trkpt lat="29.215813" lon="-13.455825">
        <ele>31.232</ele>
        <time>2020-05-02T10:57:06Z</time>
      </trkpt>
      <trkpt lat="29.215822" lon="-13.455811">
        <ele>31.236</ele>
        <time>2020-05-02T10:57:07Z</time>
      </trkpt>
      <trkpt lat="29.215846" lon="-13.455750">
        <ele>31.225</ele>
        <time>2020-05-02T10:57:11Z</time>
      </trkpt>
      <trkpt lat="29.215868" lon="-13.455706">
        <ele>31.286</ele>
        <time>2020-05-02T10:57:14Z</time>
      </trkpt>
      <trkpt lat="29.215917" lon="-13.455656">
        <ele>31.263</ele>
        <time>2020-05-02T10:57:18Z</time>
      </trkpt>
      <trkpt lat="29.215946" lon="-13.455644">
        <ele>31.233</ele>
        <time>2020-05-02T10:57:20Z</time>
      </trkpt>
      <trkpt lat="29.216005" lon="-13.455634">
        <ele>30.846</ele>
        <time>2020-05-02T10:57:24Z</time>
      </trkpt>
      <trkpt lat="29.216093" lon="-13.455620">
        <ele>30.477</ele>
        <time>2020-05-02T10:57:30Z</time>
      </trkpt>
      <trkpt lat="29.216162" lon="-13.455618">
        <ele>30.276</ele>
        <time>2020-05-02T10:57:35Z</time>
      </trkpt>
      <trkpt lat="29.216221" lon="-13.455612">
        <ele>30.090</ele>
        <time>2020-05-02T10:57:39Z</time>
      </trkpt>
      <trkpt lat="29.216253" lon="-13.455612">
        <ele>29.819</ele>
        <time>2020-05-02T10:57:41Z</time>
      </trkpt>
      <trkpt lat="29.216313" lon="-13.455605">
        <ele>29.608</ele>
        <time>2020-05-02T10:57:45Z</time>
      </trkpt>
      <trkpt lat="29.216379" lon="-13.455611">
        <ele>29.441</ele>
        <time>2020-05-02T10:57:49Z</time>
      </trkpt>
      <trkpt lat="29.216477" lon="-13.455619">
        <ele>29.825</ele>
        <time>2020-05-02T10:57:55Z</time>
      </trkpt>
      <trkpt lat="29.216594" lon="-13.455595">
        <ele>29.664</ele>
        <time>2020-05-02T10:58:02Z</time>
      </trkpt>
      <trkpt lat="29.216683" lon="-13.455549">
        <ele>29.285</ele>
        <time>2020-05-02T10:58:08Z</time>
      </trkpt>
      <trkpt lat="29.216755" lon="-13.455529">
        <ele>28.852</ele>
        <time>2020-05-02T10:58:13Z</time>
      </trkpt>
      <trkpt lat="29.216766" lon="-13.455534">
        <ele>28.812</ele>
        <time>2020-05-02T10:58:14Z</time>
      </trkpt>
      <trkpt lat="29.216833" lon="-13.455601">
        <ele>28.625</ele>
        <time>2020-05-02T10:58:20Z</time>
      </trkpt>
      <trkpt lat="29.216963" lon="-13.455621">
        <ele>28.236</ele>
        <time>2020-05-02T10:58:27Z</time>
      </trkpt>
      <trkpt lat="29.217066" lon="-13.455621">
        <ele>28.214</ele>
        <time>2020-05-02T10:58:33Z</time>
      </trkpt>
      <trkpt lat="29.217180" lon="-13.455645">
        <ele>28.254</ele>
        <time>2020-05-02T10:58:40Z</time>
      </trkpt>
      <trkpt lat="29.217282" lon="-13.455687">
        <ele>28.009</ele>
        <time>2020-05-02T10:58:47Z</time>
      </trkpt>
      <trkpt lat="29.217403" lon="-13.455727">
        <ele>27.808</ele>
        <time>2020-05-02T10:58:55Z</time>
      </trkpt>
      <trkpt lat="29.217527" lon="-13.455771">
        <ele>28.495</ele>
        <time>2020-05-02T10:59:03Z</time>
      </trkpt>
      <trkpt lat="29.217619" lon="-13.455811">
        <ele>28.059</ele>
        <time>2020-05-02T10:59:09Z</time>
      </trkpt>
      <trkpt lat="29.217646" lon="-13.455821">
        <ele>27.868</ele>
        <time>2020-05-02T10:59:11Z</time>
      </trkpt>
      <trkpt lat="29.217676" lon="-13.455834">
        <ele>27.419</ele>
        <time>2020-05-02T10:59:13Z</time>
      </trkpt>
      <trkpt lat="29.217733" lon="-13.455853">
        <ele>27.216</ele>
        <time>2020-05-02T10:59:17Z</time>
      </trkpt>
      <trkpt lat="29.217837" lon="-13.455892">
        <ele>27.016</ele>
        <time>2020-05-02T10:59:24Z</time>
      </trkpt>
      <trkpt lat="29.217939" lon="-13.455942">
        <ele>26.889</ele>
        <time>2020-05-02T10:59:31Z</time>
      </trkpt>
      <trkpt lat="29.218001" lon="-13.455977">
        <ele>26.630</ele>
        <time>2020-05-02T10:59:35Z</time>
      </trkpt>
      <trkpt lat="29.218026" lon="-13.455997">
        <ele>26.411</ele>
        <time>2020-05-02T10:59:37Z</time>
      </trkpt>
      <trkpt lat="29.218162" lon="-13.456080">
        <ele>26.421</ele>
        <time>2020-05-02T10:59:46Z</time>
      </trkpt>
      <trkpt lat="29.218247" lon="-13.456138">
        <ele>26.203</ele>
        <time>2020-05-02T10:59:52Z</time>
      </trkpt>
      <trkpt lat="29.218348" lon="-13.456192">
        <ele>26.208</ele>
        <time>2020-05-02T10:59:59Z</time>
      </trkpt>
      <trkpt lat="29.218456" lon="-13.456230">
        <ele>25.625</ele>
        <time>2020-05-02T11:00:06Z</time>
      </trkpt>
      <trkpt lat="29.218474" lon="-13.456230">
        <ele>25.689</ele>
        <time>2020-05-02T11:00:07Z</time>
      </trkpt>
      <trkpt lat="29.218580" lon="-13.456234">
        <ele>25.658</ele>
        <time>2020-05-02T11:00:13Z</time>
      </trkpt>
      <trkpt lat="29.218722" lon="-13.456222">
        <ele>24.889</ele>
        <time>2020-05-02T11:00:21Z</time>
      </trkpt>
      <trkpt lat="29.218785" lon="-13.456230">
        <ele>24.476</ele>
        <time>2020-05-02T11:00:25Z</time>
      </trkpt>
      <trkpt lat="29.218854" lon="-13.456238">
        <ele>24.016</ele>
        <time>2020-05-02T11:00:29Z</time>
      </trkpt>
      <trkpt lat="29.218930" lon="-13.456256">
        <ele>23.689</ele>
        <time>2020-05-02T11:00:34Z</time>
      </trkpt>
      <trkpt lat="29.218966" lon="-13.456259">
        <ele>23.670</ele>
        <time>2020-05-02T11:00:36Z</time>
      </trkpt>
      <trkpt lat="29.218981" lon="-13.456263">
        <ele>23.433</ele>
        <time>2020-05-02T11:00:37Z</time>
      </trkpt>
      <trkpt lat="29.219084" lon="-13.456273">
        <ele>23.623</ele>
        <time>2020-05-02T11:00:43Z</time>
      </trkpt>
      <trkpt lat="29.219239" lon="-13.456294">
        <ele>23.215</ele>
        <time>2020-05-02T11:00:51Z</time>
      </trkpt>
      <trkpt lat="29.219414" lon="-13.456299">
        <ele>22.408</ele>
        <time>2020-05-02T11:00:57Z</time>
      </trkpt>
      <trkpt lat="29.219474" lon="-13.456302">
        <ele>22.457</ele>
        <time>2020-05-02T11:00:59Z</time>
      </trkpt>
      <trkpt lat="29.219562" lon="-13.456305">
        <ele>22.891</ele>
        <time>2020-05-02T11:01:02Z</time>
      </trkpt>
      <trkpt lat="29.219647" lon="-13.456301">
        <ele>23.620</ele>
        <time>2020-05-02T11:01:05Z</time>
      </trkpt>
      <trkpt lat="29.219813" lon="-13.456287">
        <ele>23.241</ele>
        <time>2020-05-02T11:01:11Z</time>
      </trkpt>
      <trkpt lat="29.220006" lon="-13.456277">
        <ele>22.678</ele>
        <time>2020-05-02T11:01:18Z</time>
      </trkpt>
      <trkpt lat="29.220033" lon="-13.456273">
        <ele>22.648</ele>
        <time>2020-05-02T11:01:19Z</time>
      </trkpt>
      <trkpt lat="29.220193" lon="-13.456261">
        <ele>22.671</ele>
        <time>2020-05-02T11:01:25Z</time>
      </trkpt>
      <trkpt lat="29.220219" lon="-13.456263">
        <ele>22.652</ele>
        <time>2020-05-02T11:01:26Z</time>
      </trkpt>
      <trkpt lat="29.220268" lon="-13.456269">
        <ele>22.412</ele>
        <time>2020-05-02T11:01:28Z</time>
      </trkpt>
      <trkpt lat="29.220362" lon="-13.456276">
        <ele>22.232</ele>
        <time>2020-05-02T11:01:32Z</time>
      </trkpt>
      <trkpt lat="29.220434" lon="-13.456254">
        <ele>21.205</ele>
        <time>2020-05-02T11:01:35Z</time>
      </trkpt>
      <trkpt lat="29.220500" lon="-13.456215">
        <ele>20.608</ele>
        <time>2020-05-02T11:01:38Z</time>
      </trkpt>
      <trkpt lat="29.220572" lon="-13.456186">
        <ele>20.875</ele>
        <time>2020-05-02T11:01:43Z</time>
      </trkpt>
      <trkpt lat="29.220645" lon="-13.456207">
        <ele>20.679</ele>
        <time>2020-05-02T11:01:49Z</time>
      </trkpt>
      <trkpt lat="29.220721" lon="-13.456129">
        <ele>20.878</ele>
        <time>2020-05-02T11:01:53Z</time>
      </trkpt>
      <trkpt lat="29.220842" lon="-13.456001">
        <ele>20.679</ele>
        <time>2020-05-02T11:01:59Z</time>
      </trkpt>
      <trkpt lat="29.220982" lon="-13.455882">
        <ele>21.066</ele>
        <time>2020-05-02T11:02:06Z</time>
      </trkpt>
      <trkpt lat="29.221076" lon="-13.455870">
        <ele>20.856</ele>
        <time>2020-05-02T11:02:10Z</time>
      </trkpt>
      <trkpt lat="29.221126" lon="-13.455881">
        <ele>20.219</ele>
        <time>2020-05-02T11:02:12Z</time>
      </trkpt>
      <trkpt lat="29.221227" lon="-13.455905">
        <ele>19.050</ele>
        <time>2020-05-02T11:02:16Z</time>
      </trkpt>
      <trkpt lat="29.221273" lon="-13.455911">
        <ele>18.645</ele>
        <time>2020-05-02T11:02:18Z</time>
      </trkpt>
      <trkpt lat="29.221363" lon="-13.455873">
        <ele>18.847</ele>
        <time>2020-05-02T11:02:24Z</time>
      </trkpt>
      <trkpt lat="29.221484" lon="-13.455872">
        <ele>18.211</ele>
        <time>2020-05-02T11:02:32Z</time>
      </trkpt>
      <trkpt lat="29.221600" lon="-13.455867">
        <ele>18.008</ele>
        <time>2020-05-02T11:02:39Z</time>
      </trkpt>
      <trkpt lat="29.221688" lon="-13.455852">
        <ele>17.818</ele>
        <time>2020-05-02T11:02:45Z</time>
      </trkpt>
      <trkpt lat="29.221704" lon="-13.455841">
        <ele>18.082</ele>
        <time>2020-05-02T11:02:46Z</time>
      </trkpt>
      <trkpt lat="29.221798" lon="-13.455774">
        <ele>18.021</ele>
        <time>2020-05-02T11:02:53Z</time>
      </trkpt>
      <trkpt lat="29.221904" lon="-13.455759">
        <ele>17.462</ele>
        <time>2020-05-02T11:03:00Z</time>
      </trkpt>
      <trkpt lat="29.222004" lon="-13.455751">
        <ele>17.679</ele>
        <time>2020-05-02T11:03:07Z</time>
      </trkpt>
      <trkpt lat="29.222115" lon="-13.455749">
        <ele>17.469</ele>
        <time>2020-05-02T11:03:14Z</time>
      </trkpt>
      <trkpt lat="29.222190" lon="-13.455714">
        <ele>17.282</ele>
        <time>2020-05-02T11:03:19Z</time>
      </trkpt>
      <trkpt lat="29.222214" lon="-13.455687">
        <ele>17.473</ele>
        <time>2020-05-02T11:03:21Z</time>
      </trkpt>
      <trkpt lat="29.222299" lon="-13.455647">
        <ele>17.687</ele>
        <time>2020-05-02T11:03:27Z</time>
      </trkpt>
      <trkpt lat="29.222405" lon="-13.455650">
        <ele>17.242</ele>
        <time>2020-05-02T11:03:33Z</time>
      </trkpt>
      <trkpt lat="29.222569" lon="-13.455652">
        <ele>17.026</ele>
        <time>2020-05-02T11:03:43Z</time>
      </trkpt>
      <trkpt lat="29.222730" lon="-13.455648">
        <ele>17.008</ele>
        <time>2020-05-02T11:03:53Z</time>
      </trkpt>
      <trkpt lat="29.222838" lon="-13.455636">
        <ele>16.892</ele>
        <time>2020-05-02T11:04:00Z</time>
      </trkpt>
      <trkpt lat="29.222956" lon="-13.455652">
        <ele>16.696</ele>
        <time>2020-05-02T11:04:07Z</time>
      </trkpt>
      <trkpt lat="29.223055" lon="-13.455674">
        <ele>16.465</ele>
        <time>2020-05-02T11:04:14Z</time>
      </trkpt>
      <trkpt lat="29.223179" lon="-13.455672">
        <ele>16.296</ele>
        <time>2020-05-02T11:04:21Z</time>
      </trkpt>
      <trkpt lat="29.223222" lon="-13.455646">
        <ele>16.263</ele>
        <time>2020-05-02T11:04:23Z</time>
      </trkpt>
      <trkpt lat="29.223268" lon="-13.455648">
        <ele>15.823</ele>
        <time>2020-05-02T11:04:25Z</time>
      </trkpt>
      <trkpt lat="29.223393" lon="-13.455632">
        <ele>15.856</ele>
        <time>2020-05-02T11:04:30Z</time>
      </trkpt>
      <trkpt lat="29.223582" lon="-13.455609">
        <ele>16.217</ele>
        <time>2020-05-02T11:04:38Z</time>
      </trkpt>
      <trkpt lat="29.223731" lon="-13.455581">
        <ele>17.079</ele>
        <time>2020-05-02T11:04:44Z</time>
      </trkpt>
      <trkpt lat="29.223885" lon="-13.455544">
        <ele>17.205</ele>
        <time>2020-05-02T11:04:50Z</time>
      </trkpt>
      <trkpt lat="29.224027" lon="-13.455505">
        <ele>16.625</ele>
        <time>2020-05-02T11:04:56Z</time>
      </trkpt>
      <trkpt lat="29.224046" lon="-13.455491">
        <ele>16.608</ele>
        <time>2020-05-02T11:04:57Z</time>
      </trkpt>
      <trkpt lat="29.224079" lon="-13.455416">
        <ele>16.271</ele>
        <time>2020-05-02T11:05:00Z</time>
      </trkpt>
      <trkpt lat="29.224081" lon="-13.455330">
        <ele>15.835</ele>
        <time>2020-05-02T11:05:03Z</time>
      </trkpt>
      <trkpt lat="29.224077" lon="-13.455247">
        <ele>15.874</ele>
        <time>2020-05-02T11:05:06Z</time>
      </trkpt>
      <trkpt lat="29.224081" lon="-13.455102">
        <ele>15.615</ele>
        <time>2020-05-02T11:05:12Z</time>
      </trkpt>
      <trkpt lat="29.224016" lon="-13.454989">
        <ele>15.662</ele>
        <time>2020-05-02T11:05:19Z</time>
      </trkpt>
      <trkpt lat="29.224008" lon="-13.454976">
        <ele>15.662</ele>
        <time>2020-05-02T11:05:20Z</time>
      </trkpt>
      <trkpt lat="29.224012" lon="-13.454915">
        <ele>15.845</ele>
        <time>2020-05-02T11:05:24Z</time>
      </trkpt>
      <trkpt lat="29.224016" lon="-13.454786">
        <ele>15.816</ele>
        <time>2020-05-02T11:05:31Z</time>
      </trkpt>
      <trkpt lat="29.223978" lon="-13.454674">
        <ele>15.874</ele>
        <time>2020-05-02T11:05:37Z</time>
      </trkpt>
      <trkpt lat="29.223901" lon="-13.454569">
        <ele>15.856</ele>
        <time>2020-05-02T11:05:45Z</time>
      </trkpt>
      <trkpt lat="29.223875" lon="-13.454497">
        <ele>16.021</ele>
        <time>2020-05-02T11:05:50Z</time>
      </trkpt>
      <trkpt lat="29.223873" lon="-13.454484">
        <ele>16.008</ele>
        <time>2020-05-02T11:05:51Z</time>
      </trkpt>
      <trkpt lat="29.223882" lon="-13.454384">
        <ele>16.281</ele>
        <time>2020-05-02T11:05:57Z</time>
      </trkpt>
      <trkpt lat="29.223883" lon="-13.454368">
        <ele>16.265</ele>
        <time>2020-05-02T11:05:58Z</time>
      </trkpt>
      <trkpt lat="29.223905" lon="-13.454256">
        <ele>16.484</ele>
        <time>2020-05-02T11:06:05Z</time>
      </trkpt>
      <trkpt lat="29.223920" lon="-13.454153">
        <ele>16.485</ele>
        <time>2020-05-02T11:06:11Z</time>
      </trkpt>
      <trkpt lat="29.223892" lon="-13.454056">
        <ele>16.292</ele>
        <time>2020-05-02T11:06:17Z</time>
      </trkpt>
      <trkpt lat="29.223881" lon="-13.454037">
        <ele>16.262</ele>
        <time>2020-05-02T11:06:18Z</time>
      </trkpt>
      <trkpt lat="29.223814" lon="-13.453985">
        <ele>16.055</ele>
        <time>2020-05-02T11:06:22Z</time>
      </trkpt>
      <trkpt lat="29.223700" lon="-13.453950">
        <ele>16.496</ele>
        <time>2020-05-02T11:06:28Z</time>
      </trkpt>
      <trkpt lat="29.223603" lon="-13.453934">
        <ele>16.871</ele>
        <time>2020-05-02T11:06:34Z</time>
      </trkpt>
      <trkpt lat="29.223541" lon="-13.453924">
        <ele>16.841</ele>
        <time>2020-05-02T11:06:38Z</time>
      </trkpt>
      <trkpt lat="29.223508" lon="-13.453924">
        <ele>17.015</ele>
        <time>2020-05-02T11:06:40Z</time>
      </trkpt>
      <trkpt lat="29.223412" lon="-13.453927">
        <ele>17.008</ele>
        <time>2020-05-02T11:06:46Z</time>
      </trkpt>
      <trkpt lat="29.223298" lon="-13.453933">
        <ele>17.231</ele>
        <time>2020-05-02T11:06:53Z</time>
      </trkpt>
      <trkpt lat="29.223279" lon="-13.453937">
        <ele>17.445</ele>
        <time>2020-05-02T11:06:54Z</time>
      </trkpt>
      <trkpt lat="29.223218" lon="-13.453930">
        <ele>17.844</ele>
        <time>2020-05-02T11:06:58Z</time>
      </trkpt>
      <trkpt lat="29.223191" lon="-13.453928">
        <ele>17.845</ele>
        <time>2020-05-02T11:07:00Z</time>
      </trkpt>
      <trkpt lat="29.223090" lon="-13.453928">
        <ele>17.452</ele>
        <time>2020-05-02T11:07:07Z</time>
      </trkpt>
      <trkpt lat="29.222984" lon="-13.453947">
        <ele>17.822</ele>
        <time>2020-05-02T11:07:14Z</time>
      </trkpt>
      <trkpt lat="29.222944" lon="-13.454054">
        <ele>18.055</ele>
        <time>2020-05-02T11:07:20Z</time>
      </trkpt>
      <trkpt lat="29.222918" lon="-13.454173">
        <ele>18.286</ele>
        <time>2020-05-02T11:07:26Z</time>
      </trkpt>
      <trkpt lat="29.222837" lon="-13.454213">
        <ele>17.468</ele>
        <time>2020-05-02T11:07:32Z</time>
      </trkpt>
      <trkpt lat="29.222751" lon="-13.454204">
        <ele>17.642</ele>
        <time>2020-05-02T11:07:38Z</time>
      </trkpt>
      <trkpt lat="29.222687" lon="-13.454194">
        <ele>17.626</ele>
        <time>2020-05-02T11:07:42Z</time>
      </trkpt>
      <trkpt lat="29.222636" lon="-13.454191">
        <ele>17.808</ele>
        <time>2020-05-02T11:07:45Z</time>
      </trkpt>
      <trkpt lat="29.222541" lon="-13.454154">
        <ele>17.850</ele>
        <time>2020-05-02T11:07:52Z</time>
      </trkpt>
      <trkpt lat="29.222511" lon="-13.454127">
        <ele>17.664</ele>
        <time>2020-05-02T11:07:55Z</time>
      </trkpt>
      <trkpt lat="29.222507" lon="-13.454099">
        <ele>17.813</ele>
        <time>2020-05-02T11:07:57Z</time>
      </trkpt>
      <trkpt lat="29.222508" lon="-13.454085">
        <ele>17.874</ele>
        <time>2020-05-02T11:07:58Z</time>
      </trkpt>
      <trkpt lat="29.222514" lon="-13.454050">
        <ele>18.691</ele>
        <time>2020-05-02T11:08:01Z</time>
      </trkpt>
    </trkseg>
  </trk>
</gpx>
